[[{"header":{"parameterUnit":"m.s-1","parameterCategory":1,"la1":30.6,"la2":29.2853,"lo1":-89.7004,"lo2":-87.6739,"dy":0.0162,"dx":0.0183,"nx":112,"ny":82,"refTime":"2026-04-29T12:00:00:Z","depth":0,"parameterNumber":2,"parameterNumberName":"U-component_of_WINDS"},"data":[0.0,0.0,0.0,0.0,0.0,0.0,0.0,0.0,0.0,0.0,0.0,0.0,0.0,0.0,0.0,0.0,0.0,0.0,0.0,0.0,0.0,0.0,0.0,0.0,0.0,0.0,0.0,0.0,0.0,0.0,0.0,0.0,0.0,0.0,0.0,0.0,0.0,0.0,0.0,0.0,0.0,0.0,0.0,0.0,0.0,0.0,0.0,0.0,0.0,0.0,0.0,0.0,0.0,0.0,0.0,0.0,0.0,0.0,0.0,0.0,0.0,0.0,0.0,0.0,0.0,0.0,0.0,0.0,0.0,0.0,0.0,0.0,0.0,0.0,0.0,0.0,0.0,0.0,0.0,0.0,0.0,0.0,0.0,0.0,0.0,0.0,0.0,0.0,0.0,0.0,3.8766,4.2482,4.7645,5.0136,4.8448,4.6948,4.5002,4.247,0.0,0.0,0.0,0.0,0.0,0.0,0.0,0.0,0.0,0.0,0.0,0.0,0.0,0.0,0.0,0.0,0.0,0.0,0.0,0.0,0.0,0.0,0.0,0.0,0.0,0.0,0.0,0.0,0.0,0.0,0.0,0.0,0.0,0.0,0.0,0.0,0.0,0.0,0.0,0.0,0.0,0.0,0.0,0.0,0.0,0.0,0.0,0.0,0.0,0.0,0.0,0.0,0.0,0.0,0.0,0.0,0.0,0.0,0.0,0.0,0.0,0.0,0.0,0.0,0.0,0.0,0.0,0.0,0.0,0.0,0.0,0.0,0.0,0.0,0.0,0.0,0.0,0.0,0.0,0.0,0.0,0.0,0.0,0.0,0.0,0.0,0.0,0.0,0.0,0.0,0.0,0.0,0.0,0.0,0.0,0.0,0.0,0.0,0.0,0.0,0.0,0.0,0.0,0.0,4.074,4.6691,4.9407,5.0136,4.8448,4.7448,4.5617,4.2506,0.0,0.0,0.0,0.0,0.0,0.0,0.0,0.0,0.0,0.0,0.0,0.0,0.0,0.0,0.0,0.0,0.0,0.0,0.0,0.0,0.0,0.0,0.0,0.0,0.0,0.0,0.0,0.0,0.0,0.0,0.0,0.0,0.0,0.0,0.0,0.0,0.0,0.0,0.0,0.0,0.0,0.0,0.0,0.0,0.0,0.0,0.0,0.0,0.0,0.0,0.0,0.0,0.0,0.0,0.0,0.0,0.0,0.0,0.0,0.0,0.0,0.0,0.0,0.0,0.0,0.0,0.0,0.0,0.0,0.0,0.0,0.0,0.0,0.0,0.0,0.0,0.0,0.0,0.0,0.0,0.0,0.0,0.0,0.0,0.0,0.0,0.0,0.0,0.0,0.0,0.0,0.0,0.0,0.0,0.0,0.0,0.0,0.0,0.0,0.0,0.0,0.0,0.0,4.2837,4.5035,4.8003,5.0577,5.1563,5.021,4.8255,4.5906,4.3135,3.9508,0.0,0.0,0.0,0.0,0.0,0.0,0.0,0.0,0.0,0.0,0.0,0.0,0.0,0.0,0.0,0.0,0.0,0.0,0.0,0.0,0.0,0.0,0.0,0.0,0.0,0.0,0.0,0.0,0.0,0.0,0.0,0.0,0.0,0.0,0.0,0.0,0.0,0.0,0.0,0.0,0.0,0.0,0.0,0.0,0.0,0.0,0.0,0.0,0.0,0.0,0.0,0.0,0.0,0.0,0.0,0.0,0.0,0.0,0.0,0.0,0.0,0.0,0.0,0.0,0.0,0.0,0.0,0.0,0.0,0.0,0.0,0.0,0.0,0.0,0.0,0.0,0.0,0.0,0.0,0.0,0.0,0.0,0.0,0.0,0.0,0.0,0.0,0.0,0.0,0.0,0.0,0.0,0.0,0.0,0.0,0.0,0.0,0.0,0.0,0.0,0.0,0.0,4.7462,4.9476,4.9476,5.1709,5.2664,5.1348,4.8847,4.6094,4.3135,3.9688,0.0,0.0,0.0,0.0,0.0,0.0,0.0,0.0,0.0,0.0,0.0,0.0,0.0,0.0,0.0,0.0,0.0,0.0,0.0,0.0,0.0,0.0,0.0,0.0,0.0,0.0,0.0,0.0,0.0,0.0,0.0,0.0,0.0,0.0,0.0,0.0,0.0,0.0,0.0,0.0,0.0,0.0,0.0,0.0,0.0,0.0,0.0,0.0,0.0,0.0,0.0,0.0,0.0,0.0,0.0,0.0,0.0,0.0,0.0,0.0,0.0,0.0,0.0,0.0,0.0,0.0,0.0,0.0,0.0,0.0,0.0,0.0,0.0,0.0,0.0,0.0,0.0,0.0,0.0,0.0,0.0,0.0,0.0,0.0,0.0,0.0,0.0,0.0,0.0,0.0,0.0,0.0,0.0,0.0,0.0,0.0,0.0,0.0,0.0,0.0,0.0,0.0,5.0829,5.2847,5.2847,5.3067,5.237,5.0288,4.8962,4.6241,4.1576,3.9603,0.0,0.0,0.0,0.0,0.0,0.0,0.0,0.0,0.0,0.0,0.0,0.0,0.0,0.0,0.0,0.0,0.0,0.0,0.0,0.0,0.0,0.0,0.0,0.0,0.0,0.0,0.0,0.0,0.0,0.0,0.0,0.0,0.0,0.0,0.0,0.0,0.0,0.0,0.0,0.0,0.0,0.0,0.0,0.0,0.0,0.0,0.0,0.0,0.0,0.0,0.0,0.0,0.0,0.0,0.0,0.0,0.0,0.0,0.0,0.0,0.0,0.0,0.0,0.0,0.0,0.0,0.0,0.0,0.0,0.0,0.0,0.0,0.0,0.0,0.0,0.0,0.0,0.0,0.0,0.0,0.0,0.0,0.0,0.0,0.0,0.0,0.0,0.0,0.0,0.0,0.0,0.0,0.0,0.0,0.0,0.0,0.0,0.0,0.0,0.0,0.0,0.0,5.1159,5.3214,0.0,5.3214,5.2391,5.0435,4.8063,4.5461,4.2582,0.0,0.0,0.0,0.0,0.0,0.0,0.0,0.0,0.0,0.0,0.0,0.0,0.0,0.0,0.0,0.0,0.0,0.0,0.0,0.0,0.0,0.0,0.0,0.0,0.0,0.0,0.0,0.0,0.0,0.0,0.0,0.0,0.0,0.0,0.0,0.0,0.0,0.0,0.0,0.0,0.0,0.0,0.0,0.0,0.0,0.0,0.0,0.0,0.0,0.0,0.0,0.0,0.0,0.0,0.0,0.0,0.0,0.0,0.0,0.0,0.0,0.0,0.0,0.0,0.0,0.0,0.0,0.0,0.0,0.0,0.0,0.0,0.0,0.0,0.0,0.0,0.0,0.0,0.0,0.0,0.0,0.0,0.0,0.0,0.0,0.0,0.0,0.0,0.0,0.0,0.0,0.0,0.0,0.0,0.0,0.0,0.0,0.0,0.0,0.0,0.0,0.0,4.7079,5.0873,5.3017,0.0,5.3214,5.2208,4.981,4.7577,4.518,4.2527,0.0,0.0,0.0,0.0,0.0,0.0,0.0,0.0,0.0,0.0,0.0,0.0,0.0,0.0,0.0,0.0,0.0,0.0,0.0,0.0,0.0,0.0,0.0,0.0,0.0,0.0,0.0,0.0,0.0,0.0,0.0,0.0,0.0,0.0,0.0,0.0,0.0,0.0,0.0,0.0,0.0,0.0,0.0,0.0,0.0,0.0,0.0,0.0,0.0,0.0,0.0,0.0,0.0,0.0,0.0,0.0,0.0,0.0,0.0,0.0,0.0,0.0,0.0,0.0,0.0,0.0,0.0,0.0,0.0,0.0,0.0,0.0,0.0,0.0,0.0,0.0,0.0,0.0,0.0,0.0,0.0,0.0,0.0,0.0,0.0,0.0,0.0,0.0,0.0,0.0,0.0,0.0,0.0,0.0,0.0,0.0,0.0,0.0,0.0,0.0,0.0,0.0,4.6252,5.0271,5.2694,5.315,5.3198,5.1773,4.8223,4.771,4.5583,0.0,0.0,0.0,0.0,0.0,0.0,0.0,0.0,0.0,0.0,0.0,0.0,0.0,0.0,0.0,0.0,0.0,0.0,0.0,0.0,0.0,0.0,0.0,0.0,0.0,0.0,0.0,0.0,0.0,0.0,0.0,0.0,0.0,0.0,0.0,0.0,0.0,0.0,0.0,0.0,0.0,0.0,0.0,0.0,0.0,0.0,0.0,0.0,0.0,0.0,0.0,0.0,0.0,0.0,0.0,0.0,0.0,0.0,0.0,0.0,0.0,0.0,0.0,0.0,0.0,0.0,0.0,0.0,0.0,0.0,0.0,0.0,0.0,0.0,0.0,0.0,0.0,0.0,0.0,0.0,0.0,0.0,0.0,0.0,0.0,0.0,0.0,0.0,0.0,0.0,0.0,0.0,0.0,0.0,0.0,0.0,0.0,0.0,0.0,0.0,0.0,0.0,0.0,4.8135,5.2695,5.4433,5.2372,5.3026,5.2431,4.9502,4.7961,4.5823,4.2604,0.0,0.0,0.0,0.0,0.0,0.0,0.0,0.0,0.0,0.0,0.0,0.0,0.0,0.0,0.0,0.0,0.0,0.0,0.0,0.0,0.0,0.0,0.0,0.0,0.0,0.0,0.0,0.0,0.0,0.0,0.0,0.0,0.0,0.0,0.0,0.0,0.0,0.0,0.0,0.0,0.0,0.0,0.0,0.0,0.0,0.0,0.0,0.0,0.0,0.0,0.0,0.0,0.0,0.0,0.0,0.0,0.0,0.0,0.0,0.0,0.0,0.0,0.0,0.0,0.0,0.0,0.0,0.0,0.0,0.0,0.0,0.0,0.0,0.0,0.0,0.0,0.0,0.0,0.0,0.0,0.0,0.0,0.0,0.0,0.0,0.0,0.0,0.0,0.0,0.0,0.0,0.0,0.0,0.0,0.0,0.0,0.0,0.0,0.0,0.0,0.0,0.0,4.935,5.2773,5.3992,5.2117,5.2594,5.2248,5.0333,4.845,4.6106,4.3021,0.0,0.0,0.0,0.0,0.0,0.0,0.0,0.0,0.0,0.0,0.0,0.0,0.0,0.0,0.0,0.0,0.0,0.0,0.0,0.0,0.0,0.0,0.0,0.0,0.0,0.0,0.0,0.0,0.0,0.0,0.0,0.0,0.0,0.0,0.0,0.0,0.0,0.0,0.0,0.0,0.0,0.0,0.0,0.0,0.0,0.0,0.0,0.0,0.0,0.0,0.0,0.0,0.0,0.0,0.0,0.0,0.0,0.0,0.0,0.0,0.0,0.0,0.0,0.0,0.0,0.0,0.0,0.0,0.0,0.0,0.0,0.0,0.0,0.0,0.0,0.0,0.0,0.0,0.0,0.0,0.0,0.0,0.0,0.0,0.0,0.0,0.0,0.0,0.0,0.0,0.0,0.0,0.0,0.0,0.0,0.0,0.0,0.0,0.0,0.0,0.0,0.0,5.0132,5.141,5.2297,5.2256,5.2143,5.1723,5.0786,4.9107,4.6467,4.2704,0.0,0.0,0.0,0.0,0.0,0.0,0.0,0.0,0.0,0.0,0.0,0.0,0.0,0.0,0.0,0.0,0.0,0.0,0.0,0.0,0.0,0.0,0.0,0.0,0.0,0.0,0.0,0.0,0.0,0.0,0.0,0.0,0.0,0.0,0.0,0.0,0.0,0.0,0.0,0.0,0.0,0.0,0.0,0.0,0.0,0.0,0.0,0.0,0.0,0.0,0.0,0.0,0.0,0.0,0.0,0.0,0.0,0.0,0.0,0.0,3.1804,3.315,0.0,0.0,0.0,0.0,0.0,0.0,0.0,0.0,0.0,0.0,0.0,0.0,0.0,0.0,0.0,0.0,0.0,0.0,0.0,0.0,0.0,0.0,0.0,0.0,0.0,0.0,0.0,0.0,0.0,0.0,0.0,0.0,0.0,0.0,0.0,0.0,0.0,0.0,0.0,0.0,5.1226,5.2348,5.2963,5.2776,5.3145,5.2711,5.1083,4.9518,4.7196,4.3866,4.04,0.0,0.0,0.0,0.0,0.0,0.0,0.0,0.0,0.0,0.0,0.0,0.0,0.0,0.0,0.0,0.0,0.0,0.0,0.0,0.0,0.0,0.0,0.0,0.0,0.0,0.0,0.0,0.0,0.0,0.0,0.0,0.0,0.0,0.0,0.0,0.0,0.0,0.0,0.0,0.0,0.0,0.0,0.0,0.0,0.0,0.0,0.0,0.0,0.0,0.0,0.0,0.0,0.0,0.0,0.0,0.0,0.0,0.0,0.0,3.4599,3.5567,0.0,0.0,0.0,0.0,0.0,0.0,0.0,0.0,0.0,0.0,0.0,0.0,0.0,0.0,0.0,0.0,0.0,0.0,0.0,0.0,0.0,0.0,0.0,0.0,0.0,0.0,0.0,0.0,0.0,0.0,0.0,0.0,0.0,0.0,0.0,0.0,0.0,0.0,0.0,0.0,4.9642,5.1333,5.2512,5.2725,5.2941,5.2529,5.1213,4.9751,4.7577,4.4477,4.1228,0.0,0.0,0.0,0.0,0.0,0.0,0.0,0.0,0.0,0.0,0.0,0.0,0.0,0.0,0.0,0.0,0.0,0.0,0.0,0.0,0.0,0.0,0.0,0.0,0.0,0.0,0.0,0.0,0.0,0.0,0.0,0.0,0.0,0.0,0.0,0.0,0.0,0.0,0.0,0.0,0.0,0.0,0.0,0.0,0.0,0.0,0.0,0.0,0.0,0.0,0.0,0.0,0.0,4.0865,4.3608,4.6034,4.6034,4.4667,4.2171,3.9604,3.9408,4.0682,3.8193,0.0,0.0,0.0,0.0,0.0,0.0,0.0,0.0,0.0,0.0,0.0,0.0,0.0,0.0,0.0,0.0,0.0,0.0,0.0,0.0,0.0,0.0,4.9729,4.945,4.7334,4.4102,3.9505,0.0,0.0,0.0,0.0,0.0,0.0,0.0,0.0,0.0,0.0,0.0,4.7649,5.0103,5.1975,5.2674,5.2619,5.2156,5.1269,4.9958,4.8003,4.5149,4.2244,3.9648,0.0,0.0,0.0,0.0,0.0,0.0,0.0,0.0,0.0,0.0,0.0,0.0,0.0,0.0,0.0,0.0,0.0,0.0,0.0,0.0,0.0,0.0,0.0,0.0,0.0,0.0,0.0,0.0,0.0,0.0,0.0,0.0,3.1356,3.1735,0.0,0.0,0.0,0.0,0.0,0.0,0.0,0.0,0.0,0.0,0.0,0.0,0.0,4.0879,4.3484,4.3518,4.3518,4.3545,4.6515,4.8143,4.8523,4.8523,4.8312,4.7905,4.7484,0.0,4.3965,4.3592,0.0,0.0,0.0,0.0,0.0,0.0,0.0,0.0,0.0,0.0,0.0,0.0,0.0,0.0,0.0,0.0,0.0,0.0,0.0,0.0,0.0,0.0,5.2562,5.1235,4.9619,4.8222,4.7469,4.5302,4.3518,4.3518,4.1756,4.0024,0.0,0.0,0.0,0.0,0.0,0.0,4.8025,5.0642,5.2692,5.3323,5.3357,5.2765,5.1336,5.0439,4.8958,4.6665,4.3803,4.1443,3.9755,3.6876,0.0,0.0,0.0,0.0,0.0,0.0,0.0,0.0,0.0,0.0,0.0,0.0,0.0,0.0,0.0,0.0,0.0,0.0,0.0,0.0,0.0,0.0,0.0,0.0,0.0,0.0,0.0,0.0,0.0,3.2192,3.3828,3.3564,3.3771,3.3375,0.0,0.0,0.0,0.0,0.0,0.0,0.0,0.0,0.0,3.8679,4.1257,4.4059,4.703,4.7064,4.7064,4.7097,5.0101,5.1522,5.1522,5.1522,5.1522,5.1522,5.1522,5.0811,4.9466,4.7774,4.4652,4.0815,0.0,0.0,0.0,0.0,4.0951,4.1394,4.4395,4.5452,4.5452,4.5452,0.0,0.0,0.0,0.0,0.0,0.0,0.0,4.3999,4.9965,5.1852,5.2122,5.1758,5.0939,5.033,5.0608,4.9669,4.8417,4.73,4.4864,4.2696,4.1727,4.1227,0.0,0.0,0.0,4.7106,4.8433,5.0839,5.2721,5.3416,5.3509,5.3036,5.1919,5.1141,4.9958,4.8139,4.6085,4.4019,4.2036,3.9956,3.7757,0.0,0.0,0.0,0.0,0.0,0.0,0.0,0.0,0.0,0.0,0.0,0.0,0.0,0.0,0.0,0.0,0.0,0.0,0.0,0.0,0.0,0.0,0.0,0.0,0.0,0.0,0.0,0.0,3.3706,3.5497,3.6241,3.6334,3.5396,0.0,0.0,0.0,0.0,0.0,0.0,4.2232,4.2367,4.3423,4.565,4.6462,4.7943,5.0135,5.0161,5.0541,5.1285,5.3551,5.4634,5.4634,5.4634,5.4634,5.4634,5.4634,5.4634,5.4397,5.1378,4.8409,4.5514,4.3247,4.2367,4.2638,4.4905,4.5717,4.6157,4.912,5.0161,5.0161,5.0161,5.115,5.1386,4.6198,0.0,0.0,0.0,0.0,4.7909,5.2367,5.2664,5.1886,5.2308,5.2266,5.2258,5.2646,5.2545,5.1826,4.9924,4.7541,4.55,4.449,4.4041,0.0,4.5277,4.6075,4.7286,4.9315,5.1352,5.2841,5.345,5.3509,5.3171,5.2367,5.1615,5.0668,4.9357,4.7902,4.6244,4.4336,4.2652,4.0453,3.7697,0.0,0.0,0.0,0.0,0.0,0.0,0.0,0.0,0.0,0.0,0.0,0.0,0.0,0.0,0.0,0.0,0.0,0.0,0.0,0.0,0.0,0.0,0.0,0.0,0.0,0.0,0.0,0.0,0.0,3.9736,3.9061,0.0,0.0,0.0,0.0,3.9704,4.2523,4.5447,4.8402,4.8537,4.8605,4.8774,5.1547,5.3103,5.3272,5.3272,5.4668,5.7451,5.762,5.7697,5.7697,5.7697,5.7697,5.7697,5.7697,5.7697,5.7451,5.4499,5.1488,4.8748,4.8612,4.8537,4.8578,4.8706,4.8781,4.9221,5.2232,5.3272,5.3272,5.3272,5.1446,4.8646,4.5548,4.4405,0.0,0.0,5.0744,5.3103,5.3416,5.3441,5.3374,5.3416,5.4093,5.4735,5.4735,5.4059,5.2968,5.1404,5.0005,4.8969,4.8726,0.0,4.6193,4.7537,4.8368,4.9383,5.0897,5.2461,5.345,5.3509,5.3509,5.3171,5.2367,5.1615,5.0871,5.0075,4.8672,4.7481,4.6658,4.4478,4.2232,3.9967,3.786,0.0,0.0,0.0,0.0,0.0,0.0,0.0,0.0,0.0,0.0,0.0,0.0,0.0,0.0,0.0,0.0,0.0,0.0,0.0,0.0,0.0,0.0,0.0,0.0,0.0,0.0,0.0,0.0,4.2587,4.1551,0.0,4.0132,4.0104,4.1307,4.4269,4.5892,4.7451,4.892,5.0399,5.0939,5.0443,5.3212,5.4725,5.4725,5.5297,5.6343,5.7891,5.7383,5.6844,5.6287,5.6287,5.6287,5.6316,5.6891,5.742,5.7832,5.6774,5.4566,5.1894,5.1894,5.1894,5.1894,5.1894,5.3112,5.4879,5.5962,5.6334,5.603,5.4126,5.2765,5.1683,5.065,5.0338,5.0541,5.1589,5.2664,5.3712,5.4659,5.4921,5.4921,5.4921,5.5166,5.5403,5.5403,5.5166,5.4752,5.4211,5.2172,5.0341,4.9812,4.9098,4.8783,4.9229,4.9924,5.0769,5.1784,5.2833,5.3509,5.3509,5.3509,5.3374,5.3112,5.1919,5.11,5.0837,4.9416,4.8266,4.7556,4.6278,4.4512,4.2266,4.0525,3.8456,0.0,0.0,0.0,0.0,0.0,0.0,0.0,0.0,0.0,0.0,0.0,0.0,0.0,0.0,0.0,0.0,0.0,0.0,0.0,0.0,0.0,0.0,0.0,0.0,0.0,3.6414,4.0024,4.4114,4.3416,4.2774,4.3233,4.4091,4.5435,4.7335,4.8468,4.95,5.0451,5.2374,5.288,5.1736,5.3509,5.4932,5.5866,5.7094,5.8276,5.9404,5.8246,5.7063,5.5866,5.5866,5.5866,5.5941,5.7177,5.8345,5.9413,5.9413,5.8263,5.6393,5.5378,5.4972,5.4972,5.4972,5.6224,5.7891,5.7891,5.7891,5.7586,5.5624,5.4972,5.4972,5.4972,5.4972,5.4972,5.4972,5.4972,5.5209,5.619,5.6181,5.5936,5.5936,5.6003,5.6147,5.6384,5.6249,5.608,5.608,5.4109,5.2359,5.2029,5.1834,5.1767,5.1961,5.2198,5.2596,5.334,5.3687,5.3856,5.3856,5.3653,5.3509,5.3509,5.2089,5.1201,5.1201,4.9822,4.8774,4.8293,4.7556,4.6237,4.4234,4.2212,3.9768,3.6841,0.0,0.0,0.0,0.0,0.0,0.0,0.0,0.0,0.0,0.0,0.0,0.0,0.0,0.0,0.0,0.0,0.0,0.0,0.0,0.0,0.0,0.0,0.0,3.2666,3.7322,4.1722,4.4283,4.4683,4.4714,4.4714,4.7065,4.8594,4.8594,5.028,5.1948,5.3466,5.4687,5.4581,5.2866,5.2841,5.4126,5.6767,5.8701,6.0548,6.2292,6.0506,5.8655,5.6798,5.6798,5.6798,5.6918,5.886,6.0728,6.2391,6.2391,6.2391,6.212,5.9176,5.8026,5.8026,5.8026,5.8026,5.8026,5.8026,5.7992,5.7891,5.7891,5.7891,5.7891,5.7891,5.7891,5.7891,5.7891,5.7891,5.7891,5.7891,5.7171,5.6452,5.6452,5.6655,5.7036,5.7755,5.7349,5.6833,5.6833,5.5852,5.5141,5.5606,5.5268,5.5133,5.5631,5.5108,0.0,5.5597,5.5074,5.4642,5.4609,5.3957,5.3518,5.3509,5.2089,5.1201,5.1201,4.9789,4.8984,4.8984,4.8259,4.7177,4.573,4.2753,3.9839,3.7047,0.0,0.0,0.0,0.0,0.0,0.0,0.0,0.0,0.0,0.0,0.0,0.0,0.0,0.0,0.0,0.0,0.0,0.0,0.0,0.0,0.0,3.5699,3.8276,3.8276,4.2953,4.5916,4.4745,4.6305,4.7496,4.7496,4.8163,4.8594,4.8594,5.1528,5.376,5.4825,5.4622,5.4844,5.5651,5.5677,5.6058,5.6798,5.8046,5.9275,6.042,5.9241,5.8011,5.6798,5.6798,5.6798,5.6918,5.886,6.0728,6.2391,6.2391,6.2391,6.2323,6.1477,6.1173,6.1173,6.1173,6.1173,6.1173,6.1173,5.9718,5.7891,5.7891,5.7891,5.7891,5.7891,5.7891,5.7891,5.7891,5.7891,5.7891,5.7891,5.7688,5.7485,5.7485,5.7552,5.7654,5.7857,5.7721,5.7586,5.7586,5.7315,5.6673,5.5344,5.5606,5.6046,5.6172,5.5741,5.5471,5.5665,5.553,5.52,5.4676,5.4406,5.4093,5.3551,5.2089,5.1201,5.1201,4.9307,4.8191,4.8191,4.7488,4.665,4.573,4.3267,4.1398,0.0,0.0,0.0,0.0,0.0,0.0,0.0,0.0,0.0,0.0,0.0,0.0,0.0,0.0,0.0,0.0,0.0,0.0,0.0,0.0,0.0,0.0,3.9392,4.2223,4.2223,4.5916,4.8009,4.6449,4.764,4.9055,5.0225,5.0317,5.0317,5.0317,5.2309,5.4249,5.59,5.553,5.5724,5.676,5.6798,5.6798,5.6798,5.7384,5.7961,5.8484,5.7918,5.7373,5.6798,5.6798,5.6798,5.6918,5.886,6.0728,6.2492,6.3734,6.4018,6.3575,0.0,0.0,0.0,0.0,6.2391,6.2391,6.2391,6.124,5.9785,5.9785,5.9785,5.9548,5.8263,5.7891,5.7891,5.7891,5.7891,5.7891,5.7891,5.8364,5.8804,5.8804,5.8804,5.8804,5.8804,5.8804,5.8804,5.8804,5.8669,0.0,5.7002,5.6934,5.7027,5.7027,5.6799,5.6621,5.6621,5.635,5.6012,5.5556,5.5243,5.4769,5.4025,5.2866,0.0,0.0,0.0,4.8672,4.836,4.7658,0.0,0.0,0.0,0.0,0.0,4.326,0.0,0.0,4.1569,4.2636,0.0,0.0,0.0,0.0,0.0,0.0,0.0,0.0,0.0,0.0,0.0,0.0,0.0,0.0,0.0,0.0,4.3464,4.5114,4.5268,4.7281,4.8717,4.8625,4.8594,4.9671,5.2441,5.2687,5.2687,5.2687,5.2995,5.4218,5.6674,5.6798,0.0,0.0,0.0,5.6798,5.6798,5.7106,5.726,5.726,5.726,5.726,5.726,5.726,5.726,5.7369,5.9327,6.1222,6.3101,6.5719,6.6128,6.4971,6.3223,6.2612,6.2627,6.2458,6.2391,6.2391,6.2391,0.0,0.0,6.2391,6.2391,6.1883,5.921,5.8407,5.8407,5.8407,5.8407,5.8407,5.8407,5.9379,6.0317,6.0216,6.0148,6.0114,6.0114,6.0114,6.0114,6.0114,5.9776,5.9505,5.9573,5.8829,5.8195,5.8094,5.8026,5.7992,5.7924,5.734,5.69,5.6799,5.6215,0.0,5.4778,5.3957,5.3213,5.2461,5.0955,4.9804,4.9154,4.8436,4.8056,4.8157,4.7428,4.6431,4.5182,4.7294,4.7699,4.6529,4.5172,4.5636,0.0,0.0,0.0,0.0,0.0,0.0,0.0,0.0,0.0,0.0,0.0,0.0,0.0,0.0,0.0,4.6153,4.7486,4.8235,4.9353,4.964,4.9445,4.8686,4.8594,4.9671,5.2441,5.2687,5.2687,5.2687,5.4741,5.6231,5.6767,5.6798,5.6798,5.6798,5.6798,5.6798,5.6798,5.8959,6.0037,6.0037,6.0037,0.0,6.0037,6.0037,6.0037,6.0152,6.2265,6.421,6.599,6.6565,6.5492,6.3547,6.359,6.3838,6.4038,6.283,6.2391,6.2391,6.2391,6.2391,6.2391,6.2391,6.2391,6.2289,6.1714,6.1545,0.0,6.1545,6.1545,6.1545,6.1545,6.1748,6.1748,6.095,6.0409,6.0114,6.0114,6.0114,6.0114,6.0114,6.0047,6.0105,6.0544,6.0443,6.0037,5.9235,5.893,5.8583,5.7992,5.7789,5.7451,5.6867,5.6655,5.6283,5.5539,5.4253,5.3441,5.3281,5.1259,5.0041,4.9906,4.9187,4.9078,4.9669,4.8951,4.8451,4.8169,4.92,4.9588,4.9348,4.9286,4.9501,0.0,0.0,0.0,0.0,0.0,0.0,0.0,0.0,0.0,0.0,0.0,3.6122,4.1546,0.0,4.5445,4.8153,4.8594,4.884,4.9558,5.0625,5.1179,5.0717,5.0071,5.044,5.2502,5.3929,5.4741,5.4741,5.6016,5.6798,5.6798,5.6798,5.7414,5.8744,5.8818,5.8818,5.8818,6.0129,6.0794,6.0794,6.0794,6.0794,6.0794,6.0794,6.0794,6.0923,6.3063,6.4539,6.5414,6.5348,6.4604,6.3546,6.3794,6.3913,6.3941,6.3893,6.3531,6.3193,6.3439,6.3507,6.3372,6.2627,6.2391,6.2391,6.2391,6.2391,6.2391,6.2391,6.2391,6.2391,6.2391,6.2391,6.2255,6.1772,6.1434,6.124,6.124,6.124,6.124,6.124,6.124,6.1342,6.1603,6.1637,6.1231,5.9945,5.8998,5.833,5.7958,5.7891,5.7755,5.7383,5.7349,5.7036,5.6316,5.5234,5.4287,5.3543,5.2435,5.1454,5.0668,5.0296,5.0262,5.0634,5.0296,5.0296,5.0642,5.142,5.2003,5.235,5.2897,5.2767,0.0,0.0,0.0,0.0,0.0,0.0,0.0,2.9981,3.136,3.6261,3.9423,4.2799,4.7691,4.8594,4.8594,4.8594,4.9055,4.9302,4.9055,5.0902,5.241,5.2687,5.1744,5.1713,5.3345,5.5492,5.6798,5.6798,5.6798,5.6798,5.6798,5.7278,5.8572,6.0732,6.0794,6.0794,6.0794,6.0794,6.0794,6.0794,6.0794,6.0794,6.0794,6.0794,6.0794,6.0923,6.3063,6.392,6.3805,6.3776,6.38,6.3788,6.3599,6.3341,6.3268,6.4498,6.4544,6.401,6.4246,6.4314,6.4155,6.2983,6.2662,6.2654,6.2472,6.2391,6.2391,6.2391,6.2391,6.2391,6.2391,6.2391,6.2391,6.2391,6.2391,6.2391,6.2391,6.2391,6.2391,6.2391,6.2391,6.2391,6.2391,6.2391,6.1917,6.0486,5.9404,5.8703,5.85,5.8398,5.833,5.833,5.8195,5.7746,5.6867,5.6249,5.5336,5.4016,5.3915,5.3374,5.2114,5.2072,5.2072,5.2072,5.2072,5.2359,5.2968,5.3611,5.4219,5.4837,5.5572,5.5192,2.8436,3.0566,3.3644,3.556,3.6722,3.7053,0.0,3.5584,3.6445,3.9445,4.2232,4.5043,4.804,4.8594,4.8594,4.8594,5.0656,5.1825,5.0636,5.0728,5.1374,5.2564,5.2564,5.3498,5.6089,5.6613,5.6798,5.6798,5.6798,5.6798,5.6798,5.9052,6.0486,6.0794,6.0794,6.0794,6.0794,6.0794,6.0794,6.0794,6.0794,6.0794,6.0794,6.0794,6.0794,6.0923,6.3063,6.3667,6.3144,6.3308,6.3412,6.3372,6.2543,6.2288,6.2506,6.3455,6.4002,6.4176,6.3556,6.3347,6.3346,6.3359,6.3547,6.3562,6.2678,6.2391,6.2391,6.2391,6.2391,6.2391,6.2391,6.2391,6.2391,6.2391,6.2391,6.2391,6.2391,6.2391,6.2391,6.2391,6.2391,6.2391,6.2391,6.2391,6.2042,6.0984,6.1434,6.1569,6.068,6.0139,5.9844,5.9844,5.9268,5.8312,5.6934,5.6722,5.6316,5.5496,5.5462,5.5395,5.5192,5.5192,5.5192,5.5192,5.5192,5.5225,5.5327,5.5395,5.5496,5.5597,5.6316,5.6249,3.136,3.3005,3.5252,3.7184,3.8676,3.9661,3.9655,4.1071,4.2488,4.2817,4.5033,4.7281,4.8378,4.8594,4.8594,4.8594,4.9579,5.0686,5.1702,5.1856,5.2071,5.2625,5.2189,5.2875,5.5595,5.5867,5.6127,5.6749,5.6798,5.7181,5.8079,5.9204,5.981,5.981,5.981,5.981,5.981,5.981,5.981,5.981,5.981,5.981,5.981,5.981,5.981,5.9863,6.0776,6.152,6.2127,6.1878,6.1947,6.2128,6.1683,6.1671,6.2009,6.2968,6.3615,6.3954,6.3649,6.3539,6.3542,6.3517,6.3759,6.3981,6.3451,6.3465,6.3666,6.3666,6.3666,6.3666,6.3666,6.3666,6.3666,6.3666,6.3666,6.3666,6.3666,6.3666,6.3666,6.3666,6.3666,6.3666,6.3666,6.3463,6.2922,6.1907,6.211,6.2042,6.1042,6.0704,6.0443,6.0148,5.98,5.9225,5.8177,5.8075,5.7568,5.6418,5.635,5.6147,5.5733,5.5699,5.5699,5.5699,5.5699,5.5902,5.635,5.6765,5.7196,5.7627,5.838,5.8558,3.4014,3.5399,3.6999,3.8653,4.0214,4.1577,4.2466,4.4397,4.5998,4.5751,4.725,4.884,4.9579,4.9732,4.9732,4.9732,4.9732,5.044,5.241,5.2687,5.2586,5.2314,5.2282,5.3084,5.5012,5.5192,5.5643,5.6725,5.7181,5.7922,5.905,5.9099,5.9099,5.9099,5.9099,5.9099,5.9099,5.9099,5.9099,5.9099,5.9099,5.9099,5.9099,5.9099,5.9099,5.9099,5.9099,5.9766,6.0823,6.0407,6.0438,6.0698,6.0755,6.0987,6.1354,6.2103,6.279,6.3395,6.3395,6.3395,6.3414,6.3409,6.3716,6.4067,6.3888,6.4157,6.449,6.435,6.4345,6.4416,6.4501,6.4563,6.4613,6.4613,6.4613,6.4613,6.4613,6.4613,6.4613,6.4613,6.4613,6.4647,6.4783,6.4512,6.4038,6.3304,6.3203,6.2729,6.1492,6.1322,6.1086,6.0486,6.0419,6.0114,5.9361,5.9284,5.8853,5.778,5.7712,5.7476,5.6925,5.6916,5.6916,5.6916,5.6916,5.7162,5.7712,5.8263,5.8761,5.9327,5.9844,6.0317,3.6061,3.7853,3.9537,4.0267,4.1986,4.3676,4.4344,4.4591,4.5391,4.7948,4.8532,4.9414,5.2071,5.2564,5.2564,5.2564,5.2564,5.2595,5.2687,5.2687,5.2337,5.1369,5.3516,5.5089,5.5192,5.5192,5.5643,5.6725,5.8196,5.9036,5.9099,5.9099,5.9099,5.9099,5.9099,5.9099,5.9099,5.9099,5.9099,5.9099,5.9099,5.9099,5.9099,5.9099,5.9099,5.9099,5.9099,5.9126,5.9167,5.9153,5.9153,5.9207,5.9583,6.0022,6.0442,6.0468,6.1315,6.2444,6.2444,6.2444,6.2531,6.3023,6.3539,6.3861,6.367,6.3935,6.421,6.3684,6.3718,6.3982,6.4234,6.445,6.4613,6.4613,6.4613,6.4613,6.4613,6.4613,6.4613,6.4613,6.4613,6.4749,6.5189,6.5256,6.5256,6.5222,6.5222,6.4512,6.2594,6.2357,6.2086,6.1332,6.1255,6.0926,6.0148,6.008,6.0047,6.0013,6.0013,5.9979,5.9979,5.9979,5.9979,5.9979,5.9979,5.9979,6.0013,6.0013,6.0047,6.008,6.008,6.0892,3.7498,3.9452,4.1522,4.2196,4.3657,4.5166,4.6172,4.6378,4.6809,4.8286,4.8594,4.8871,4.9825,5.1487,5.2687,5.2687,5.2687,5.3345,5.5142,5.4823,5.4243,5.3899,5.464,5.5192,5.5192,5.5192,5.5343,5.5706,5.7813,5.9099,5.9099,5.9099,5.9099,5.9099,5.9099,5.9099,5.9099,5.9099,5.9099,5.9099,5.9099,5.9099,5.9099,5.9099,5.9099,5.9099,5.9099,5.9099,5.9099,5.9099,5.9624,6.0416,6.0224,6.0788,6.1739,6.1739,6.2135,6.2545,6.1657,6.1359,6.1448,6.196,6.245,6.2899,6.3178,6.3599,6.3986,6.4174,6.4509,6.4925,6.537,6.5785,6.6058,6.6058,6.6058,6.6058,6.6058,6.6058,6.6058,6.6058,6.6058,6.6125,6.6261,6.6294,6.6136,6.5639,6.4749,6.3859,6.3217,6.2685,6.2289,6.2052,6.2018,6.1704,6.096,6.0892,6.0655,6.0148,6.0114,6.0114,6.0114,6.0114,6.0114,6.0114,6.0114,6.0114,6.0114,6.0655,6.0892,6.0926,6.1897,6.2642,3.8727,4.0881,4.3104,4.3636,4.5008,4.6357,4.6932,4.7414,4.7907,4.846,4.8594,4.8594,4.8594,5.003,5.1548,5.2533,5.3529,5.4644,5.603,5.5631,5.5192,5.5192,5.5192,5.5192,5.5192,5.5192,5.5192,5.5192,5.7633,5.9099,5.9099,5.9099,5.9099,5.9099,5.9099,5.9099,5.9099,5.9099,5.9338,5.9803,6.0296,6.0027,5.9099,5.9099,5.9099,5.9099,5.9099,5.9099,5.9189,6.0116,6.1044,6.1792,6.1493,6.1727,6.2249,6.2249,6.2506,6.2689,6.1796,6.1502,6.1611,6.2022,6.244,6.284,6.3277,6.3689,6.4139,6.4663,6.5181,6.5712,6.6323,6.691,6.73,6.7185,6.7258,6.7377,6.758,6.7208,6.6802,6.6802,6.7072,6.7218,6.6869,6.6802,6.6633,6.617,6.5053,6.4197,6.3927,6.3463,6.3203,6.3203,6.2956,6.2618,6.2134,6.21,6.1864,6.1366,6.1569,6.1704,6.1704,6.1458,6.1322,6.1322,6.1061,6.1061,6.1322,6.183,6.2202,6.2516,6.3453,6.4028,3.9799,4.2205,4.4332,4.4682,4.6102,4.7271,4.6819,4.7671,4.8594,4.8594,4.8594,4.8532,4.8255,4.8409,4.9517,5.2256,5.4941,5.636,5.533,5.5192,5.5192,5.5192,5.5251,5.5311,5.5311,5.5311,5.5311,5.5311,5.7663,5.9099,5.9099,5.9099,5.9099,5.9099,5.9099,5.9099,5.9099,5.9249,5.9907,6.112,6.2465,6.1776,5.9308,5.9308,5.9308,5.9308,5.9308,5.9308,5.9488,6.2046,6.3108,6.3108,6.3108,6.2684,6.2111,6.2111,6.2449,6.2904,6.2904,6.2873,6.2852,6.3105,6.3339,6.3615,6.385,6.4122,6.4443,6.4975,6.5492,6.6092,6.6947,6.7671,6.8194,6.7947,6.8108,6.8515,6.9079,6.8053,6.7039,6.7039,6.7726,6.8041,6.7072,6.6859,6.6869,6.6869,6.6237,6.5503,6.4749,6.4613,6.4613,6.4613,6.3961,6.3555,6.3555,6.3555,6.3555,6.3555,6.4197,6.4613,6.4613,6.3927,6.3555,6.3555,6.2854,6.2854,6.3555,6.3555,6.3927,6.4613,6.4647,6.5053,4.153,4.3373,4.5322,4.6576,4.793,4.8781,4.8235,4.8348,4.8594,4.8594,4.8594,4.7353,4.3313,4.5876,4.9517,5.2256,5.4326,5.5506,5.5229,5.5192,5.5192,5.5192,5.606,5.6628,5.6628,5.6628,5.6628,5.6628,5.8171,5.9099,5.9099,5.9099,5.9099,5.9099,5.9099,5.9099,5.9099,6.1088,6.1746,6.112,6.2465,6.2748,6.2076,6.2076,6.2076,6.2076,6.2076,6.2076,6.2135,6.2824,6.3108,6.3108,6.3108,6.3256,6.3491,6.3491,6.3854,6.4364,6.4364,6.3674,6.2812,6.2892,6.2959,6.3008,6.3105,6.3141,6.3313,6.3863,6.4373,6.4987,6.6031,6.6943,6.7833,6.8593,6.8811,6.9214,7.0455,7.0421,7.0139,7.0139,6.9485,6.8808,6.8571,6.803,6.7624,6.7624,6.6971,6.6271,6.5503,6.4952,6.4613,6.4613,6.4444,6.4333,6.4333,6.4333,6.4333,6.4333,6.4512,6.4613,6.4613,6.441,6.4333,6.4333,6.414,6.414,6.4333,6.4333,6.441,6.4613,6.5155,6.5797,4.2553,4.5288,4.7821,4.7585,4.8611,4.968,4.9739,4.8838,4.8038,4.8038,4.6174,4.3733,4.1006,4.4953,4.9369,5.1683,5.3809,5.5192,5.5192,5.5192,5.5641,5.6778,5.7004,5.7334,5.7932,5.7992,5.7992,5.7992,5.868,5.9099,5.9099,5.9099,5.9099,5.9099,5.9099,5.9668,6.0835,6.2345,6.2734,6.2002,6.2734,6.3108,6.3108,6.3108,6.3108,6.3108,6.3108,6.3108,6.3108,6.3108,6.3108,6.3108,6.3108,6.3381,6.3795,6.3795,6.4146,6.4663,6.4663,6.4439,6.4104,6.3827,6.3704,6.3704,6.3704,6.3704,6.3799,6.4244,6.4607,6.5158,6.6159,6.7061,6.8038,6.9333,6.9849,7.0286,7.1131,7.13,7.13,7.13,7.0286,6.9451,6.9553,6.8944,6.8436,6.8436,6.7749,6.714,6.6721,6.6034,6.555,6.555,6.529,6.5097,6.5097,6.5097,6.5097,6.5097,6.5392,6.555,6.555,6.5256,6.5097,6.5097,6.4749,6.4749,6.5097,6.5097,6.5425,6.6068,6.6474,6.7083,4.3509,4.7437,5.0649,4.8375,4.8703,4.9845,5.094,4.9452,4.7508,4.6461,4.2601,3.9625,4.0375,4.455,4.8511,5.0386,5.3234,5.5192,5.5192,5.5311,5.6196,5.8501,5.7842,5.7693,5.8846,5.9069,5.9099,5.9099,5.9099,5.9099,5.9099,5.9099,5.9249,5.9608,5.9638,6.0759,6.3078,6.3108,6.3108,6.3108,6.3108,6.3108,6.3108,6.3108,6.3108,6.3108,6.3108,6.3108,6.3108,6.3108,6.3108,6.3108,6.3108,6.3266,6.351,6.36,6.3999,6.4548,6.4626,6.5251,6.592,6.5257,6.5103,6.5165,6.5165,6.5165,6.522,6.5452,6.5668,6.6049,6.6878,6.7593,6.8494,6.9892,7.091,7.1605,7.1605,7.1537,7.1503,7.1503,7.0692,7.006,7.0308,6.9722,6.9248,6.9248,6.8571,6.8064,6.8064,6.7309,6.6802,6.6802,6.6237,6.5842,6.5842,6.5842,6.5842,6.5842,6.644,6.6802,6.6802,6.6203,6.5842,6.5842,6.5222,6.5256,6.5977,6.5977,6.6688,6.8064,6.8064,6.8504,4.5963,4.8854,5.1086,5.0649,4.9131,4.8355,5.0661,5.0858,4.8674,4.2113,4.0049,3.9625,4.0375,4.254,4.5039,4.757,5.2037,5.5192,5.5192,5.582,5.6436,5.6885,5.753,5.8038,5.8234,5.8756,5.9099,5.9099,5.9099,5.9099,5.9099,5.9099,6.0116,6.2345,6.2405,6.2614,6.3108,6.3108,6.3108,6.3108,6.3108,6.3108,6.3108,6.3108,6.3108,6.3108,6.3108,6.3108,6.3108,6.3108,6.3108,6.3108,6.3108,6.3266,6.357,6.4127,6.4711,6.5313,6.5865,6.6357,6.6628,6.5951,6.6105,6.6536,6.6536,6.6536,6.655,6.6592,6.6649,6.6832,6.7412,6.7958,6.8599,6.9565,7.1507,7.3116,7.3116,7.2812,7.2541,7.2541,7.1718,7.1064,7.1097,7.05,7.0003,7.0003,6.935,6.8876,6.8876,6.7681,6.6802,6.6802,6.67,6.6599,6.6599,6.6599,6.6599,6.6599,6.6734,6.6802,6.6802,6.6667,6.6599,6.6599,6.6497,6.6768,6.7533,6.7533,6.7996,6.8876,6.8876,6.9282,4.8226,5.023,5.1206,5.1206,5.026,4.9303,4.9183,4.7029,4.3688,3.8875,3.7899,3.7899,3.7908,3.9754,4.2592,4.664,5.0559,5.3593,5.4999,5.6137,5.6885,5.7154,5.7709,5.8234,5.8577,5.8906,5.9249,5.9578,5.9727,5.9578,5.9129,6.0416,6.1776,6.3063,6.3108,6.3108,6.3108,6.3108,6.3108,6.3108,6.3108,6.3347,6.3752,6.3303,6.3108,6.3108,6.3108,6.3108,6.3108,6.3108,6.3363,6.3796,6.3796,6.3974,6.4317,6.4631,6.5044,6.5496,6.5816,6.6354,6.6845,6.6509,6.6647,6.6905,6.6905,6.6905,6.6905,6.6905,6.6905,6.6974,6.7381,6.7731,6.8267,6.9336,7.1272,7.2986,7.3407,7.3319,7.315,7.315,7.2462,7.1875,7.1875,7.1278,7.077,7.077,7.0026,6.9451,6.9451,6.8808,6.8256,6.8019,6.7986,6.7986,6.7986,6.7986,6.7986,6.7986,6.7986,6.7986,6.7986,6.7986,6.7986,6.7986,6.7986,6.8166,6.8504,6.8504,6.9113,7.0252,7.0252,7.0838,5.0069,5.1206,5.1206,5.1206,5.0769,4.9841,4.7777,4.3648,3.9529,3.7033,3.6515,3.6304,3.5611,3.7627,4.0767,4.4935,4.7807,5.0828,5.467,5.6239,5.7124,5.7603,5.8038,5.8517,5.9069,5.9219,5.9518,6.007,6.0446,6.0475,5.9967,6.1956,6.3108,6.3108,6.3108,6.3108,6.3108,6.3108,6.3108,6.3108,6.3108,6.3467,6.4111,6.3617,6.3287,6.3108,6.3108,6.3108,6.3108,6.3317,6.3782,6.441,6.45,6.4725,6.5024,6.5144,6.5427,6.5739,6.5889,6.6459,6.7165,6.7194,6.7211,6.7204,6.7204,6.7262,6.7336,6.7336,6.7336,6.7362,6.7605,6.7769,6.8295,6.9958,7.1544,7.2929,7.3787,7.386,7.3725,7.3725,7.315,7.2631,7.2631,7.209,7.1605,7.1605,7.077,7.0128,7.0128,7.0128,6.9992,6.962,6.9282,6.9113,6.9113,6.9113,6.9113,6.9113,6.9113,6.9113,6.9113,6.9113,6.9113,6.9113,6.9113,6.918,6.935,6.9485,7.0263,7.1537,7.1706,7.2394,5.1056,5.1206,5.1206,5.1206,4.9422,4.7608,4.7358,4.5044,4.1714,3.7393,3.6515,3.6304,3.5611,3.7627,3.9571,4.0049,4.2313,4.6629,5.4144,5.5987,5.6718,5.7137,5.8261,5.9026,5.9085,5.9638,6.004,6.01,6.1014,6.1912,6.2674,6.2988,6.3108,6.3108,6.3108,6.3108,6.3108,6.3108,6.3108,6.3108,6.3108,6.3123,6.3257,6.3976,6.3856,6.3108,6.3108,6.3108,6.3168,6.3931,6.432,6.444,6.48,6.4964,6.5084,6.5697,6.6117,6.6507,6.711,6.7578,6.7954,6.8192,6.8264,6.8247,6.8247,6.8484,6.8719,6.8719,6.8719,6.8719,6.8748,6.8765,6.9516,7.2449,7.3544,7.4231,7.5258,7.4965,7.4514,7.4514,7.3883,7.3387,7.3387,7.2981,7.2676,7.2676,7.1819,7.1165,7.1165,7.1165,7.1165,7.1097,6.988,6.9113,6.9113,6.9113,6.9113,6.9113,6.9113,6.9113,6.9113,6.9113,6.9113,6.9113,6.9113,6.9417,7.0105,7.077,7.1503,7.2326,7.2981,7.3353,5.1369,5.1206,5.1206,5.1206,4.9243,4.7309,4.7309,4.3997,4.01,3.7125,3.6515,3.6304,3.5611,3.6349,3.7172,3.7591,4.0826,4.4974,4.9763,5.3486,5.5628,5.5388,5.6855,5.8052,5.8457,5.9099,5.9997,6.1194,6.2061,6.2704,6.3078,6.3108,6.3108,6.3108,6.3108,6.3108,6.3108,6.3108,6.3108,6.3108,6.3108,6.3273,6.3632,6.3632,6.3842,6.4216,6.3827,6.3857,6.4261,6.462,6.4994,6.5383,6.5547,6.5847,6.6251,6.649,6.6701,6.6838,6.7123,6.7426,6.7729,6.7819,6.8119,6.8431,6.8654,6.8801,6.8904,6.8904,6.8904,6.8904,6.8904,6.9327,7.0172,7.1896,7.2861,7.3634,7.4556,7.4508,7.4295,7.4295,7.3827,7.3481,7.3658,7.3274,7.3033,7.3195,7.3172,7.2902,7.2293,7.2732,7.3105,7.3105,7.1503,7.0421,7.0421,7.0421,7.0421,7.0421,7.0421,7.0421,7.0421,7.0421,7.0624,7.1075,7.1075,7.1447,7.2169,7.2473,7.3003,7.3736,7.4018,7.439,5.1234,5.1206,5.1206,5.1206,4.9243,4.6879,4.5324,4.2236,3.9117,3.6958,3.7131,3.7532,3.7072,3.6799,3.6969,3.793,4.1006,4.4316,4.7268,5.1109,5.3623,5.3611,5.5329,5.6705,5.7201,5.856,6.0236,6.2255,6.2824,6.3108,6.3108,6.3108,6.3108,6.3108,6.3108,6.3108,6.3108,6.3108,6.3108,6.3108,6.3108,6.3333,6.3722,6.3572,6.3917,6.468,6.4411,6.456,6.5024,6.5203,6.5577,6.6026,6.6221,6.658,6.7014,6.7014,6.7014,6.7014,6.7014,6.7228,6.7532,6.7623,6.7984,6.8431,6.8698,6.8757,6.8757,6.8757,6.8698,6.8654,6.8742,6.9385,7.0201,7.1034,7.1888,7.2676,7.3388,7.3555,7.3555,7.3555,7.3439,7.3447,7.3814,7.3853,7.3942,7.4108,7.4221,7.3984,7.3116,7.3488,7.3916,7.4052,7.28,7.1954,7.1954,7.1954,7.1954,7.1954,7.1954,7.1954,7.1954,7.1954,7.2191,7.271,7.2732,7.2981,7.3488,7.3725,7.4086,7.4615,7.5055,7.5676,5.0741,5.1206,5.1206,5.1206,4.9243,4.5933,4.0677,4.0002,3.9744,3.7061,3.8623,4.0452,4.0443,3.984,3.9907,4.1558,4.2664,4.4526,4.8076,4.9392,5.0529,5.2037,5.3982,5.5222,5.5222,5.8185,6.0908,6.2944,6.3108,6.3108,6.3108,6.3108,6.3108,6.3108,6.3108,6.3108,6.3108,6.3108,6.3108,6.3108,6.3108,6.3108,6.3138,6.3991,6.4261,6.4036,6.471,6.4994,6.5054,6.5727,6.5996,6.6071,6.6729,6.6999,6.7014,6.7014,6.7014,6.7014,6.7014,6.7228,6.7563,6.7895,6.8179,6.8386,6.8386,6.8401,6.8401,6.8401,6.8209,6.8075,6.8343,6.8858,6.9526,7.0389,7.1058,7.1679,7.2194,7.2314,7.2314,7.2314,7.2796,7.3375,7.3892,7.492,7.5676,7.5676,7.4897,7.4086,7.3556,7.3082,7.2981,7.3454,7.3488,7.3488,7.3488,7.3488,7.3488,7.3488,7.3488,7.3488,7.3488,7.3488,7.3488,7.3488,7.3488,7.3488,7.3488,7.4221,7.4581,7.4649,7.6183,7.7266,5.105,5.2223,5.2063,5.1381,5.0589,4.874,4.4033,4.1684,3.9753,3.7061,3.8614,4.0513,4.0513,4.0121,4.0194,4.1361,4.2529,4.4107,4.6501,4.8585,5.029,5.1397,5.4461,5.7047,5.8424,5.9907,6.1433,6.2988,6.3108,6.3108,6.3108,6.3108,6.3108,6.3108,6.3108,6.3108,6.3108,6.3108,6.3108,6.3108,6.3108,6.3303,6.3722,6.4006,6.4575,6.5383,6.5577,6.5936,6.637,6.661,6.667,6.67,6.6924,6.7014,6.7014,6.7014,6.7014,6.7014,6.7014,6.7528,6.8196,6.8303,6.8834,6.9428,6.9428,6.8955,6.8342,6.8179,6.8194,6.8298,6.8372,6.8858,6.9487,6.9927,7.0385,7.0778,7.1122,7.1402,7.1607,7.1793,7.2451,7.3201,7.3932,7.4692,7.5313,7.5662,7.5439,7.5202,7.5045,7.4875,7.4842,7.5011,7.4999,7.4728,7.4086,7.4052,7.3894,7.3522,7.3488,7.3488,7.3488,7.3488,7.3725,7.4255,7.4255,7.4762,7.5811,7.6048,7.642,7.6927,7.7413,7.7785,4.8173,4.8871,4.7947,4.7303,4.7558,4.7101,4.3794,4.1331,3.9261,3.7615,3.8715,4.0122,4.0452,4.0226,4.0346,4.1417,4.2349,4.3708,4.5802,4.8177,5.0511,5.2815,5.5251,5.7736,6.0236,6.0851,6.1672,6.3003,6.3108,6.3108,6.3108,6.3108,6.3108,6.3108,6.3108,6.3108,6.3108,6.3108,6.3108,6.3108,6.3422,6.3722,6.4036,6.4799,6.5443,6.5996,6.6281,6.661,0.0,6.7014,6.7014,6.7014,6.7014,6.7014,6.7014,6.7014,6.7014,6.7044,6.7284,6.7874,6.8542,6.8768,6.9239,6.9711,6.9711,6.929,6.8759,6.8592,6.8683,6.888,6.9136,6.9495,6.9881,7.0144,7.038,7.0583,7.0726,7.1145,7.1555,7.1959,7.2855,7.3821,7.4772,7.5168,7.5555,7.6065,7.5879,7.5709,7.5709,7.5709,7.5709,7.5709,7.5709,7.5709,7.5721,7.5168,7.4695,7.4334,7.4605,7.4774,7.4774,7.5045,7.527,7.5461,7.5743,7.6217,7.6893,7.7164,7.7671,7.8428,7.8428,7.8551,0.0,4.2294,4.0513,4.0513,4.1353,4.1823,4.0513,3.9322,0.0,3.8376,3.8785,3.9431,4.0329,4.0288,4.0496,4.1644,4.2181,4.3349,4.5942,4.8188,5.1264,5.5803,5.6372,5.7646,6.0851,6.118,6.1702,6.3003,6.3108,6.3108,6.3108,6.3108,6.3108,6.3108,6.3108,6.3108,6.3108,6.3108,6.3123,6.3153,6.3991,6.429,6.4216,6.6086,6.661,6.6101,6.6729,6.7014,6.7014,6.7014,6.7014,6.7014,6.7014,6.7044,6.7074,6.7074,6.7104,6.7224,6.7868,6.8309,6.8707,6.9323,6.9518,6.9518,6.9518,6.9428,6.9384,6.9462,6.9508,6.9664,7.0343,7.0511,7.0572,7.0845,7.0936,7.092,7.095,7.1505,7.2184,7.2711,7.3834,7.5066,7.6173,7.6219,7.6306,7.6888,7.6352,7.5845,7.5845,7.5845,7.5845,7.5811,7.5811,7.642,7.7921,7.6702,7.5845,7.5845,7.6555,7.6961,7.6961,7.765,7.7684,7.6995,7.7718,7.7739,7.7063,7.7819,7.8517,7.9181,7.9181,7.9566,3.8062,0.0,4.0513,4.0513,3.9207,3.7839,0.0,3.7976,3.8223,3.7184,3.7861,3.9054,4.0267,4.0847,4.1185,4.1279,4.2315,4.3848,4.6001,4.9733,5.3605,5.7231,5.8112,5.9338,6.1642,6.1852,6.2211,6.3048,6.3108,6.3108,6.3108,6.3108,6.3108,6.3108,6.3108,6.3108,6.3108,6.3108,6.3333,6.3782,6.4006,6.4605,6.5562,6.6011,6.643,6.6759,6.6939,6.7014,6.7014,6.7014,6.7014,6.7014,6.7014,6.7313,6.7778,6.7778,6.8092,6.8555,6.8704,6.9157,6.9745,7.0343,7.0553,7.0553,7.0553,6.9863,6.9147,6.9429,6.9664,6.9989,7.0404,7.0648,7.083,7.0906,7.1117,7.1357,7.1594,7.2345,7.321,7.3991,7.4944,7.5898,7.6819,7.7124,7.7336,7.7702,7.7582,7.7447,7.7447,7.7447,7.7299,7.6881,7.6847,7.7299,7.8428,7.7887,7.7447,7.7447,7.765,7.7751,7.7751,7.7921,7.7921,7.7751,7.8483,7.8742,7.8572,7.9329,7.9769,7.9938,7.9938,8.004,3.6515,3.8007,3.9722,4.036,3.9115,3.7623,3.7176,3.7576,3.7984,3.7777,3.7976,3.8637,4.0206,4.0808,4.133,4.2159,4.2847,4.4735,4.8884,5.2157,5.5448,5.9056,5.9803,6.0685,6.2405,6.2555,6.2704,6.3063,6.3108,6.3108,6.3108,6.3108,6.3108,6.3108,6.3108,6.3108,6.3108,6.3108,6.3393,6.4006,6.4291,6.5009,6.5996,6.6311,6.667,6.7014,6.7014,6.7014,6.7014,6.7014,6.7014,6.7044,6.7343,6.7688,6.8047,6.8331,6.869,6.9034,6.9333,6.9887,7.0486,7.0799,7.0889,7.0889,7.0889,7.041,6.9951,7.0271,7.0492,7.0744,7.1289,7.1537,7.166,7.1814,7.221,7.2678,7.3123,7.4074,7.5143,7.6134,7.6947,7.7711,7.8463,7.8421,7.8356,7.8492,7.8225,7.7988,7.7988,7.7988,7.7954,7.7908,7.7874,7.828,7.9308,7.9172,7.8733,7.8056,7.8327,7.8483,7.8483,7.8822,7.9003,7.9003,7.9058,7.9283,7.9621,8.0006,8.0209,8.0209,8.056,8.0682,3.6761,3.7852,3.9202,4.0228,3.9946,3.9154,3.8145,3.7792,3.7861,3.8639,3.8161,3.8206,4.0144,4.0513,4.118,4.331,4.4018,4.6431,5.2498,5.4683,5.7004,6.0671,6.118,6.1732,6.2988,6.3108,6.3108,6.3108,6.3108,6.3108,6.3108,6.3108,6.3108,6.3108,6.3108,6.3108,6.3108,6.3108,6.3452,6.4156,6.474,6.5398,6.6176,6.6729,6.7014,6.7014,6.7014,6.7014,6.7014,6.7014,6.7074,6.7224,6.7778,6.8137,6.8377,6.896,6.9213,6.9363,6.9947,7.047,7.0889,7.0889,7.0889,7.0889,7.0889,7.0889,7.0984,7.1323,7.1419,7.158,7.2295,7.2484,7.2562,7.2921,7.3432,7.4026,7.4579,7.5826,7.7176,7.8277,7.8961,7.9516,8.0086,7.9689,7.9283,7.9283,7.872,7.8327,7.8327,7.8327,7.8496,7.8902,7.8936,7.9274,8.0141,8.0209,7.968,7.8428,7.8923,7.9283,7.9283,7.987,8.0209,8.0209,7.9587,7.9621,8.0378,8.0378,8.0412,8.0547,8.1169,8.1473,3.7884,3.9544,4.0881,4.0576,4.039,3.9968,3.8676,3.8376,3.8069,3.71,3.6792,3.7492,4.0021,4.0513,4.1117,4.3057,4.6471,5.0081,5.3551,5.6124,5.8517,6.0821,6.1613,6.2241,6.3003,6.3108,6.3108,6.3108,6.3108,6.3108,6.3108,6.3108,6.3108,6.3108,6.3108,6.3108,6.3108,6.3108,6.3677,6.4859,6.4964,6.5637,6.6849,6.6954,6.7014,6.7014,6.7014,6.7014,6.7014,6.7014,6.7343,6.7868,6.7958,6.869,6.9708,6.9798,7.0187,7.062,7.0739,7.0829,7.0889,7.0889,7.0889,7.0889,7.0889,7.0889,7.0984,7.1323,7.1419,7.158,7.2295,7.2484,7.2562,7.2921,7.3324,7.3768,7.4207,7.5941,7.7774,7.8783,7.9295,7.9683,8.0145,8.0107,8.004,8.004,7.9938,7.987,7.987,7.987,7.9904,7.9972,7.9972,8.004,8.0175,8.0209,8.0107,7.987,7.9972,8.004,8.004,8.0141,8.0209,8.0209,8.0073,8.0378,8.1135,8.1135,8.1439,8.2056,8.2171,8.2238,3.813,3.9579,4.1073,4.2677,4.2318,4.1234,4.0147,3.9568,3.8947,3.7813,3.7584,3.8192,4.0144,4.1315,4.3714,4.888,5.0619,5.2354,5.5359,5.7111,5.8996,6.1373,6.1912,6.2375,6.3033,6.3108,6.3108,6.3108,6.3108,6.3108,6.3108,6.3108,6.3108,6.3108,6.3108,6.3243,6.3572,6.3602,6.4066,6.4994,6.5368,6.6056,6.7014,6.7014,6.7014,6.7014,6.7014,6.7014,6.7044,6.7373,6.7703,6.8077,6.8796,6.9468,7.0037,7.0366,7.0649,7.0889,7.0889,7.0889,7.0889,7.0889,7.0889,7.0889,7.0889,7.0889,7.0984,7.1323,7.1419,7.1532,7.2088,7.2231,7.2262,7.242,7.3046,7.3752,7.4355,7.5901,7.7582,7.9073,7.9678,7.9972,8.0183,8.0209,8.0209,8.0209,8.0209,8.0209,8.0209,8.0209,8.0209,8.0209,8.0209,8.0209,8.0209,8.0209,8.0209,8.0209,8.0209,8.0209,8.0209,8.0581,8.0796,8.0796,8.119,8.1562,8.19,8.19,8.2069,8.2395,8.2813,8.2983,3.7946,3.9168,4.0763,4.3435,0.0,4.2215,4.1468,4.077,4.019,3.9833,3.9753,4.0248,4.1793,4.4277,4.8286,5.5029,5.5107,5.5047,5.7064,5.8308,5.9803,6.1852,6.2255,6.2555,6.3048,6.3108,6.3108,6.3108,6.3108,6.3108,6.3108,6.3108,6.3108,6.3108,6.3257,6.3542,6.4006,6.4306,6.471,6.5233,6.5757,6.634,6.7014,6.7014,6.7014,6.7014,6.7014,6.7104,6.7284,6.7808,6.8197,6.8586,6.9588,7.0097,7.0277,7.0739,7.0889,7.0889,7.0889,7.0889,7.0889,7.0889,7.0889,7.0889,7.0889,7.0889,7.0984,7.1323,7.1419,7.15,7.1897,7.1913,7.1866,7.1991,7.264,7.3385,7.3948,7.5041,7.6577,7.8916,7.9806,8.0209,8.0209,8.0209,8.0209,8.0209,8.0209,8.0209,8.0209,8.0209,8.0209,8.0209,8.0209,8.0209,8.0209,8.0412,8.0547,8.0547,8.0479,8.0547,8.0716,8.127,8.1575,8.1575,8.2103,8.2496,8.2665,8.2665,8.2733,8.2936,8.3477,8.3761,3.7369,3.8864,4.0244,4.0513,4.1492,4.2302,4.194,4.1602,0.0,4.3229,4.3503,4.4174,4.6399,5.0935,5.5329,5.8321,5.9385,5.9415,5.8205,6.0192,6.1882,6.2061,6.2644,6.3048,6.3108,6.3108,6.3108,6.3108,6.3108,6.3108,6.3108,6.3108,6.3108,6.3108,6.3632,6.3947,6.4006,6.5218,6.5877,6.5936,6.5966,6.634,6.7014,6.7014,6.7014,6.7014,6.7014,6.7343,6.7928,6.7987,6.8736,6.9858,6.9947,7.0336,7.0829,7.0889,7.0889,7.0889,7.0889,7.0889,7.0889,7.0889,7.0889,7.0889,7.0889,7.0889,7.0984,7.1323,7.1419,7.15,7.1897,7.1738,7.1548,7.1897,7.2071,7.212,7.2183,7.2765,7.4312,7.7891,7.9472,8.0209,8.0209,8.0209,8.0209,8.0209,8.0209,8.0209,8.0209,8.0209,8.0209,8.0209,8.0209,8.0209,8.0209,8.1054,8.1583,8.1583,8.1359,8.1541,8.2192,8.2293,8.2327,8.2327,8.2361,8.2746,8.3422,8.3422,8.3748,8.4444,8.4512,8.4512,3.8561,3.9447,4.0423,4.1283,4.1951,0.0,0.0,4.2578,4.3518,4.5592,4.6022,4.6781,4.9265,5.2037,5.5371,5.9654,5.9923,5.9803,6.0505,6.1463,6.2241,6.2674,6.2944,6.3108,6.3108,6.3108,6.3108,6.3108,6.3108,6.3108,6.3108,6.3108,6.3273,6.3662,6.3887,6.4395,6.5233,6.5742,6.6221,6.661,6.661,6.6759,6.7014,6.7014,6.7014,6.7014,6.7014,6.7373,6.8047,6.8451,6.9169,7.0037,7.041,7.0709,7.0889,7.0889,7.0889,7.0889,7.0889,7.0889,7.0889,7.0889,7.0889,7.0889,7.0889,7.0889,7.0984,7.1323,7.1228,7.1178,7.1532,7.1817,7.2006,7.1941,7.2029,7.2231,7.2555,7.4141,7.6343,7.9248,8.0633,8.1353,8.1552,8.1549,8.1549,8.1549,8.1549,8.1549,8.1549,8.1549,8.1549,8.1549,8.1312,8.1245,8.1562,8.1921,8.2124,8.2124,8.234,8.2454,8.2395,8.2847,8.3084,8.3084,8.3545,8.3917,8.4187,8.4187,8.4323,8.4614,8.4614,8.4614,3.8962,3.9462,4.0108,4.1233,0.0,0.0,4.3598,4.469,4.6163,4.8479,4.9075,4.9494,5.0589,5.2456,5.5192,5.9385,5.9983,6.0446,6.1882,6.2271,6.2584,6.3048,6.3108,6.3108,6.3108,6.3108,6.3108,6.3108,6.3108,6.3108,6.3108,6.3108,6.3393,6.3977,6.4216,6.4859,6.5996,6.6221,6.655,6.7014,6.7014,6.7014,6.7014,6.7014,6.7014,6.7014,6.7014,6.7493,6.8361,6.8794,6.9512,7.0336,7.0739,7.0889,7.0889,7.0889,7.0889,7.0889,7.0889,7.0889,7.0889,7.0889,7.0889,7.0889,7.0889,7.0889,7.0938,7.1194,7.1097,7.0938,7.1164,7.1589,7.1991,7.2182,7.1996,7.2185,7.3632,7.6539,7.928,8.0762,8.1489,8.1926,8.2142,8.2293,8.2395,8.2395,8.2395,8.2395,8.2395,8.2395,8.2395,8.2395,8.2124,8.1853,8.1718,8.2564,8.3105,8.3105,8.3456,8.349,8.3105,8.3592,8.3862,8.3862,8.4343,8.4614,8.4614,8.4614,8.4614,8.4614,8.4614,8.4614,3.8235,3.862,3.9174,3.9793,4.148,4.3692,4.6235,4.81,4.9905,5.2085,5.2905,5.2558,5.035,5.2845,5.579,5.7543,5.9983,6.1778,6.2061,6.2674,6.3108,6.3108,6.3108,6.3108,6.3108,6.3108,6.3108,6.3108,6.3108,6.3108,6.3108,6.3108,6.3393,6.3977,6.465,6.5323,6.5996,6.667,6.7014,6.7014,6.7014,6.7014,6.7014,6.7014,6.7014,6.7014,6.7014,6.7747,6.9004,6.9004,6.9752,7.0889,7.0889,7.0889,7.0889,7.0889,7.0889,7.0889,7.0889,7.0889,7.0889,7.0889,7.0889,7.0889,7.0889,7.0889,7.0889,7.0889,7.0889,7.0889,7.0889,7.0889,7.1248,7.2578,7.189,7.1878,7.5277,7.9629,8.2717,8.2135,8.1732,8.1557,8.1695,8.2124,8.2428,8.2428,8.2428,8.2428,8.2428,8.2428,8.2428,8.2428,8.2428,8.182,8.0378,8.2936,8.4614,8.4614,8.4614,8.4614,8.4614,8.4614,8.4614,8.4614,8.4614,8.4614,8.4614,8.4614,8.4614,8.4614,8.4614,8.4614,4.0183,4.0682,4.1319,4.2442,4.3568,4.5183,4.8093,4.9413,5.0832,5.378,5.4491,5.4234,5.2935,5.479,5.7214,5.9308,6.0551,6.1642,6.2674,6.2974,6.3108,6.3108,6.3108,6.3108,6.3108,6.3108,6.3108,6.3108,6.3108,6.3108,6.3108,6.3108,6.3602,6.468,6.4904,6.5547,6.67,6.6894,6.7014,6.7014,6.7014,6.7014,6.7014,6.7014,6.7014,6.7014,6.7014,6.7747,6.9064,6.9961,7.056,7.0889,7.0889,7.0889,7.0889,7.0889,7.0889,7.0889,7.0889,7.0889,7.0889,7.0889,7.0889,7.0889,7.0889,7.0889,7.0889,7.0889,7.0889,7.0889,7.0889,7.0889,7.1248,7.2578,7.3313,7.4515,7.7339,7.9564,8.13,8.2316,8.2699,8.3051,8.3649,8.3849,8.395,8.395,8.395,8.395,8.395,8.395,8.395,8.395,8.395,8.3781,8.3342,8.412,8.4614,8.4614,8.4614,8.4614,8.4614,8.4614,8.4614,8.4614,8.4614,8.4614,8.4614,8.4614,8.4614,8.4614,8.4614,8.4614,4.0931,4.1613,4.2396,4.3714,4.5182,4.7295,5.0977,5.2251,5.335,5.5846,5.6555,5.6496,5.5718,5.6555,5.8035,5.9967,6.1194,6.2195,6.2988,6.3108,6.3108,6.3108,6.3108,6.3108,6.3108,6.3108,6.3108,6.3108,6.3333,6.3452,6.3452,6.3707,6.4336,6.5353,6.5398,6.5906,6.6984,6.7014,6.7014,6.7014,6.7014,6.7014,6.7014,6.7014,6.7014,6.7029,6.7567,6.8256,6.9093,7.038,7.0889,7.0889,7.0889,7.0889,7.0889,7.0889,7.0889,7.0889,7.0889,7.0889,7.0889,7.0889,7.0889,7.0889,7.0889,7.0889,7.0889,7.0889,7.0889,7.0889,7.0889,7.1697,7.2684,7.3492,7.4317,7.5654,7.8344,8.0502,8.2106,8.2638,8.3,8.3507,8.4419,8.4614,8.4614,8.4614,8.4614,8.4614,8.4614,8.4614,8.4614,8.4614,8.4614,8.4614,8.4614,8.4614,8.4614,8.4614,8.4614,8.4614,8.4614,8.4614,8.4614,8.4614,8.4614,8.4614,8.4614,8.4999,8.4999,8.4614,8.5222,8.5845,4.0943,4.1906,4.3,4.4317,4.677,4.9984,5.4371,5.588,5.6718,5.7949,5.8726,5.9026,5.8397,5.8218,5.859,5.998,6.1836,6.3108,6.3108,6.3108,6.3108,6.3108,6.3108,6.3123,6.3197,6.3197,6.3213,6.3273,6.3767,6.4096,6.4096,6.468,6.5293,6.5966,6.5996,6.6311,6.6984,6.7014,6.7014,6.7014,6.7014,6.7014,6.7014,6.7014,6.7014,6.7074,6.8405,6.9004,6.9093,7.038,7.0889,7.0889,7.0889,7.0889,7.0889,7.0889,7.0889,7.0889,7.0889,7.0889,7.0889,7.0889,7.0889,7.0889,7.0889,7.0889,7.0889,7.0889,7.1068,7.1248,7.1248,7.309,7.4886,7.4886,7.4886,7.5651,7.831,8.1738,8.4001,8.3056,8.2963,8.3388,8.4406,8.4614,8.4614,8.4614,8.4614,8.4614,8.4614,8.4614,8.4614,8.4614,8.4614,8.4614,8.4614,8.4614,8.4614,8.4614,8.4864,8.5019,8.5019,8.5019,8.5019,8.5019,8.5019,8.5019,8.5019,8.5926,8.5892,8.5033,8.6183,8.755,4.2038,4.3555,4.5135,4.6991,5.0212,5.3593,5.6107,5.7214,5.7919,5.8726,5.9534,6.0027,5.9727,6.0326,6.0864,6.088,6.2121,6.3108,6.3108,6.3108,6.3108,6.3108,6.3108,6.3273,6.3767,6.3797,6.4006,6.456,6.471,6.4785,6.4785,6.4904,6.5293,6.5966,6.5996,6.6311,6.6984,6.7014,6.7014,6.7014,6.7014,6.7014,6.7014,6.7014,6.7014,6.7074,6.8405,6.9004,6.9093,7.038,7.0889,7.0889,7.0889,7.0889,7.0889,7.0889,7.0889,7.0889,7.0889,7.0889,7.0889,7.0889,7.0889,7.0889,7.0889,7.0889,7.0889,7.0889,7.2432,7.4048,7.4048,7.4467,7.4886,7.4886,7.4886,7.5363,7.7081,7.9735,8.2137,8.334,8.3952,8.4298,8.4574,8.4614,8.4614,8.4614,8.4614,8.4614,8.4614,8.4614,8.4614,8.4614,8.4614,8.4614,8.4614,8.4614,8.4614,8.4614,8.6805,8.8139,8.8139,8.8139,8.8139,8.8139,8.8139,8.8139,8.8139,8.8342,8.8342,8.8091,8.6048,8.6521,4.2589,4.4709,4.7229,5.0725,5.3396,5.5658,5.7603,5.8637,5.9355,5.9953,6.0402,6.0894,6.1447,6.1986,6.2301,6.2091,6.2644,6.3108,6.3108,6.3333,6.3572,6.3692,6.3887,6.4126,6.4441,6.447,6.462,6.4964,6.5293,6.5488,6.5488,6.5787,6.6131,6.646,6.649,6.664,6.7014,6.7014,6.7014,6.7014,6.7014,6.7014,6.7014,6.7014,6.7014,6.7074,6.8405,6.9004,6.9093,7.038,7.0889,7.0889,7.0889,7.0889,7.0889,7.0889,7.0889,7.0889,7.0889,7.0889,7.0889,7.0889,7.0889,7.0889,7.0889,7.0889,7.0889,7.0889,7.2851,7.4886,7.4886,7.4886,7.5074,7.5752,7.5397,7.5091,7.5836,7.7605,7.975,8.2035,8.3617,8.4614,8.4614,8.4614,8.4614,8.4614,8.4614,8.4614,8.4614,8.4614,8.4614,8.4614,8.4614,8.4614,8.4614,8.5912,8.6771,8.6771,8.824,8.9086,8.9086,8.9086,8.9086,8.9086,8.9086,8.9086,8.9086,8.9086,8.9086,8.9052,8.7482,8.7583,4.2946,4.5819,4.9403,5.4044,5.573,5.6778,5.886,5.9863,6.0551,6.109,6.1329,6.1792,6.2884,6.3108,6.3123,6.3257,6.3243,6.3273,6.3317,6.3752,6.4201,6.459,6.4934,6.5114,6.5174,6.5174,6.5203,6.5338,6.5847,6.6176,6.6176,6.67,6.7014,6.7014,6.7014,6.7014,6.7014,6.7014,6.7014,6.7014,6.7014,6.7014,6.7014,6.7014,6.7074,6.7254,6.8465,6.9064,6.9243,7.044,7.0889,7.0889,7.0889,7.0889,7.0889,7.0889,7.0889,7.0889,7.0889,7.0889,7.0889,7.0889,7.0889,7.0979,7.1457,7.1577,7.1577,7.1577,7.321,7.4886,7.4886,7.4886,7.5244,7.667,7.6625,7.6147,7.5722,7.6705,7.8422,8.0844,8.3084,8.4614,8.4614,8.4614,8.4614,8.4614,8.4614,8.4783,8.5303,8.5371,8.5371,8.5371,8.5371,8.5371,8.5371,8.7651,8.9086,8.9086,8.9086,8.9086,8.9086,8.9086,8.9086,8.9086,8.9086,8.9086,8.9086,8.9086,8.9086,8.9086,8.9086,8.9086,4.35,4.7547,5.172,5.4523,5.585,5.7124,5.9668,6.0312,6.0641,6.1449,6.2271,6.2884,6.3078,6.3108,6.3273,6.3797,6.3887,6.3961,6.4201,6.429,6.465,6.5428,6.5577,6.5682,6.5847,6.5877,6.6116,6.67,6.6835,6.6864,6.6864,6.6954,6.7014,6.7014,6.7014,6.7014,6.7014,6.7014,6.7014,6.7014,6.7014,6.7014,6.7014,6.7014,6.7313,6.7928,6.8675,6.9333,6.9917,7.062,7.0889,7.0889,7.0889,7.0889,7.0889,7.0889,7.0889,7.0889,7.0889,7.0889,7.0889,7.0889,7.0889,7.1338,7.3659,7.4377,7.4377,7.4377,7.4616,7.4886,7.4886,7.4886,7.5244,7.667,7.9455,8.1242,7.9037,7.9567,8.0888,8.2371,8.3686,8.4614,8.4614,8.4614,8.4614,8.4614,8.4614,8.554,8.8172,8.8511,8.8511,8.8511,8.8511,8.8511,8.8511,8.8883,8.9086,8.9086,8.9086,8.9086,8.9086,8.9086,8.9086,8.9086,8.9086,8.9086,8.9086,8.9086,8.9086,8.9086,8.9086,8.9086,4.6174,4.927,5.2048,5.5742,5.6735,5.7453,5.9877,6.0581,6.1,6.1762,6.2555,6.3108,6.3108,6.3393,6.3677,6.3947,6.4336,6.459,6.4725,6.5054,6.5443,6.5832,6.6206,6.6475,6.655,6.655,6.667,6.6984,6.7014,6.7014,6.7014,6.7014,6.7014,6.7014,6.664,6.661,6.7014,6.6251,6.5877,6.5877,6.5877,6.6071,6.643,6.643,6.7014,6.8047,6.8704,6.9379,7.0037,7.0649,7.0889,7.0889,7.0889,7.0889,7.0889,7.0889,7.0889,7.0889,7.0889,7.0889,7.0889,7.0889,7.0889,7.1398,7.4078,7.4886,7.4886,7.4886,7.4886,7.4886,7.4886,7.4886,7.5244,7.667,8.0024,8.2585,8.1452,8.2161,8.3168,8.3727,8.4244,8.4614,8.4614,8.4614,8.5155,8.6873,8.711,8.7583,8.8917,8.9086,8.9086,8.9086,8.9086,8.9086,8.9086,8.9086,8.9086,8.9086,8.9086,8.9086,8.9086,8.9086,8.9086,8.9086,8.9086,8.9086,8.9086,8.9086,8.9086,8.9086,8.9086,8.9086,4.7449,4.9706,5.1634,5.6038,5.7034,5.7483,5.9594,6.0521,6.115,6.1942,6.2644,6.3108,6.3108,6.3482,6.3827,6.3977,6.4411,6.48,6.4964,6.5428,6.5757,6.5757,6.6191,6.649,6.649,6.649,6.649,6.649,6.649,6.655,6.664,6.655,6.649,6.649,6.6131,6.6071,6.6356,6.5458,6.4934,6.4859,6.4934,6.5263,6.5757,6.5906,6.6729,6.8047,6.8704,6.9453,7.0277,7.0709,7.0889,7.0889,7.0889,7.0889,7.0889,7.0889,7.0889,7.0889,7.0889,7.0889,7.0889,7.0889,7.0889,7.1398,7.4078,7.4886,7.4886,7.4886,7.4886,7.4886,7.4886,7.4886,7.5244,7.667,8.0024,8.2968,8.3262,8.3987,8.4614,8.4614,8.4614,8.4614,8.4614,8.5236,8.6501,8.8748,8.9086,8.9086,8.9086,8.9086,8.9086,8.9086,8.9086,8.9086,8.9086,8.9086,8.9086,8.9086,8.9086,8.9086,8.9086,8.9086,8.9086,8.9086,8.9086,8.9086,8.9086,8.9086,8.9086,8.9086,8.9086,8.9086,4.5434,4.7972,5.0812,5.4435,5.594,5.7004,5.8756,5.9847,6.0731,6.1882,6.2644,6.3108,6.3108,6.3138,6.3333,6.3917,6.4036,6.4261,6.4904,6.5024,6.5054,6.5054,6.5084,6.5084,6.5084,6.5084,6.5084,6.5084,6.5084,6.5308,6.5757,6.5338,6.5084,6.5084,6.5503,6.5338,6.453,6.4829,6.48,6.444,6.4829,6.5024,6.5084,6.5697,6.6729,6.8047,6.8704,6.9722,7.0859,7.0889,7.0889,7.0889,7.0889,7.0889,7.0889,7.0889,7.0889,7.0889,7.0889,7.0889,7.0889,7.0889,7.0889,7.1398,7.4078,7.4886,7.4886,7.4886,7.4886,7.4886,7.4886,7.4886,7.5244,7.667,8.0024,8.3192,8.4292,8.4574,8.4614,8.4614,8.4614,8.4614,8.4614,8.6974,8.8917,8.9086,8.9086,8.9086,8.9086,8.9086,8.9086,8.9086,8.9086,8.9086,8.9086,8.9086,8.9086,8.9086,8.9086,8.9086,8.9086,8.9086,8.9086,8.9086,8.9086,8.9086,8.9086,8.9086,8.9086,8.9086,8.9086,8.9086,4.4172,4.6214,4.8716,5.3241,5.4384,5.4982,5.7274,5.871,6.0176,6.2315,6.2914,6.3108,6.3108,6.3108,6.3168,6.3393,6.4126,6.474,6.4964,6.4994,6.4994,6.4994,6.4994,6.4994,6.4994,6.4994,6.4994,6.4994,6.4994,6.5054,6.5248,6.5084,6.5159,6.5443,6.5069,6.444,6.3572,6.3722,6.3722,6.3572,6.3722,6.3977,6.4395,6.5488,6.6729,6.8047,6.9169,7.0111,7.0889,7.0889,7.0889,7.0889,7.0889,7.0889,7.0889,7.0889,7.0889,7.0889,7.0889,7.0889,7.1188,7.291,7.3479,7.3659,7.4616,7.4886,7.4886,7.4886,7.4886,7.5108,7.6021,7.6255,7.7003,8.007,8.1858,8.3206,8.4339,8.4614,8.5155,8.711,8.7482,8.7482,8.7482,8.8375,8.9086,8.9086,8.9086,8.9086,8.9086,8.9086,8.9086,8.9086,8.9086,8.9086,8.9086,8.9086,8.9086,8.9086,8.9086,8.9086,8.9086,8.9086,8.9086,8.9086,8.9086,8.9086,8.9086,8.9086,8.9086,8.9086,8.9086,8.9086,4.2914,4.4734,4.6826,5.0386,5.1797,5.2882,5.5072,5.7064,5.9129,6.1597,6.2614,6.3108,6.3108,6.3108,6.3108,6.3108,6.3797,6.4351,6.4351,6.4351,6.4351,6.4351,6.4351,6.4351,6.4351,6.4351,6.4351,6.4351,6.4351,6.4351,6.4351,6.4351,6.4515,6.4829,6.4261,6.3692,6.3108,6.3108,6.3108,6.3108,6.3108,6.3542,6.4351,6.5488,6.6849,6.8391,6.9528,7.0336,7.0889,7.0889,7.0889,7.0889,7.0889,7.0889,7.0889,7.0889,7.0889,7.0889,7.0889,7.0889,7.1338,7.4018,7.4886,7.4886,7.4886,7.4886,7.4886,7.4886,7.4886,7.5227,7.6637,7.7976,7.9641,8.2266,8.3659,8.4684,8.587,8.6115,8.6704,8.8714,8.9086,8.9086,8.9086,8.9086,8.9086,8.9086,8.9086,8.9086,8.9086,8.9086,8.9086,8.9086,8.9086,8.9086,8.9086,8.9086,8.9086,8.9086,8.9086,8.9086,8.9086,8.9086,8.9086,8.9086,8.9086,8.9086,8.9086,8.9086,8.9086,8.9086,8.9086,8.9086,0.0,0.0,0.0,4.577,4.8233,5.0836,5.2133,5.482,5.7586,5.9651,6.1627,6.3048,6.3108,6.3108,6.3108,6.3108,6.3108,6.3108,6.3108,6.3108,6.3108,6.3108,6.3108,6.3108,6.3108,6.3108,6.3108,6.3108,6.3108,6.3108,6.3108,6.3108,6.3108,6.3108,6.3108,6.3108,6.3108,6.3108,6.3108,6.3108,6.3108,6.3767,6.5024,6.5697,6.7119,6.9034,6.9738,7.0366,7.0889,7.0889,7.0889,7.0889,7.0889,7.0889,7.0889,7.0889,7.0889,7.0889,7.0889,7.0949,7.1457,7.4048,7.4886,7.4886,7.4886,7.4886,7.4903,7.4937,7.4954,7.5295,7.6802,8.0088,8.3016,8.3016,8.5246,8.767,8.8832,8.9086,8.9086,8.9086,8.9086,8.9086,8.9086,8.9086,8.9086,8.9086,8.9086,8.9086,8.9086,8.9086,8.9086,8.9086,8.9086,8.9086,8.9086,8.9086,8.9086,8.9086,8.9086,8.9086,8.9086,8.9086,8.9086,8.9086,8.9086,8.9086,8.9086,8.9086,8.9086,8.9086,8.9086,8.9086,3.9378,0.0,0.0,0.0,0.0,0.0,5.0311,5.3008,5.6024,5.881,6.022,6.1357,6.2824,6.3108,6.3108,6.3108,6.3108,6.3108,6.3108,6.3108,6.3108,6.3108,6.3108,6.3108,6.3108,6.3108,6.3108,6.3108,6.3108,6.3108,6.3108,6.3108,6.3108,6.3108,6.3108,6.3108,6.3108,6.3108,6.3108,6.3108,6.3108,6.3767,6.5024,6.6191,6.7567,6.9064,7.0171,7.0739,7.0889,7.0889,7.0889,7.0889,7.0889,7.0889,7.0889,7.0889,7.0889,7.0889,7.0889,7.2176,7.3928,7.4646,7.4886,7.4886,7.4886,7.4886,7.5108,7.6138,7.6421,7.715,8.0434,8.3651,8.6078,8.6078,8.7376,8.8677,8.9016,8.9086,8.9086,8.9086,8.9086,8.9086,8.9086,8.9086,8.9086,8.9086,8.9086,8.9086,8.9086,8.9086,8.9086,8.9086,8.9086,8.9086,8.9086,8.9086,8.9086,8.9086,8.9086,8.9086,8.9086,8.9086,8.9086,8.9086,8.9086,8.9086,8.9086,8.9086,8.9086,8.9086,8.9086,8.9086,0.0,0.0,0.0,4.3452,0.0,0.0,4.8667,5.1162,5.4042,5.6907,5.8949,6.0685,6.2225,6.1627,6.0878,6.0878,6.1417,6.2135,6.2988,6.3108,6.3108,6.3108,6.3108,6.3108,6.3108,6.3108,6.3108,6.3108,6.3108,6.3108,6.3108,6.3108,6.3108,6.3108,6.3108,6.3108,6.3108,6.3108,6.3227,6.3482,6.3767,6.4725,6.6281,6.7074,6.8301,6.9812,7.0201,7.056,7.0889,7.0889,7.0889,7.0799,6.9692,6.9273,6.9423,7.05,7.0889,7.1068,7.2176,7.3599,7.4886,7.4886,7.4886,7.4886,7.4886,7.4886,7.5193,7.6604,7.9061,8.1832,8.4134,8.6012,8.7419,8.7933,8.8577,8.9086,8.9086,8.9086,8.9086,8.9086,8.9086,8.9086,8.9086,8.9086,8.9086,8.9086,8.9086,8.9086,8.9086,8.9086,8.9086,8.9086,8.9086,8.9086,8.9086,8.9086,8.9086,8.9086,8.9086,8.9086,8.9086,8.9086,8.9086,8.9086,8.9086,8.9086,8.9086,8.9086,8.9086,8.9086,8.9086,8.9086,4.1247,4.214,0.0,0.0,4.5193,0.0,4.7036,4.927,5.19,5.4361,5.7453,6.0043,6.109,5.9338,5.7723,5.7723,5.8993,6.0669,6.2629,6.2944,6.3018,6.3108,6.3108,6.3108,6.3108,6.3108,6.3108,6.3108,6.3108,6.3108,6.3108,6.3108,6.3108,6.3108,6.3108,6.3108,6.3108,6.3108,6.3452,6.4126,6.471,6.6056,6.7987,6.8017,6.9019,7.0709,7.0051,7.0171,7.0889,7.059,7.047,7.0231,6.7897,6.7194,6.7717,7.0051,7.1098,7.1697,7.4078,7.4886,7.4886,7.4886,7.4886,7.4826,7.4557,7.4646,7.5355,7.7552,8.2563,8.7319,8.7319,8.7319,8.7596,8.8804,8.9086,8.9086,8.9086,8.9086,8.9086,8.9086,8.9086,8.9086,8.9086,8.9086,8.9086,8.9086,8.9086,8.9086,8.9086,8.939,8.9593,8.9593,8.9289,8.9086,8.9086,8.9086,8.9086,8.9086,8.9086,8.9086,8.9086,8.9086,8.9086,8.9086,8.9086,8.9086,8.9086,8.9086,8.9086,8.9086,8.9086,8.9086,4.1524,4.2488,4.3319,4.3008,4.4352,0.0,4.4787,4.7091,5.0057,5.233,5.4179,5.6094,5.8384,5.7949,5.7244,5.7244,5.8381,5.9817,6.1269,6.1942,6.2495,6.3048,6.3108,6.3108,6.3108,6.3108,6.3108,6.3108,6.3108,6.3108,6.3108,6.3108,6.3108,6.3108,6.3108,6.3108,6.3108,6.3108,6.3662,6.4815,6.4934,6.6056,6.8017,6.8181,6.8824,6.9871,7.041,7.0739,7.0739,6.8615,6.7762,6.7717,6.7194,6.8286,7.0201,7.0709,7.2265,7.4197,7.4706,7.4886,7.4886,7.4886,7.4886,7.4497,7.2342,7.321,7.6365,8.3325,8.6256,8.7319,8.7319,8.7319,8.7596,8.8804,8.9086,8.9086,8.9086,8.9086,8.9086,8.9086,8.9086,8.9086,8.9086,8.9086,8.9086,8.9086,8.9086,8.9086,8.9086,9.1217,9.2706,9.2706,9.0541,8.9086,8.9086,8.9086,8.9086,8.9086,8.9086,8.9086,8.9086,8.9086,8.9086,8.9086,8.9086,8.9086,8.9086,8.9086,8.9086,8.9086,8.9086,8.9086,4.3504,4.4098,4.4529,4.4172,0.0,0.0,0.0,4.6152,4.824,4.9891,5.1277,5.2701,5.4359,5.4658,5.467,5.467,5.6047,5.7603,5.8919,6.0835,6.245,6.3422,6.3273,6.3108,6.3108,6.3108,6.3108,6.3108,6.3393,6.3422,6.3108,6.3108,6.3108,6.3108,6.3108,6.3108,6.3108,6.3108,6.3901,6.5518,6.5518,6.6654,6.878,6.8451,6.9004,7.0201,6.9333,6.8944,6.8854,6.7537,6.7014,6.7014,6.7014,6.8585,7.0889,7.0889,7.2611,7.4886,7.4886,7.4018,7.291,7.291,7.291,7.291,7.291,7.5263,7.9282,8.554,8.7319,8.7319,8.7319,8.7319,8.7596,8.8804,8.9086,8.9086,8.9086,8.9086,8.9086,8.9086,8.9086,8.9086,8.9086,8.9086,8.9086,8.9086,8.9086,8.9086,8.9086,9.0405,9.1928,9.3451,9.0913,8.9086,8.9086,8.9086,8.9086,8.9086,8.9086,8.9086,8.9086,8.9086,8.9086,8.9086,8.9086,8.9086,8.9086,8.9086,8.9086,8.9086,8.9086,8.9086,0.0,0.0,4.5957,0.0,0.0,4.5195,0.0,0.0,0.0,4.7633,4.8824,4.986,5.0578,5.1229,5.1678,5.1798,5.3384,5.5162,5.6718,5.9262,6.1523,6.3079,6.2944,6.2704,6.2704,6.2824,6.2944,6.3108,6.3408,6.3482,6.3123,6.3108,6.3108,6.3108,6.3213,6.3273,6.3273,6.3393,6.4366,6.6191,6.6191,6.7298,6.9333,6.8974,6.9303,7.0021,6.7926,6.7014,6.7014,6.7014,6.7014,6.7044,6.7537,6.9034,7.0889,7.0889,7.2611,7.4886,7.4886,7.315,7.0889,7.0889,7.1248,7.2056,7.4227,7.7788,8.1957,8.6119,8.7319,8.7319,8.7319,8.7464,8.7904,8.8861,8.9086,8.9086,8.9086,8.9086,8.9086,8.9086,8.9086,8.9086,8.9086,8.9086,8.9086,8.9086,8.9086,8.9086,8.9086,8.9086,9.0033,9.2469,9.0541,8.9086,8.9086,8.9086,8.9086,8.9086,8.9086,8.9086,8.9086,8.9086,8.9086,8.9086,8.9086,8.9086,8.9086,8.9086,8.9086,8.9086,8.9086,8.9086,0.0,0.0,0.0,0.0,4.5763,4.5034,4.4054,0.0,4.5453,4.6105,0.0,4.7897,4.8734,0.0,0.0,5.0338,5.1606,5.3426,5.5953,5.6641,5.7779,6.025,6.1014,6.1329,6.1329,6.1852,6.2465,6.3048,6.2614,6.2555,6.3063,6.3108,6.3108,6.3108,6.3632,6.3887,6.3887,6.45,6.5488,6.6894,6.6894,6.7418,6.8495,6.9961,6.9453,6.7433,6.7134,6.7014,6.7014,6.7014,6.7014,6.7224,6.9542,7.0649,7.0889,7.0889,7.2611,7.4886,7.4886,7.315,7.0889,7.0889,7.2505,7.4497,7.4813,7.7788,8.1957,8.6119,8.7319,8.7319,8.7319,8.8107,8.8917,8.9058,8.9086,8.9086,8.9086,8.9086,8.9086,8.9086,8.9086,8.9086,8.9086,8.9086,8.9086,8.9086,8.9086,8.9086,8.9086,8.9086,8.9221,8.956,8.9289,8.9086,8.9086,8.9086,8.9086,8.9086,8.9086,8.9086,8.9086,8.9086,8.9086,8.9086,8.9086,8.9086,8.9086,8.9086,8.9086,8.9086,8.9086,8.9086,0.0,0.0,0.0,0.0,4.6936,4.593,4.478,4.4278,4.4568,4.6373,0.0,0.0,0.0,0.0,0.0,0.0,5.1187,5.2773,5.3892,5.4533,5.603,5.9129,5.9415,5.9654,6.0446,6.1134,6.1642,6.1912,6.1672,6.1822,6.2495,6.2884,6.3243,6.3602,6.3857,6.4186,6.459,6.4845,6.5667,6.6984,6.6505,6.7493,6.9782,6.9004,6.8046,6.7014,6.7014,6.7014,6.7014,6.7014,6.7897,6.9363,7.047,7.0889,7.1098,7.2671,7.3928,7.4886,7.4886,7.315,7.0889,7.0889,7.2714,7.4886,7.4886,7.7788,8.1957,8.6119,8.7319,8.7449,8.8146,8.8705,8.9086,8.9086,8.9086,8.9086,8.9086,8.9086,8.9086,8.9086,8.9086,8.9086,8.9086,8.9086,8.9695,9.1454,9.0202,8.9086,8.9086,8.9086,8.9086,8.9086,8.9086,8.9086,8.9086,8.9086,8.983,9.159,9.1691,9.1691,9.1691,9.1691,9.1691,9.1691,9.1691,9.0845,8.9086,8.9086,8.9086,8.9086,8.9086,8.9086,5.1579,5.121,5.045,4.9176,4.7812,4.6447,4.5263,4.4688,4.5014,4.7209,4.8525,0.0,0.0,0.0,4.9979,4.9625,0.0,5.1325,5.2043,5.2504,5.3922,5.6931,5.747,5.8112,5.9428,6.0176,6.0641,6.0791,6.0835,6.1194,6.2061,6.2734,6.3393,6.3977,6.4186,6.459,6.5278,6.5458,6.6026,6.6984,6.6356,6.7373,6.9782,6.7882,6.7014,6.7014,6.7014,6.7014,6.7074,6.7792,6.9183,7.0889,7.0889,7.1338,7.2235,7.4168,7.4886,7.4796,7.4048,7.2551,7.1009,7.1757,7.3329,7.5035,7.5754,7.8378,8.1788,8.5235,8.6441,8.7089,8.8691,8.9086,8.9086,8.9086,8.9086,8.9086,8.9086,8.9086,8.9086,8.9086,8.9086,8.9086,8.9086,8.9796,9.1082,9.3281,9.1725,9.0033,8.9187,8.9086,8.9086,8.9086,8.9086,8.9086,8.9086,8.9864,9.1251,9.3451,9.3586,9.3586,9.3586,9.3586,9.3586,9.3586,9.3586,9.2503,9.0338,8.9492,8.9086,8.9086,8.9086,8.9086,5.2902,5.2625,5.2128,5.0085,4.7976,4.6118,4.4967,4.5992,4.7448,4.8375,4.9931,5.1385,5.2252,5.1026,0.0,0.0,4.8633,0.0,0.0,5.0529,5.0709,5.2492,5.479,5.6748,5.8038,5.8756,5.9428,6.007,6.013,6.0699,6.2032,6.2734,6.3393,6.3977,6.462,6.5308,6.5966,6.661,6.6954,6.7014,6.6969,6.7014,6.7134,6.7044,6.7014,6.7014,6.7014,6.7014,6.7194,6.9722,7.0829,7.0889,7.0889,7.2475,7.4766,7.4873,7.4886,7.4527,7.1936,7.0979,7.1338,7.3928,7.4826,7.5365,7.7909,7.9817,8.1392,8.2911,8.4315,8.5952,8.8429,8.9086,8.9086,8.9086,8.9086,8.9086,8.9086,8.9086,8.9086,8.9086,8.9086,8.9086,8.9086,9.1522,9.3484,9.3586,9.3518,9.2402,8.9492,8.9086,8.9086,8.9086,8.9086,8.9086,8.9086,9.1793,9.3484,9.3586,9.3586,9.3586,9.3586,9.3586,9.3586,9.3586,9.3586,9.3552,9.3451,9.0507,8.9086,8.9086,8.9086,8.9086,5.5738,5.5211,5.4606,5.2889,5.0296,4.833,4.8872,4.9452,4.9811,4.9512,5.1109,5.2606,5.2917,0.0,0.0,0.0,0.0,0.0,0.0,4.8375,4.9033,5.1355,5.3144,5.4713,5.6047,5.7154,5.8052,5.8726,5.9189,6.0027,6.1359,6.2495,6.3572,6.462,6.4874,6.5547,6.664,6.6894,6.7014,6.7014,6.7014,6.7014,6.7014,6.7014,6.7014,6.7014,6.7014,6.7014,6.7194,6.9812,7.0889,7.1068,7.2851,7.4108,7.4886,7.4886,7.3778,7.2385,7.327,7.3539,7.3689,7.4616,7.4886,7.5395,7.8029,7.9166,7.9683,8.0164,8.2028,8.4714,8.8214,8.9086,8.9086,8.9086,8.9086,8.9086,8.9086,8.9086,8.9086,8.9086,8.9086,8.9086,8.9086,8.9932,9.1285,9.3315,9.3586,9.3214,9.2199,9.0338,8.9086,8.9086,8.9086,8.9898,9.1894,9.3011,9.3586,9.3586,9.3586,9.3586,9.3586,9.3586,9.3586,9.3586,9.3586,9.2605,9.0608,8.9593,8.9086,8.9086,8.9086,9.0169,5.9688,6.0049,5.9299,5.6224,5.405,5.2749,5.3031,5.2833,5.2264,5.1056,5.2845,5.4832,5.5611,5.5491,0.0,0.0,0.0,0.0,0.0,4.704,4.7747,5.0242,5.169,5.3126,5.47,5.5807,5.6705,5.7363,5.8022,5.8979,6.0312,6.1672,6.3199,6.4934,6.4994,6.5757,6.7343,6.7134,6.7014,6.7014,6.7014,6.7014,6.7014,6.7014,6.7014,6.7014,6.7014,6.7014,6.7194,6.9812,7.0889,7.1158,7.3838,7.4317,7.3479,7.3479,7.2385,7.1278,7.3958,7.4886,7.4886,7.4886,7.4886,7.5395,7.8029,7.8807,7.8807,7.8807,8.0931,8.409,8.8065,8.9086,8.9086,8.9086,8.9086,8.9086,8.9086,8.9086,8.9086,8.9086,8.9086,8.9086,8.9086,8.9086,8.9763,9.1691,9.2909,9.3586,9.3586,9.1894,9.0304,8.9221,9.0067,9.1488,9.3417,9.3586,9.3586,9.3586,9.3586,9.3586,9.3586,9.3586,9.3586,9.3586,9.2537,9.1048,8.9086,8.9086,8.9086,8.9086,8.9086,9.071]},{"header":{"parameterUnit":"m.s-1","parameterCategory":1,"la1":30.6,"la2":29.2853,"lo1":-89.7004,"lo2":-87.6739,"dy":0.0162,"dx":0.0183,"nx":112,"ny":82,"refTime":"2026-04-29T12:00:00:Z","depth":0,"parameterNumber":3,"parameterNumberName":"V-component_of_WINDS"},"data":[0.0,0.0,0.0,0.0,0.0,0.0,0.0,0.0,0.0,0.0,0.0,0.0,0.0,0.0,0.0,0.0,0.0,0.0,0.0,0.0,0.0,0.0,0.0,0.0,0.0,0.0,0.0,0.0,0.0,0.0,0.0,0.0,0.0,0.0,0.0,0.0,0.0,0.0,0.0,0.0,0.0,0.0,0.0,0.0,0.0,0.0,0.0,0.0,0.0,0.0,0.0,0.0,0.0,0.0,0.0,0.0,0.0,0.0,0.0,0.0,0.0,0.0,0.0,0.0,0.0,0.0,0.0,0.0,0.0,0.0,0.0,0.0,0.0,0.0,0.0,0.0,0.0,0.0,0.0,0.0,0.0,0.0,0.0,0.0,0.0,0.0,0.0,0.0,0.0,0.0,1.4098,1.5423,1.7341,1.8264,1.7649,1.7088,1.638,1.5458,0.0,0.0,0.0,0.0,0.0,0.0,0.0,0.0,0.0,0.0,0.0,0.0,0.0,0.0,0.0,0.0,0.0,0.0,0.0,0.0,0.0,0.0,0.0,0.0,0.0,0.0,0.0,0.0,0.0,0.0,0.0,0.0,0.0,0.0,0.0,0.0,0.0,0.0,0.0,0.0,0.0,0.0,0.0,0.0,0.0,0.0,0.0,0.0,0.0,0.0,0.0,0.0,0.0,0.0,0.0,0.0,0.0,0.0,0.0,0.0,0.0,0.0,0.0,0.0,0.0,0.0,0.0,0.0,0.0,0.0,0.0,0.0,0.0,0.0,0.0,0.0,0.0,0.0,0.0,0.0,0.0,0.0,0.0,0.0,0.0,0.0,0.0,0.0,0.0,0.0,0.0,0.0,0.0,0.0,0.0,0.0,0.0,0.0,0.0,0.0,0.0,0.0,0.0,0.0,1.4841,1.6994,1.7983,1.8264,1.7649,1.7313,1.6632,1.5471,0.0,0.0,0.0,0.0,0.0,0.0,0.0,0.0,0.0,0.0,0.0,0.0,0.0,0.0,0.0,0.0,0.0,0.0,0.0,0.0,0.0,0.0,0.0,0.0,0.0,0.0,0.0,0.0,0.0,0.0,0.0,0.0,0.0,0.0,0.0,0.0,0.0,0.0,0.0,0.0,0.0,0.0,0.0,0.0,0.0,0.0,0.0,0.0,0.0,0.0,0.0,0.0,0.0,0.0,0.0,0.0,0.0,0.0,0.0,0.0,0.0,0.0,0.0,0.0,0.0,0.0,0.0,0.0,0.0,0.0,0.0,0.0,0.0,0.0,0.0,0.0,0.0,0.0,0.0,0.0,0.0,0.0,0.0,0.0,0.0,0.0,0.0,0.0,0.0,0.0,0.0,0.0,0.0,0.0,0.0,0.0,0.0,0.0,0.0,0.0,0.0,0.0,0.0,1.5591,1.6405,1.7501,1.8424,1.8799,1.829,1.7608,1.6751,1.5686,1.4343,0.0,0.0,0.0,0.0,0.0,0.0,0.0,0.0,0.0,0.0,0.0,0.0,0.0,0.0,0.0,0.0,0.0,0.0,0.0,0.0,0.0,0.0,0.0,0.0,0.0,0.0,0.0,0.0,0.0,0.0,0.0,0.0,0.0,0.0,0.0,0.0,0.0,0.0,0.0,0.0,0.0,0.0,0.0,0.0,0.0,0.0,0.0,0.0,0.0,0.0,0.0,0.0,0.0,0.0,0.0,0.0,0.0,0.0,0.0,0.0,0.0,0.0,0.0,0.0,0.0,0.0,0.0,0.0,0.0,0.0,0.0,0.0,0.0,0.0,0.0,0.0,0.0,0.0,0.0,0.0,0.0,0.0,0.0,0.0,0.0,0.0,0.0,0.0,0.0,0.0,0.0,0.0,0.0,0.0,0.0,0.0,0.0,0.0,0.0,0.0,0.0,0.0,1.7275,1.8023,1.8023,1.8853,1.9201,1.8705,1.7809,1.6805,1.5686,1.4421,0.0,0.0,0.0,0.0,0.0,0.0,0.0,0.0,0.0,0.0,0.0,0.0,0.0,0.0,0.0,0.0,0.0,0.0,0.0,0.0,0.0,0.0,0.0,0.0,0.0,0.0,0.0,0.0,0.0,0.0,0.0,0.0,0.0,0.0,0.0,0.0,0.0,0.0,0.0,0.0,0.0,0.0,0.0,0.0,0.0,0.0,0.0,0.0,0.0,0.0,0.0,0.0,0.0,0.0,0.0,0.0,0.0,0.0,0.0,0.0,0.0,0.0,0.0,0.0,0.0,0.0,0.0,0.0,0.0,0.0,0.0,0.0,0.0,0.0,0.0,0.0,0.0,0.0,0.0,0.0,0.0,0.0,0.0,0.0,0.0,0.0,0.0,0.0,0.0,0.0,0.0,0.0,0.0,0.0,0.0,0.0,0.0,0.0,0.0,0.0,0.0,0.0,1.8532,1.9267,1.9267,1.9348,1.9093,1.8303,1.7836,1.6859,1.5171,1.4426,0.0,0.0,0.0,0.0,0.0,0.0,0.0,0.0,0.0,0.0,0.0,0.0,0.0,0.0,0.0,0.0,0.0,0.0,0.0,0.0,0.0,0.0,0.0,0.0,0.0,0.0,0.0,0.0,0.0,0.0,0.0,0.0,0.0,0.0,0.0,0.0,0.0,0.0,0.0,0.0,0.0,0.0,0.0,0.0,0.0,0.0,0.0,0.0,0.0,0.0,0.0,0.0,0.0,0.0,0.0,0.0,0.0,0.0,0.0,0.0,0.0,0.0,0.0,0.0,0.0,0.0,0.0,0.0,0.0,0.0,0.0,0.0,0.0,0.0,0.0,0.0,0.0,0.0,0.0,0.0,0.0,0.0,0.0,0.0,0.0,0.0,0.0,0.0,0.0,0.0,0.0,0.0,0.0,0.0,0.0,0.0,0.0,0.0,0.0,0.0,0.0,0.0,1.8652,1.9401,0.0,1.9401,1.9263,1.892,1.8015,1.7054,1.6053,0.0,0.0,0.0,0.0,0.0,0.0,0.0,0.0,0.0,0.0,0.0,0.0,0.0,0.0,0.0,0.0,0.0,0.0,0.0,0.0,0.0,0.0,0.0,0.0,0.0,0.0,0.0,0.0,0.0,0.0,0.0,0.0,0.0,0.0,0.0,0.0,0.0,0.0,0.0,0.0,0.0,0.0,0.0,0.0,0.0,0.0,0.0,0.0,0.0,0.0,0.0,0.0,0.0,0.0,0.0,0.0,0.0,0.0,0.0,0.0,0.0,0.0,0.0,0.0,0.0,0.0,0.0,0.0,0.0,0.0,0.0,0.0,0.0,0.0,0.0,0.0,0.0,0.0,0.0,0.0,0.0,0.0,0.0,0.0,0.0,0.0,0.0,0.0,0.0,0.0,0.0,0.0,0.0,0.0,0.0,0.0,0.0,0.0,0.0,0.0,0.0,0.0,1.8293,1.9417,1.9822,0.0,1.9401,1.9309,1.9136,1.8412,1.757,1.6632,0.0,0.0,0.0,0.0,0.0,0.0,0.0,0.0,0.0,0.0,0.0,0.0,0.0,0.0,0.0,0.0,0.0,0.0,0.0,0.0,0.0,0.0,0.0,0.0,0.0,0.0,0.0,0.0,0.0,0.0,0.0,0.0,0.0,0.0,0.0,0.0,0.0,0.0,0.0,0.0,0.0,0.0,0.0,0.0,0.0,0.0,0.0,0.0,0.0,0.0,0.0,0.0,0.0,0.0,0.0,0.0,0.0,0.0,0.0,0.0,0.0,0.0,0.0,0.0,0.0,0.0,0.0,0.0,0.0,0.0,0.0,0.0,0.0,0.0,0.0,0.0,0.0,0.0,0.0,0.0,0.0,0.0,0.0,0.0,0.0,0.0,0.0,0.0,0.0,0.0,0.0,0.0,0.0,0.0,0.0,0.0,0.0,0.0,0.0,0.0,0.0,0.0,2.0487,2.1129,2.0773,1.9575,1.9445,1.9245,1.8798,1.9034,1.846,0.0,0.0,0.0,0.0,0.0,0.0,0.0,0.0,0.0,0.0,0.0,0.0,0.0,0.0,0.0,0.0,0.0,0.0,0.0,0.0,0.0,0.0,0.0,0.0,0.0,0.0,0.0,0.0,0.0,0.0,0.0,0.0,0.0,0.0,0.0,0.0,0.0,0.0,0.0,0.0,0.0,0.0,0.0,0.0,0.0,0.0,0.0,0.0,0.0,0.0,0.0,0.0,0.0,0.0,0.0,0.0,0.0,0.0,0.0,0.0,0.0,0.0,0.0,0.0,0.0,0.0,0.0,0.0,0.0,0.0,0.0,0.0,0.0,0.0,0.0,0.0,0.0,0.0,0.0,0.0,0.0,0.0,0.0,0.0,0.0,0.0,0.0,0.0,0.0,0.0,0.0,0.0,0.0,0.0,0.0,0.0,0.0,0.0,0.0,0.0,0.0,0.0,0.0,2.418,2.4345,2.3421,2.2079,2.1727,2.1634,2.1733,2.0869,1.9909,1.8885,0.0,0.0,0.0,0.0,0.0,0.0,0.0,0.0,0.0,0.0,0.0,0.0,0.0,0.0,0.0,0.0,0.0,0.0,0.0,0.0,0.0,0.0,0.0,0.0,0.0,0.0,0.0,0.0,0.0,0.0,0.0,0.0,0.0,0.0,0.0,0.0,0.0,0.0,0.0,0.0,0.0,0.0,0.0,0.0,0.0,0.0,0.0,0.0,0.0,0.0,0.0,0.0,0.0,0.0,0.0,0.0,0.0,0.0,0.0,0.0,0.0,0.0,0.0,0.0,0.0,0.0,0.0,0.0,0.0,0.0,0.0,0.0,0.0,0.0,0.0,0.0,0.0,0.0,0.0,0.0,0.0,0.0,0.0,0.0,0.0,0.0,0.0,0.0,0.0,0.0,0.0,0.0,0.0,0.0,0.0,0.0,0.0,0.0,0.0,0.0,0.0,0.0,2.6085,2.6347,2.5627,2.4199,2.4003,2.3914,2.3772,2.2818,2.1745,2.0592,0.0,0.0,0.0,0.0,0.0,0.0,0.0,0.0,0.0,0.0,0.0,0.0,0.0,0.0,0.0,0.0,0.0,0.0,0.0,0.0,0.0,0.0,0.0,0.0,0.0,0.0,0.0,0.0,0.0,0.0,0.0,0.0,0.0,0.0,0.0,0.0,0.0,0.0,0.0,0.0,0.0,0.0,0.0,0.0,0.0,0.0,0.0,0.0,0.0,0.0,0.0,0.0,0.0,0.0,0.0,0.0,0.0,0.0,0.0,0.0,0.0,0.0,0.0,0.0,0.0,0.0,0.0,0.0,0.0,0.0,0.0,0.0,0.0,0.0,0.0,0.0,0.0,0.0,0.0,0.0,0.0,0.0,0.0,0.0,0.0,0.0,0.0,0.0,0.0,0.0,0.0,0.0,0.0,0.0,0.0,0.0,0.0,0.0,0.0,0.0,0.0,0.0,2.6779,2.7371,2.7279,2.5983,2.6122,2.6,2.5166,2.4769,2.3756,2.1935,0.0,0.0,0.0,0.0,0.0,0.0,0.0,0.0,0.0,0.0,0.0,0.0,0.0,0.0,0.0,0.0,0.0,0.0,0.0,0.0,0.0,0.0,0.0,0.0,0.0,0.0,0.0,0.0,0.0,0.0,0.0,0.0,0.0,0.0,0.0,0.0,0.0,0.0,0.0,0.0,0.0,0.0,0.0,0.0,0.0,0.0,0.0,0.0,0.0,0.0,0.0,0.0,0.0,0.0,0.0,0.0,0.0,0.0,0.0,0.0,1.69,1.7614,0.0,0.0,0.0,0.0,0.0,0.0,0.0,0.0,0.0,0.0,0.0,0.0,0.0,0.0,0.0,0.0,0.0,0.0,0.0,0.0,0.0,0.0,0.0,0.0,0.0,0.0,0.0,0.0,0.0,0.0,0.0,0.0,0.0,0.0,0.0,0.0,0.0,0.0,0.0,0.0,2.8122,2.7852,2.7607,2.7712,2.7426,2.7075,2.6734,2.6018,2.4979,2.3585,2.1368,0.0,0.0,0.0,0.0,0.0,0.0,0.0,0.0,0.0,0.0,0.0,0.0,0.0,0.0,0.0,0.0,0.0,0.0,0.0,0.0,0.0,0.0,0.0,0.0,0.0,0.0,0.0,0.0,0.0,0.0,0.0,0.0,0.0,0.0,0.0,0.0,0.0,0.0,0.0,0.0,0.0,0.0,0.0,0.0,0.0,0.0,0.0,0.0,0.0,0.0,0.0,0.0,0.0,0.0,0.0,0.0,0.0,0.0,0.0,1.8384,1.9223,0.0,0.0,0.0,0.0,0.0,0.0,0.0,0.0,0.0,0.0,0.0,0.0,0.0,0.0,0.0,0.0,0.0,0.0,0.0,0.0,0.0,0.0,0.0,0.0,0.0,0.0,0.0,0.0,0.0,0.0,0.0,0.0,0.0,0.0,0.0,0.0,0.0,0.0,0.0,0.0,2.7676,2.8089,2.8456,2.8963,2.8894,2.867,2.8388,2.756,2.6406,2.4908,2.2794,0.0,0.0,0.0,0.0,0.0,0.0,0.0,0.0,0.0,0.0,0.0,0.0,0.0,0.0,0.0,0.0,0.0,0.0,0.0,0.0,0.0,0.0,0.0,0.0,0.0,0.0,0.0,0.0,0.0,0.0,0.0,0.0,0.0,0.0,0.0,0.0,0.0,0.0,0.0,0.0,0.0,0.0,0.0,0.0,0.0,0.0,0.0,0.0,0.0,0.0,0.0,0.0,0.0,2.2073,2.357,2.4913,2.4913,2.4158,2.2778,2.1448,2.1887,2.3443,2.2051,0.0,0.0,0.0,0.0,0.0,0.0,0.0,0.0,0.0,0.0,0.0,0.0,0.0,0.0,0.0,0.0,0.0,0.0,0.0,0.0,0.0,0.0,2.8711,2.8568,2.7311,2.5174,2.1631,0.0,0.0,0.0,0.0,0.0,0.0,0.0,0.0,0.0,0.0,0.0,2.6838,2.8293,2.9425,2.9934,3.0189,3.0131,2.9637,2.8861,2.7715,2.6018,2.4175,2.2575,0.0,0.0,0.0,0.0,0.0,0.0,0.0,0.0,0.0,0.0,0.0,0.0,0.0,0.0,0.0,0.0,0.0,0.0,0.0,0.0,0.0,0.0,0.0,0.0,0.0,0.0,0.0,0.0,0.0,0.0,0.0,0.0,1.6661,1.6863,0.0,0.0,0.0,0.0,0.0,0.0,0.0,0.0,0.0,0.0,0.0,0.0,0.0,2.3335,2.4838,2.4857,2.4857,2.4888,2.6619,2.7551,2.7751,2.7751,2.7648,2.7415,2.7208,0.0,2.5335,2.5121,0.0,0.0,0.0,0.0,0.0,0.0,0.0,0.0,0.0,0.0,0.0,0.0,0.0,0.0,0.0,0.0,0.0,0.0,0.0,0.0,0.0,0.0,3.0366,2.9618,2.8666,2.7806,2.7234,2.5909,2.4857,2.4857,2.2968,2.1576,0.0,0.0,0.0,0.0,0.0,0.0,2.7206,2.8688,2.9983,3.0689,3.0786,3.0483,2.9676,2.9121,2.8248,2.6908,2.5067,2.3687,2.2938,2.105,0.0,0.0,0.0,0.0,0.0,0.0,0.0,0.0,0.0,0.0,0.0,0.0,0.0,0.0,0.0,0.0,0.0,0.0,0.0,0.0,0.0,0.0,0.0,0.0,0.0,0.0,0.0,0.0,0.0,1.7661,1.9139,1.9599,1.924,1.8429,0.0,0.0,0.0,0.0,0.0,0.0,0.0,0.0,0.0,2.2303,2.3775,2.5406,2.7136,2.7155,2.7155,2.7175,2.8926,2.9746,2.9746,2.9746,2.9746,2.9746,2.9746,2.9336,2.8541,2.7565,2.5472,2.2813,0.0,0.0,0.0,0.0,2.289,2.3137,2.4815,2.5405,2.5405,2.5405,0.0,0.0,0.0,0.0,0.0,0.0,0.0,2.5355,2.8848,2.9955,3.0112,2.9883,2.9428,2.9076,2.9219,2.8658,2.7936,2.7292,2.5415,2.385,2.3503,2.3355,0.0,0.0,0.0,2.6924,2.7752,2.9131,3.0247,3.084,3.0913,3.0639,2.9995,2.9545,2.8861,2.7793,2.6507,2.5319,2.43,2.2981,2.1634,0.0,0.0,0.0,0.0,0.0,0.0,0.0,0.0,0.0,0.0,0.0,0.0,0.0,0.0,0.0,0.0,0.0,0.0,0.0,0.0,0.0,0.0,0.0,0.0,0.0,0.0,0.0,0.0,1.9509,2.1993,2.4087,2.2939,2.0876,0.0,0.0,0.0,0.0,0.0,0.0,2.4352,2.443,2.5023,2.6323,2.6791,2.7663,2.8945,2.8978,2.918,2.9609,3.0918,3.1543,3.1543,3.1543,3.1543,3.1543,3.1543,3.1543,3.1406,2.9682,2.7949,2.6245,2.4937,2.443,2.4586,2.5893,2.6362,2.6615,2.8359,2.8978,2.8978,2.8978,2.9531,2.9668,2.6622,0.0,0.0,0.0,0.0,2.7643,3.0234,3.0424,2.9975,3.0181,3.0176,3.019,3.0376,3.0318,2.9922,2.8842,2.7344,2.5956,2.5043,2.5044,0.0,2.6108,2.6602,2.7318,2.849,2.9648,3.0508,3.0859,3.0913,3.0718,3.0234,2.9819,2.9272,2.8496,2.7656,2.6699,2.563,2.464,2.337,2.1737,0.0,0.0,0.0,0.0,0.0,0.0,0.0,0.0,0.0,0.0,0.0,0.0,0.0,0.0,0.0,0.0,0.0,0.0,0.0,0.0,0.0,0.0,0.0,0.0,0.0,0.0,0.0,0.0,0.0,3.0542,2.791,0.0,0.0,0.0,0.0,2.2793,2.4473,2.6206,2.7962,2.8041,2.808,2.8177,2.978,3.0678,3.0776,3.0776,3.1562,3.3148,3.3246,3.3269,3.3269,3.3269,3.3269,3.3269,3.3269,3.3269,3.3148,3.1465,2.9726,2.8144,2.8066,2.8041,2.8047,2.8138,2.8164,2.8418,3.0156,3.0776,3.0776,3.0776,2.9721,2.8086,2.6264,2.5589,0.0,0.0,2.9297,3.0678,3.084,3.0874,3.0835,3.084,3.123,3.1601,3.1601,3.1211,3.06,2.9715,2.8544,2.7758,2.8026,0.0,2.6318,2.7428,2.7943,2.8529,2.9422,3.0307,3.0859,3.0913,3.0913,3.0718,3.0234,2.9819,2.9389,2.8893,2.8119,2.7448,2.6921,2.5696,2.4429,2.3119,2.1611,0.0,0.0,0.0,0.0,0.0,0.0,0.0,0.0,0.0,0.0,0.0,0.0,0.0,0.0,0.0,0.0,0.0,0.0,0.0,0.0,0.0,0.0,0.0,0.0,0.0,0.0,0.0,0.0,3.3049,3.0729,0.0,2.6062,2.5889,2.6618,2.844,2.8503,2.8423,2.8315,3.0115,3.1483,3.2271,3.4104,3.5074,3.5074,3.4239,3.3646,3.3402,3.4267,3.5154,3.5967,3.5967,3.5967,3.5921,3.5077,3.4204,3.3347,3.2758,3.1504,2.9961,2.9961,2.9961,2.9961,2.9961,3.0664,3.1665,3.2289,3.2504,3.2328,3.125,3.0483,2.9858,2.9224,2.9062,2.918,2.9785,3.0424,3.103,3.1577,3.1749,3.1749,3.1749,3.187,3.2007,3.2007,3.187,3.1651,3.1338,3.0026,2.89,2.8723,2.824,2.8005,2.8404,2.8842,2.933,2.9916,3.0522,3.0913,3.0913,3.0913,3.0835,3.0664,2.9995,2.954,2.9369,2.8549,2.7884,2.7474,2.6719,2.5715,2.4449,2.3324,2.2063,0.0,0.0,0.0,0.0,0.0,0.0,0.0,0.0,0.0,0.0,0.0,0.0,0.0,0.0,0.0,0.0,0.0,0.0,0.0,0.0,0.0,0.0,0.0,0.0,0.0,2.6638,3.0228,3.433,3.2996,3.1507,3.0873,3.1486,3.2427,3.3666,3.2366,3.0838,2.9256,3.243,3.5042,3.6711,3.7992,3.9025,3.9734,3.7947,3.6106,3.4297,3.6154,3.7994,3.9734,3.9734,3.9734,3.9627,3.7822,3.5995,3.4281,3.4281,3.3617,3.2559,3.1973,3.1738,3.1738,3.1738,3.2461,3.3402,3.3402,3.3402,3.3226,3.2094,3.1738,3.1738,3.1738,3.1738,3.1738,3.1738,3.1738,3.1875,3.2441,3.2457,3.2335,3.2335,3.2374,3.2437,3.2574,3.2496,3.2398,3.2398,3.1279,3.0249,3.0039,2.9908,2.9869,3.0,3.0137,3.0385,3.0815,3.0996,3.1094,3.1094,3.0976,3.0913,3.0913,3.0092,2.9598,2.9598,2.8783,2.8177,2.7917,2.7474,2.6712,2.5571,2.4386,2.2917,2.111,0.0,0.0,0.0,0.0,0.0,0.0,0.0,0.0,0.0,0.0,0.0,0.0,0.0,0.0,0.0,0.0,0.0,0.0,0.0,0.0,0.0,0.0,0.0,2.5507,2.9192,3.2634,3.4559,3.4871,3.4895,3.4895,3.6771,3.7987,3.7987,3.5927,3.3615,3.122,3.5133,3.8641,4.1211,4.1307,4.2264,4.4276,4.1678,3.8946,3.6169,3.9012,4.1742,4.43,4.43,4.43,4.4145,4.1454,3.8665,3.5999,3.5999,3.5999,3.5842,3.4144,3.348,3.348,3.348,3.348,3.348,3.348,3.3461,3.3402,3.3402,3.3402,3.3402,3.3402,3.3402,3.3402,3.3402,3.3402,3.3402,3.3402,3.3008,3.2613,3.2613,3.273,3.293,3.3324,3.309,3.2812,3.2812,3.2246,3.1836,3.2124,3.1929,3.1851,3.2159,3.1816,0.0,3.214,3.1797,3.1528,3.1508,3.1152,3.0898,3.0913,3.0092,2.9598,2.9598,2.8764,2.8281,2.8281,2.7897,2.7272,2.6419,2.4699,2.2871,2.0987,0.0,0.0,0.0,0.0,0.0,0.0,0.0,0.0,0.0,0.0,0.0,0.0,0.0,0.0,0.0,0.0,0.0,0.0,0.0,0.0,0.0,2.7907,2.9938,2.9938,3.3596,3.5894,3.4919,3.6157,3.7108,3.7108,3.765,3.7987,3.7987,3.7998,3.7295,3.571,3.7628,4.0214,4.3357,4.3451,4.3724,4.43,4.2585,4.0858,3.9144,4.0906,4.2633,4.43,4.43,4.43,4.4145,4.1454,3.8665,3.5999,3.5999,3.5999,3.5959,3.5471,3.5296,3.5296,3.5296,3.5296,3.5296,3.5296,3.4456,3.3402,3.3402,3.3402,3.3402,3.3402,3.3402,3.3402,3.3402,3.3402,3.3402,3.3402,3.3285,3.3168,3.3168,3.3207,3.3265,3.3383,3.3304,3.3226,3.3226,3.307,3.2699,3.1953,3.2124,3.2378,3.2472,3.2203,3.2046,3.2179,3.2101,3.189,3.1548,3.1391,3.123,3.0918,3.0092,2.9598,2.9598,2.8503,2.7858,2.7858,2.7435,2.6934,2.6419,2.498,2.3766,0.0,0.0,0.0,0.0,0.0,0.0,0.0,0.0,0.0,0.0,0.0,0.0,0.0,0.0,0.0,0.0,0.0,0.0,0.0,0.0,0.0,0.0,3.0794,3.3007,3.3007,3.5894,3.753,3.629,3.7241,3.8348,3.9262,3.9334,3.9334,3.9334,3.9822,4.0165,4.0289,4.0996,4.2301,4.4221,4.43,4.43,4.43,4.3537,4.2767,4.1982,4.2759,4.3553,4.43,4.43,4.43,4.4145,4.1454,3.8665,3.6057,3.6797,3.7475,3.7917,0.0,0.0,0.0,0.0,3.5999,3.5999,3.5999,3.5335,3.4495,3.4495,3.4495,3.4359,3.3617,3.3402,3.3402,3.3402,3.3402,3.3402,3.3402,3.3675,3.3929,3.3929,3.3929,3.3929,3.3929,3.3929,3.3929,3.3929,3.3851,0.0,3.291,3.2871,3.2945,3.2945,3.2793,3.2711,3.2711,3.2554,3.2359,3.2055,3.1894,3.1621,3.1191,3.0542,0.0,0.0,0.0,2.8119,2.7956,2.7532,0.0,0.0,0.0,0.0,0.0,2.46,0.0,0.0,2.2658,2.315,0.0,0.0,0.0,0.0,0.0,0.0,0.0,0.0,0.0,0.0,0.0,0.0,0.0,0.0,0.0,0.0,3.3958,3.5208,3.5328,3.694,3.8083,3.8011,3.7987,3.8829,4.0994,4.1187,4.1187,4.1187,4.1427,4.2336,4.4204,4.43,0.0,0.0,0.0,4.43,4.43,4.4541,4.4661,4.4661,4.4661,4.4661,4.4661,4.4661,4.4661,4.452,4.1807,3.8979,3.6408,3.7967,3.966,4.0944,3.7591,3.624,3.6135,3.6038,3.5999,3.5999,3.5999,0.0,0.0,3.5999,3.5999,3.5706,3.4163,3.3679,3.3679,3.3679,3.3679,3.3679,3.3679,3.4261,3.4824,3.4766,3.4726,3.4707,3.4707,3.4707,3.4707,3.4707,3.4512,3.4355,3.4394,3.3965,3.3578,3.3519,3.348,3.3461,3.3422,3.3105,3.2851,3.2793,3.2476,0.0,3.1606,3.1152,3.0723,3.0307,2.94,2.8736,2.8379,2.7982,2.778,2.7839,2.7383,2.6689,2.5725,2.6911,2.6987,2.6041,2.5265,2.5476,0.0,0.0,0.0,0.0,0.0,0.0,0.0,0.0,0.0,0.0,0.0,0.0,0.0,0.0,0.0,3.6099,3.7121,3.7685,3.8537,3.8805,3.8674,3.8059,3.7987,3.8829,4.0994,4.1187,4.1187,4.1187,4.2745,4.3883,4.4276,4.43,4.43,4.43,4.43,4.43,4.43,4.6038,4.688,4.688,4.688,0.0,4.688,4.688,4.688,4.6732,4.3877,4.0906,3.8123,3.8456,4.0553,4.3192,3.947,3.7627,3.6973,3.6252,3.5999,3.5999,3.5999,3.5999,3.5999,3.5999,3.5999,3.594,3.5608,3.551,0.0,3.551,3.551,3.551,3.551,3.5628,3.5628,3.5212,3.4899,3.4707,3.4707,3.4707,3.4707,3.4707,3.4668,3.4723,3.4977,3.4919,3.4684,3.4199,3.4023,3.3844,3.3461,3.3344,3.3148,3.2832,3.273,3.2515,3.2085,3.1343,3.0874,3.0762,2.9576,2.8873,2.8795,2.8398,2.8353,2.8658,2.8262,2.7955,2.774,2.8298,2.8486,2.8276,2.7672,2.7527,0.0,0.0,0.0,0.0,0.0,0.0,0.0,0.0,0.0,0.0,0.0,2.8253,3.2478,0.0,3.5545,3.7663,3.7987,3.8179,3.8719,3.9575,4.0008,3.9647,3.9142,3.943,4.1042,4.2134,4.2745,4.2745,4.3715,4.43,4.43,4.43,4.4781,4.587,4.5902,4.5902,4.5902,4.6952,4.7497,4.7497,4.7497,4.7497,4.7497,4.7497,4.7497,4.7331,4.444,4.2339,4.09,4.0859,4.1954,4.347,4.1552,4.0059,3.8824,3.7378,3.668,3.6484,3.6604,3.6643,3.6565,3.6135,3.5999,3.5999,3.5999,3.5999,3.5999,3.5999,3.5999,3.5999,3.5999,3.5999,3.592,3.5664,3.5469,3.5335,3.5335,3.5335,3.5335,3.5335,3.5335,3.5393,3.5566,3.5586,3.5351,3.4609,3.4062,3.3656,3.3441,3.3402,3.3324,3.3109,3.309,3.293,3.2535,3.191,3.1362,3.0932,3.0273,2.9707,2.9272,2.9057,2.9037,2.9252,2.9057,2.9057,2.9238,2.9687,3.0005,3.0186,3.0175,2.993,0.0,0.0,0.0,0.0,0.0,0.0,0.0,2.3424,2.4515,2.833,3.0818,3.3476,3.7302,3.7987,3.7987,3.7987,3.8348,3.854,3.8348,3.9791,4.097,4.1187,4.0427,4.0403,4.1677,4.3306,4.43,4.43,4.43,4.43,4.43,4.47,4.571,4.7449,4.7497,4.7497,4.7497,4.7497,4.7497,4.7497,4.7497,4.7497,4.7497,4.7497,4.7497,4.7331,4.444,4.3267,4.3367,4.3271,4.3236,4.3254,4.3532,4.2799,4.1357,3.9186,3.8043,3.7564,3.7702,3.7742,3.7626,3.6846,3.6543,3.6401,3.6091,3.5999,3.5999,3.5999,3.5999,3.5999,3.5999,3.5999,3.5999,3.5999,3.5999,3.5999,3.5999,3.5999,3.5999,3.5999,3.5999,3.5999,3.5999,3.5999,3.5725,3.4922,3.4297,3.3871,3.3754,3.3695,3.3656,3.3656,3.3578,3.334,3.2832,3.2496,3.1968,3.1206,3.1147,3.0835,3.0126,3.0121,3.0121,3.0121,3.0121,3.0249,3.06,3.0972,3.1323,3.166,3.2105,3.1905,2.2229,2.3881,2.6286,2.7767,2.8691,2.8965,0.0,2.7801,2.8474,3.0853,3.2996,3.5172,3.7554,3.7987,3.7987,3.7987,3.9599,4.0513,3.9561,3.9633,4.0138,4.109,4.109,4.1798,4.3748,4.4156,4.43,4.43,4.43,4.43,4.43,4.611,4.7257,4.7497,4.7497,4.7497,4.7497,4.7497,4.7497,4.7497,4.7497,4.7497,4.7497,4.7497,4.7497,4.7331,4.444,4.3502,4.3984,4.3816,4.3735,4.3861,4.5102,4.5255,4.4483,4.1925,4.0504,3.9786,3.945,3.9344,3.9271,3.8803,3.8419,3.7862,3.6438,3.5999,3.5999,3.5999,3.5999,3.5999,3.5999,3.5999,3.5999,3.5999,3.5999,3.5999,3.5999,3.5999,3.5999,3.5999,3.5999,3.5999,3.5999,3.5999,3.582,3.5231,3.5469,3.5547,3.5056,3.4743,3.4551,3.4551,3.4219,3.3688,3.2871,3.2769,3.2535,3.2081,3.2061,3.2022,3.1905,3.1905,3.1905,3.1905,3.1905,3.1925,3.1983,3.2022,3.2081,3.214,3.2535,3.2496,2.4515,2.5772,2.7527,2.9051,3.0251,3.1021,3.0965,3.207,3.3176,3.3452,3.5184,3.694,3.7819,3.7987,3.7987,3.7987,3.8757,3.9623,4.0417,4.0537,4.0705,4.1139,4.1816,4.308,4.5246,4.5468,4.5147,4.4362,4.43,4.5204,4.7268,4.8237,4.8731,4.8731,4.8731,4.8731,4.8731,4.8731,4.8731,4.8731,4.8731,4.8731,4.8731,4.8731,4.8731,4.8665,4.7457,4.6358,4.5475,4.5813,4.5786,4.5606,4.6271,4.6288,4.5702,4.3759,4.2531,4.1806,4.1631,4.1584,4.1437,4.0611,3.9938,3.9208,3.782,3.7104,3.6758,3.6758,3.6758,3.6758,3.6758,3.6758,3.6758,3.6758,3.6758,3.6758,3.6758,3.6758,3.6758,3.6758,3.6758,3.6758,3.6758,3.6641,3.6328,3.5742,3.5859,3.582,3.5287,3.5092,3.4919,3.4726,3.4547,3.4215,3.361,3.3551,3.3258,3.2593,3.2554,3.2437,3.2218,3.2198,3.2198,3.2198,3.2198,3.2316,3.2554,3.2773,3.3043,3.3313,3.3727,3.3809,2.6574,2.7657,2.8907,3.0216,3.1454,3.2502,3.3141,3.4667,3.5917,3.5725,3.6916,3.8179,3.8757,3.8877,3.8877,3.8877,3.8877,3.943,4.097,4.1187,4.1316,4.1659,4.3002,4.4543,4.6135,4.6286,4.5742,4.4393,4.5204,4.6904,4.9466,4.959,4.959,4.959,4.959,4.959,4.959,4.959,4.959,4.959,4.959,4.959,4.959,4.959,4.959,4.959,4.959,4.8722,4.7333,4.7862,4.7886,4.7556,4.7547,4.7248,4.6707,4.564,4.4556,4.3621,4.3621,4.3621,4.3456,4.2418,4.16,4.0766,3.9583,3.8693,3.8059,3.7834,3.7689,3.7566,3.7498,3.7393,3.7305,3.7305,3.7305,3.7305,3.7305,3.7305,3.7305,3.7305,3.7305,3.7324,3.7402,3.7246,3.6973,3.6526,3.6467,3.6194,3.5525,3.5427,3.529,3.4922,3.4883,3.4707,3.4293,3.4271,3.4,3.3359,3.332,3.3184,3.2887,3.2902,3.2902,3.2902,3.2902,3.3023,3.332,3.3617,3.3926,3.4274,3.4551,3.4824,2.8142,2.9591,3.0925,3.1513,3.2803,3.4066,3.4607,3.4799,3.5424,3.7482,3.7939,3.865,4.0705,4.109,4.109,4.109,4.109,4.1114,4.1187,4.1187,4.1631,4.2818,4.488,4.6225,4.6286,4.6286,4.5742,4.4393,4.7495,4.9482,4.959,4.959,4.959,4.959,4.959,4.959,4.959,4.959,4.959,4.959,4.959,4.959,4.959,4.959,4.959,4.959,4.959,4.9558,4.9509,4.9525,4.9525,4.9461,4.9007,4.8469,4.7944,4.7911,4.6757,4.5239,4.5239,4.5239,4.5119,4.436,4.3618,4.2796,4.167,4.0756,3.9953,3.9169,3.8665,3.8302,3.7955,3.7586,3.7305,3.7305,3.7305,3.7305,3.7305,3.7305,3.7305,3.7305,3.7305,3.7383,3.7637,3.7676,3.7676,3.7656,3.7656,3.7246,3.6116,3.5979,3.5823,3.541,3.5388,3.5176,3.4726,3.4687,3.4668,3.4648,3.4648,3.4629,3.4629,3.4629,3.4629,3.4629,3.4629,3.4629,3.4648,3.4648,3.4668,3.4687,3.4687,3.5156,2.9727,3.1223,3.2825,3.3358,3.4281,3.5268,3.6074,3.6255,3.6592,3.7746,3.7987,3.8203,3.8949,4.0248,4.1187,4.1187,4.1187,4.1677,4.3057,4.4025,4.4739,4.5152,4.5849,4.6286,4.6286,4.6286,4.6105,4.5666,4.8083,4.959,4.959,4.959,4.959,4.959,4.959,4.959,4.959,4.959,4.959,4.959,4.959,4.959,4.959,4.959,4.959,4.959,4.959,4.959,4.959,4.959,5.0058,5.0695,5.0254,4.9694,4.9137,4.9137,4.8572,4.7722,4.7018,4.6764,4.6647,4.59,4.5165,4.4401,4.3523,4.2696,4.1901,4.1179,4.0506,3.9835,3.9254,3.863,3.8162,3.8162,3.8162,3.8162,3.8162,3.8162,3.8162,3.8162,3.8162,3.8202,3.828,3.8299,3.8184,3.7873,3.7383,3.6892,3.6521,3.6191,3.594,3.5803,3.5784,3.5625,3.5195,3.5156,3.5019,3.4726,3.4707,3.4707,3.4707,3.4707,3.4707,3.4707,3.4707,3.4707,3.4707,3.5019,3.5156,3.5176,3.5759,3.6189,3.0943,3.2627,3.4287,3.4497,3.5343,3.6218,3.6688,3.7086,3.7471,3.7904,3.7987,3.7987,3.7987,3.9131,4.0297,4.1066,4.1822,4.2933,4.4768,4.5757,4.6286,4.6286,4.6286,4.6286,4.6286,4.6286,4.6286,4.6286,4.836,4.959,4.959,4.959,4.959,4.959,4.959,4.959,4.959,4.959,4.9791,5.0209,5.0594,5.0368,4.959,4.959,4.959,4.959,4.959,4.959,4.9665,5.0444,5.1222,5.185,5.1599,5.0828,4.9876,4.9876,4.9553,4.9005,4.8308,4.805,4.7974,4.7377,4.6759,4.6155,4.5553,4.4907,4.4262,4.3564,4.2785,4.1964,4.1067,4.0179,3.9445,3.9255,3.9052,3.8925,3.9042,3.8827,3.8592,3.8592,3.8749,3.8809,3.8631,3.8592,3.8495,3.8203,3.7559,3.7088,3.6931,3.6641,3.6467,3.6467,3.6348,3.6152,3.5896,3.5876,3.5739,3.543,3.5547,3.5625,3.5625,3.5505,3.5427,3.5427,3.5254,3.5254,3.5427,3.572,3.5935,3.6094,3.6658,3.699,3.1853,3.3911,3.5441,3.5126,3.61,3.7015,3.6579,3.7265,3.7987,3.7987,3.7987,3.7939,3.7722,3.7843,3.8709,4.085,4.2997,4.4856,4.612,4.6286,4.6286,4.6286,4.6336,4.6386,4.6386,4.6386,4.6386,4.6386,4.8385,4.959,4.959,4.959,4.959,4.959,4.959,4.959,4.959,4.9715,5.0268,5.1314,5.2385,5.1808,4.9766,4.9766,4.9766,4.9766,4.9766,4.9766,4.9916,5.2034,5.2895,5.2895,5.2895,5.1816,5.0296,5.0296,4.9813,4.9174,4.9174,4.915,4.905,4.8724,4.8355,4.7992,4.7679,4.7312,4.6874,4.6133,4.5328,4.4449,4.3294,4.208,4.1,4.0424,3.9844,3.9532,3.9883,3.9315,3.8729,3.8729,3.9101,3.9259,3.8749,3.865,3.8631,3.8631,3.8242,3.7795,3.7383,3.7305,3.7305,3.7305,3.6951,3.6716,3.6716,3.6716,3.6716,3.6716,3.7088,3.7305,3.7305,3.6931,3.6716,3.6716,3.6289,3.6289,3.6716,3.6716,3.6931,3.7305,3.7324,3.7559,3.3875,3.5694,3.7444,3.7885,3.8511,3.8759,3.7812,3.7795,3.7987,3.7987,3.7987,3.7038,3.3897,3.5882,3.8709,4.085,4.3772,4.5908,4.624,4.6286,4.6286,4.6286,4.7014,4.749,4.749,4.749,4.749,4.749,4.8812,4.959,4.959,4.959,4.959,4.959,4.959,4.959,4.959,5.123,5.1783,5.1314,5.2385,5.2594,5.2059,5.2059,5.2059,5.2059,5.2059,5.2059,5.2109,5.2686,5.2895,5.2895,5.2895,5.2289,5.1385,5.1385,5.0934,5.0287,5.0287,4.9775,4.9102,4.8999,4.8913,4.8786,4.8724,4.8614,4.839,4.7661,4.6904,4.5982,4.4539,4.3085,4.167,4.0329,3.9878,3.9961,4.0703,4.0683,4.0546,4.0546,4.0117,3.9726,3.959,3.9277,3.9043,3.9043,3.869,3.8262,3.7795,3.75,3.7305,3.7305,3.7207,3.7166,3.7166,3.7166,3.7166,3.7166,3.7246,3.7305,3.7305,3.7187,3.7166,3.7166,3.7031,3.7031,3.7166,3.7166,3.7187,3.7305,3.7617,3.7988,3.5215,3.7791,4.006,3.9488,3.9717,4.0073,4.0188,3.9438,3.8749,3.8749,3.7203,3.5002,3.2218,3.516,3.8897,4.1573,4.4406,4.6286,4.6286,4.6286,4.6662,4.7616,4.7832,4.8109,4.8611,4.8661,4.8661,4.8661,4.9238,4.959,4.959,4.959,4.959,4.959,4.959,5.0067,5.1046,5.2285,5.2611,5.2026,5.2611,5.2895,5.2895,5.2895,5.2895,5.2895,5.2895,5.2895,5.2895,5.2895,5.2895,5.2895,5.2895,5.2567,5.2064,5.2064,5.1569,5.0919,5.0919,5.0572,5.0112,4.9895,4.9799,4.9799,4.9799,4.9799,4.9678,4.9101,4.8492,4.7749,4.6352,4.4968,4.3475,4.1608,4.0812,4.0605,4.1094,4.1191,4.1191,4.1191,4.0605,4.0098,4.0156,3.9805,3.9512,3.9512,3.9139,3.8788,3.8497,3.8125,3.7869,3.7869,3.7695,3.756,3.756,3.756,3.756,3.756,3.7754,3.7869,3.7869,3.7676,3.756,3.756,3.7383,3.7383,3.756,3.756,3.7773,3.8144,3.8379,3.873,3.6387,3.9848,4.2523,4.0614,4.0282,4.0861,4.2602,4.1518,3.9886,3.9007,3.5767,3.281,3.1882,3.5041,3.8847,4.2046,4.4669,4.6286,4.6286,4.6386,4.7154,4.9088,4.8535,4.841,4.9405,4.9565,4.959,4.959,4.959,4.959,4.959,4.959,4.9715,5.0017,5.0042,5.0954,5.287,5.2895,5.2895,5.2895,5.2895,5.2895,5.2895,5.2895,5.2895,5.2895,5.2895,5.2895,5.2895,5.2895,5.2895,5.2895,5.2895,5.2705,5.2412,5.2486,5.1999,5.1315,5.1406,5.1498,5.1531,5.0984,5.0864,5.0912,5.0912,5.0912,5.0841,5.0479,5.0133,4.963,4.8506,4.7302,4.5847,4.3833,4.2318,4.1367,4.1367,4.1328,4.1308,4.1308,4.0839,4.0449,4.0567,4.0254,3.998,3.998,3.959,3.9297,3.9297,3.8885,3.8592,3.8592,3.8242,3.799,3.799,3.799,3.799,3.799,3.8359,3.8592,3.8592,3.8223,3.799,3.799,3.7656,3.7676,3.8068,3.8068,3.8478,3.9297,3.9297,3.9551,3.8567,4.1016,4.2914,4.2523,4.1112,4.0395,4.2509,4.2699,4.0865,3.5376,3.3643,3.281,3.1882,3.4429,3.7479,3.9872,4.3664,4.6286,4.6286,4.6813,4.7355,4.7732,4.83,4.8727,4.8919,4.933,4.959,4.959,4.959,4.959,4.959,4.959,5.0444,5.2285,5.2335,5.2511,5.2895,5.2895,5.2895,5.2895,5.2895,5.2895,5.2895,5.2895,5.2895,5.2895,5.2895,5.2895,5.2895,5.2895,5.2895,5.2895,5.2895,5.2705,5.2461,5.2891,5.2548,5.1923,5.2421,5.2429,5.2085,5.1555,5.1676,5.2013,5.2013,5.2013,5.1994,5.194,5.1867,5.1631,5.0741,4.9346,4.7839,4.6564,4.4196,4.2187,4.2187,4.2011,4.1855,4.1855,4.1406,4.1054,4.1074,4.0703,4.0391,4.0391,4.0039,3.9766,3.9766,3.91,3.8592,3.8592,3.8534,3.8475,3.8475,3.8475,3.8475,3.8475,3.8553,3.8592,3.8592,3.8514,3.8475,3.8475,3.8416,3.8573,3.8966,3.8966,3.9258,3.9766,3.9766,4.0,4.0489,4.2171,4.3014,4.3014,4.2197,4.1393,4.1292,3.9484,3.6476,3.1692,3.0725,3.0725,3.0714,3.2899,3.5778,3.9157,4.2448,4.497,4.615,4.7104,4.7732,4.7958,4.8451,4.8919,4.9179,4.9455,4.9715,4.9992,5.0117,4.9992,4.9615,5.0695,5.1808,5.2887,5.2895,5.2895,5.2895,5.2895,5.2895,5.2895,5.2895,5.3096,5.3464,5.3088,5.2895,5.2895,5.2895,5.2895,5.2895,5.2895,5.3138,5.3472,5.3472,5.3503,5.3581,5.3813,5.3559,5.3067,5.3356,5.3374,5.326,5.2992,5.2629,5.2301,5.2301,5.2301,5.2301,5.2301,5.2301,5.2149,5.1558,5.1097,5.0313,4.8353,4.5597,4.3261,4.2542,4.2304,4.2207,4.2207,4.1836,4.1523,4.1523,4.1152,4.0859,4.0859,4.043,4.0098,4.0098,3.9726,3.9433,3.9296,3.9276,3.9276,3.9276,3.9276,3.9276,3.9276,3.9276,3.9276,3.9276,3.9276,3.9276,3.9276,3.9276,3.9355,3.9551,3.9551,3.9902,4.0585,4.0585,4.0898,4.206,4.3014,4.3014,4.3014,4.2624,4.1845,4.0112,3.6646,3.2803,2.9244,2.8512,2.8781,2.9634,3.1607,3.4246,3.7726,4.0137,4.2674,4.5874,4.7164,4.7933,4.8335,4.8727,4.9129,4.9565,4.969,4.9941,5.0377,5.072,5.0745,5.0318,5.1958,5.2895,5.2895,5.2895,5.2895,5.2895,5.2895,5.2895,5.2895,5.2895,5.3196,5.3766,5.3322,5.3046,5.2895,5.2895,5.2895,5.2895,5.3071,5.349,5.4017,5.4092,5.431,5.4622,5.4723,5.4506,5.4191,5.4315,5.436,5.4359,5.4261,5.3552,5.2742,5.2742,5.2669,5.2638,5.2638,5.2638,5.2541,5.2228,5.2591,5.2227,4.9099,4.6544,4.4418,4.2977,4.2616,4.2538,4.2538,4.2207,4.1933,4.1933,4.1621,4.1367,4.1367,4.0859,4.0488,4.0488,4.0488,4.041,4.0195,4.0,3.9902,3.9902,3.9902,3.9902,3.9902,3.9902,3.9902,3.9902,3.9902,3.9902,3.9902,3.9902,3.9941,4.0039,4.0117,4.0566,4.1328,4.1426,4.1797,4.2889,4.3014,4.3014,4.3014,4.1493,3.9948,3.976,3.7838,3.4635,2.9544,2.8512,2.8781,2.9634,3.1607,3.3241,3.3643,3.5564,3.917,4.5407,4.6979,4.7566,4.7917,4.8887,4.9556,4.9606,5.0042,5.0352,5.0402,5.1197,5.195,5.2561,5.2795,5.2895,5.2895,5.2895,5.2895,5.2895,5.2895,5.2895,5.2895,5.2895,5.2937,5.302,5.3623,5.3522,5.2895,5.2895,5.2895,5.2945,5.3615,5.3941,5.4042,5.4403,5.4572,5.4672,5.5157,5.5081,5.4794,5.5291,5.5213,5.4874,5.4516,5.43,5.4195,5.4195,5.3958,5.3659,5.3659,5.3659,5.3659,5.3622,5.3664,5.2622,4.8295,4.6683,4.5656,4.3944,4.3281,4.3048,4.3048,4.2656,4.2343,4.2343,4.2109,4.1933,4.1933,4.1465,4.1113,4.1113,4.1113,4.1113,4.1074,4.0371,3.9902,3.9902,3.9902,3.9902,3.9902,3.9902,3.9902,3.9902,3.9902,3.9902,3.9902,3.9902,4.0078,4.045,4.0859,4.1308,4.1758,4.2109,4.2324,4.2818,4.3014,4.3014,4.3014,4.1343,3.9697,3.9697,3.6959,3.3277,2.9316,2.8512,2.8781,2.9634,3.0517,3.0933,3.0423,3.3748,3.78,4.1756,4.4855,4.6677,4.6476,4.7707,4.8711,4.9079,4.959,5.0343,5.1348,5.2076,5.2586,5.287,5.2895,5.2895,5.2895,5.2895,5.2895,5.2895,5.2895,5.2895,5.2895,5.2895,5.3063,5.3364,5.3364,5.354,5.3884,5.3557,5.3582,5.3951,5.4253,5.4536,5.4863,5.5031,5.5282,5.5591,5.5792,5.5783,5.5681,5.5887,5.5705,5.5337,5.5164,5.4794,5.4341,5.4122,5.3935,5.3803,5.3803,5.3803,5.3803,5.3803,5.3257,5.2073,4.9528,4.8168,4.7051,4.5576,4.5129,4.5028,4.5028,4.4442,4.388,4.3659,4.3081,4.2565,4.2285,4.2246,4.209,4.1738,4.1992,4.2207,4.2207,4.1308,4.0683,4.0683,4.0683,4.0683,4.0683,4.0683,4.0683,4.0683,4.0683,4.08,4.1035,4.1035,4.125,4.164,4.1816,4.2148,4.2598,4.2734,4.2949,4.2493,4.3014,4.3014,4.3014,4.1343,3.9358,3.8052,3.5108,3.1889,2.9086,2.8993,2.9621,3.0256,3.0588,3.0627,3.0188,3.3653,3.7248,3.9685,4.2886,4.4995,4.501,4.6426,4.7581,4.8024,4.9138,5.0544,5.2209,5.2686,5.2895,5.2895,5.2895,5.2895,5.2895,5.2895,5.2895,5.2895,5.2895,5.2895,5.2895,5.2895,5.3113,5.3439,5.3314,5.3632,5.4303,5.4077,5.4202,5.4622,5.4773,5.5056,5.5433,5.5566,5.5867,5.62,5.62,5.62,5.62,5.62,5.5944,5.5577,5.5466,5.4961,5.4341,5.4066,5.3991,5.3991,5.3991,5.4066,5.4122,5.401,5.3181,5.2035,5.0756,4.9609,4.8446,4.729,4.7029,4.7029,4.7029,4.6337,4.5589,4.5067,4.402,4.3176,4.2813,4.2851,4.2715,4.2187,4.2402,4.2676,4.2754,4.2031,4.1543,4.1543,4.1543,4.1543,4.1543,4.1543,4.1543,4.1543,4.1543,4.168,4.1953,4.1992,4.2109,4.2402,4.2538,4.2773,4.3106,4.336,4.3691,4.2108,4.3014,4.3014,4.3014,4.1343,3.8542,3.417,3.2411,3.1104,2.8955,3.0192,3.1658,3.1669,3.2424,3.3264,3.3841,3.5326,3.7423,4.0363,4.1468,4.2423,4.3664,4.5296,4.6311,4.6311,4.8796,5.108,5.2787,5.2895,5.2895,5.2895,5.2895,5.2895,5.2895,5.2895,5.2895,5.2895,5.2895,5.2895,5.2895,5.2895,5.2895,5.292,5.3665,5.3891,5.3733,5.4328,5.4597,5.4647,5.5182,5.5408,5.544,5.5993,5.6219,5.62,5.62,5.62,5.62,5.62,5.5944,5.554,5.5133,5.4719,5.4397,5.4397,5.4378,5.4378,5.4378,5.4682,5.4911,5.4515,5.3798,5.2869,5.1582,5.0656,4.9841,4.8954,4.8776,4.8776,4.8776,4.8125,4.731,4.6425,4.4822,4.3691,4.3691,4.3242,4.2773,4.2441,4.2167,4.2109,4.2382,4.2402,4.2402,4.2402,4.2402,4.2402,4.2402,4.2402,4.2402,4.2402,4.2402,4.2402,4.2402,4.2402,4.2402,4.2402,4.2851,4.3087,4.3126,4.3984,4.4609,4.0675,4.1773,4.1972,4.2804,4.2473,4.0604,3.5439,3.2935,3.1093,2.8955,3.0203,3.1706,3.1706,3.2201,3.3041,3.4266,3.5548,3.7072,3.9019,4.079,4.2222,4.3151,4.5698,4.7842,4.8997,5.0268,5.1548,5.2795,5.2895,5.2895,5.2895,5.2895,5.2895,5.2895,5.2895,5.2895,5.2895,5.2895,5.2895,5.2895,5.2895,5.3088,5.3439,5.3708,5.4185,5.4863,5.5056,5.5358,5.5691,5.5892,5.5942,5.5968,5.6125,5.62,5.62,5.62,5.62,5.62,5.62,5.6194,5.6123,5.5992,5.5959,5.5971,5.5971,5.525,5.4453,5.4719,5.4701,5.457,5.4416,5.3798,5.3049,5.2336,5.1785,5.1246,5.0701,5.0374,5.0082,4.9746,4.8783,4.7651,4.6507,4.5352,4.439,4.3793,4.3555,4.3418,4.33,4.3202,4.3183,4.328,4.3301,4.3144,4.2773,4.2754,4.2636,4.2421,4.2402,4.2402,4.2402,4.2402,4.2538,4.2871,4.2871,4.3164,4.3769,4.3906,4.4121,4.4414,4.4666,4.4881,3.7637,3.8203,3.7799,3.854,3.903,3.8355,3.4486,3.2309,3.0708,2.9388,3.0264,3.1382,3.1658,3.2069,3.2854,3.4198,3.5338,3.6696,3.8454,4.0425,4.2384,4.4317,4.6336,4.8419,5.0544,5.1088,5.1749,5.2837,5.2895,5.2895,5.2895,5.2895,5.2895,5.2895,5.2895,5.2895,5.2895,5.2895,5.2895,5.2895,5.3188,5.3439,5.3733,5.4343,5.4913,5.5408,5.5616,5.5892,0.0,5.62,5.62,5.62,5.62,5.62,5.62,5.62,5.62,5.6226,5.6426,5.645,5.6439,5.6657,5.6823,5.6924,5.6924,5.6266,5.5556,5.5762,5.565,5.5406,5.5086,5.4632,5.4138,5.3732,5.3488,5.3219,5.2964,5.2465,5.1839,5.1209,4.9926,4.8486,4.7007,4.5922,4.4978,4.411,4.3808,4.3711,4.3711,4.3711,4.3711,4.3711,4.3711,4.3711,4.369,4.3398,4.3125,4.289,4.3046,4.3144,4.3144,4.33,4.3457,4.3595,4.373,4.4004,4.4394,4.4551,4.4844,4.5252,4.5252,4.5351,0.0,3.3044,3.1706,3.1706,3.2345,3.2694,3.1706,3.0756,0.0,3.0,3.0302,3.0807,3.1562,3.2118,3.2793,3.3798,3.4868,3.6334,3.8592,4.0412,4.2944,4.6772,4.7249,4.8344,5.1088,5.1364,5.1774,5.2837,5.2895,5.2895,5.2895,5.2895,5.2895,5.2895,5.2895,5.2895,5.2895,5.2895,5.2937,5.2962,5.3665,5.3916,5.3884,5.5422,5.5892,5.5465,5.5993,5.62,5.62,5.62,5.62,5.62,5.62,5.6226,5.6251,5.6251,5.6276,5.6376,5.6885,5.6844,5.6669,5.7273,5.7466,5.7466,5.7466,5.7391,5.7323,5.7228,5.7171,5.6981,5.6204,5.5993,5.5853,5.5506,5.539,5.5347,5.5308,5.4589,5.3688,5.2706,5.119,4.9508,4.7714,4.645,4.5397,4.4559,4.4082,4.3789,4.3789,4.3789,4.3789,4.3769,4.3769,4.4121,4.4959,4.4256,4.3789,4.3789,4.4199,4.4433,4.4433,4.4803,4.4822,4.4453,4.4842,4.4883,4.4492,4.4901,4.5332,4.5744,4.5744,4.5937,2.9704,0.0,3.1706,3.1706,3.0649,2.9546,0.0,2.9687,2.988,2.9051,2.9581,3.0529,3.1513,3.2419,3.3184,3.3689,3.5134,3.6833,3.8642,4.1731,4.4955,4.8049,4.8761,4.9791,5.1724,5.19,5.2201,5.2845,5.2895,5.2895,5.2895,5.2895,5.2895,5.2895,5.2895,5.2895,5.2895,5.2895,5.3113,5.349,5.3708,5.421,5.5013,5.539,5.5742,5.6018,5.6168,5.62,5.62,5.62,5.62,5.62,5.62,5.6451,5.6809,5.6809,5.7104,5.7524,5.765,5.7901,5.8232,5.8796,5.8972,5.8972,5.8972,5.8395,5.7669,5.7329,5.6981,5.6644,5.6127,5.5757,5.5525,5.5429,5.5158,5.4847,5.4472,5.3471,5.228,5.1031,4.9692,4.8294,4.6816,4.6084,4.5497,4.4946,4.4764,4.4686,4.4686,4.4686,4.4629,4.4415,4.4396,4.4629,4.5252,4.494,4.4686,4.4686,4.4803,4.4862,4.4862,4.4959,4.4959,4.4862,4.5312,4.549,4.5392,4.5801,4.6055,4.6152,4.6152,4.6211,2.8512,2.9711,3.1069,3.1586,3.0577,2.9378,2.9062,2.9374,2.9677,2.9498,2.9687,3.0237,3.1465,3.2153,3.3004,3.4464,3.5655,3.7599,4.1041,4.3765,4.6527,4.9581,5.0209,5.0921,5.2335,5.246,5.2586,5.2887,5.2895,5.2895,5.2895,5.2895,5.2895,5.2895,5.2895,5.2895,5.2895,5.2895,5.3163,5.3708,5.3976,5.4579,5.5408,5.5641,5.5942,5.62,5.62,5.62,5.62,5.62,5.62,5.6226,5.6477,5.6734,5.7035,5.7305,5.7606,5.7926,5.8177,5.861,5.9112,5.9408,5.9483,5.9483,5.9483,5.9081,5.8534,5.8088,5.7819,5.7511,5.6897,5.6585,5.6366,5.617,5.5659,5.5047,5.4324,5.302,5.1494,4.9945,4.8756,4.7679,4.6507,4.5963,4.561,4.5375,4.5135,4.4998,4.4998,4.4998,4.4979,4.498,4.4961,4.5195,4.576,4.5681,4.5428,4.5037,4.5193,4.5312,4.5312,4.5508,4.5584,4.5584,4.5644,4.5803,4.5998,4.6191,4.6308,4.6308,4.6482,4.6582,2.8705,2.9656,3.0783,3.15,3.1227,3.0591,2.9852,2.9543,2.9581,3.0171,2.9831,2.99,3.1417,3.1706,3.2628,3.5524,3.6691,3.8982,4.4027,4.5859,4.7832,5.0937,5.1364,5.18,5.2795,5.2895,5.2895,5.2895,5.2895,5.2895,5.2895,5.2895,5.2895,5.2895,5.2895,5.2895,5.2895,5.2895,5.3213,5.3833,5.4353,5.4906,5.5559,5.5993,5.62,5.62,5.62,5.62,5.62,5.62,5.6251,5.6376,5.6809,5.7111,5.7311,5.7832,5.8077,5.8202,5.866,5.9131,5.9483,5.9483,5.9483,5.9483,5.9483,5.9483,5.9431,5.9023,5.8906,5.8711,5.7828,5.7592,5.7493,5.71,5.6378,5.553,5.4653,5.2909,5.0991,4.921,4.818,4.7336,4.6442,4.6037,4.5803,4.5803,4.5449,4.5193,4.5193,4.5193,4.5291,4.5525,4.5545,4.574,4.6269,4.6308,4.5974,4.5252,4.5566,4.5803,4.5803,4.6113,4.6308,4.6308,4.5979,4.5998,4.6406,4.6406,4.6426,4.6504,4.6833,4.7009,2.9615,3.1296,3.2627,3.188,3.161,3.1262,3.0251,3.0,2.9759,2.8969,2.8729,2.9292,3.1321,3.1706,3.2706,3.583,3.8994,4.2046,4.4959,4.7119,4.9129,5.1063,5.1699,5.2226,5.2837,5.2895,5.2895,5.2895,5.2895,5.2895,5.2895,5.2895,5.2895,5.2895,5.2895,5.2895,5.2895,5.2895,5.3432,5.4454,5.4572,5.5107,5.6093,5.615,5.62,5.62,5.62,5.62,5.62,5.62,5.6477,5.6885,5.696,5.7606,5.8459,5.8535,5.8861,5.9257,5.9357,5.9433,5.9483,5.9483,5.9483,5.9483,5.9483,5.9483,5.9431,5.9023,5.8906,5.8711,5.7828,5.7592,5.7493,5.71,5.6518,5.5872,5.5287,5.2744,5.0146,4.8545,4.7704,4.7054,4.6418,4.625,4.6211,4.6211,4.6152,4.6113,4.6113,4.6113,4.6133,4.6172,4.6172,4.6211,4.6289,4.6308,4.625,4.6113,4.6172,4.6211,4.6211,4.6269,4.6308,4.6308,4.623,4.6406,4.6814,4.6814,4.6989,4.7405,4.7441,4.748,2.9807,3.1377,3.3075,3.4694,3.4268,3.3186,3.2293,3.1704,3.098,2.9642,2.9364,2.9855,3.1417,3.3085,3.5895,4.0924,4.2498,4.3955,4.6451,4.7948,4.9531,5.1498,5.195,5.231,5.2862,5.2895,5.2895,5.2895,5.2895,5.2895,5.2895,5.2895,5.2895,5.2895,5.2895,5.3038,5.3314,5.3339,5.3758,5.4597,5.4881,5.5458,5.62,5.62,5.62,5.62,5.62,5.62,5.6226,5.6502,5.6778,5.706,5.7663,5.8259,5.8736,5.9012,5.9282,5.9483,5.9483,5.9483,5.9483,5.9483,5.9483,5.9483,5.9483,5.9483,5.9431,5.9023,5.8906,5.877,5.8148,5.7971,5.7932,5.7734,5.6877,5.5829,5.4957,5.287,5.0443,4.8071,4.7139,4.6638,4.6352,4.6308,4.6308,4.6308,4.6308,4.6308,4.6308,4.6308,4.6308,4.6308,4.6308,4.6308,4.6308,4.6308,4.6308,4.6308,4.6308,4.6308,4.6308,4.6523,4.6618,4.6618,4.6875,4.709,4.7285,4.7285,4.7383,4.76,4.7812,4.791,2.9663,3.1016,3.2899,3.5865,0.0,3.4703,3.4013,3.32,3.2364,3.156,3.1409,3.1854,3.33,3.6378,4.0539,4.6175,4.6265,4.6215,4.7883,4.8953,5.0209,5.19,5.2209,5.246,5.2845,5.2895,5.2895,5.2895,5.2895,5.2895,5.2895,5.2895,5.2895,5.2895,5.302,5.3289,5.3708,5.3959,5.4328,5.4798,5.5207,5.5666,5.62,5.62,5.62,5.62,5.62,5.6276,5.6426,5.6835,5.7161,5.7487,5.8359,5.8786,5.8936,5.9357,5.9483,5.9483,5.9483,5.9483,5.9483,5.9483,5.9483,5.9483,5.9483,5.9483,5.9431,5.9023,5.8906,5.8809,5.8384,5.8364,5.8423,5.833,5.7458,5.6374,5.5439,5.4084,5.1956,4.833,4.6922,4.6308,4.6308,4.6308,4.6308,4.6308,4.6308,4.6308,4.6308,4.6308,4.6308,4.6308,4.6308,4.6308,4.6308,4.6426,4.6504,4.6504,4.6465,4.6504,4.6601,4.6892,4.7067,4.7067,4.7402,4.7659,4.7757,4.7757,4.7796,4.7913,4.8226,4.8359,2.9196,3.0707,3.2173,3.2461,3.3675,3.4659,3.4114,3.3539,0.0,3.5006,3.5287,3.6072,3.8654,4.2668,4.6426,4.8937,4.9857,4.9882,4.8894,5.0535,5.1925,5.2076,5.2536,5.2845,5.2895,5.2895,5.2895,5.2895,5.2895,5.2895,5.2895,5.2895,5.2895,5.2895,5.3364,5.3658,5.3708,5.4755,5.5308,5.5358,5.5383,5.5666,5.62,5.62,5.62,5.62,5.62,5.6477,5.6935,5.6985,5.7612,5.8585,5.866,5.8987,5.9433,5.9483,5.9483,5.9483,5.9483,5.9483,5.9483,5.9483,5.9483,5.9483,5.9483,5.9483,5.9431,5.9023,5.8906,5.8809,5.8384,5.858,5.875,5.8384,5.8232,5.8109,5.803,5.7299,5.5082,4.9891,4.7486,4.6308,4.6308,4.6308,4.6308,4.6308,4.6308,4.6308,4.6308,4.6308,4.6308,4.6308,4.6308,4.6308,4.6308,4.6797,4.7132,4.7132,4.6973,4.7048,4.7483,4.7542,4.7561,4.7561,4.7581,4.7773,4.8164,4.8164,4.8382,4.8815,4.8855,4.8855,3.0144,3.1167,3.2262,3.2875,3.3914,0.0,0.0,3.4691,3.5516,3.773,3.8191,3.8929,4.1316,4.3664,4.6436,5.0083,5.0309,5.0209,5.077,5.1574,5.2226,5.2561,5.2787,5.2895,5.2895,5.2895,5.2895,5.2895,5.2895,5.2895,5.2895,5.2895,5.3063,5.3389,5.3607,5.4034,5.4737,5.5164,5.5566,5.5892,5.5892,5.6018,5.62,5.62,5.62,5.62,5.62,5.6502,5.7035,5.7405,5.8008,5.8736,5.9081,5.9332,5.9483,5.9483,5.9483,5.9483,5.9483,5.9483,5.9483,5.9483,5.9483,5.9483,5.9483,5.9483,5.9431,5.9023,5.9076,5.9198,5.877,5.9037,5.9423,5.9502,5.964,5.9642,5.9247,5.7633,5.5149,5.1464,4.9564,4.822,4.7262,4.7112,4.7112,4.7112,4.7112,4.7112,4.7112,4.7112,4.7112,4.7112,4.6975,4.6936,4.709,4.7327,4.7444,4.7444,4.7539,4.7575,4.76,4.7832,4.7969,4.7969,4.8265,4.848,4.8636,4.8636,4.8714,4.8913,4.8913,4.8913,3.0646,3.1337,3.2154,3.3,0.0,0.0,3.5542,3.6676,3.8266,4.0612,4.1178,4.153,4.2473,4.4016,4.6286,4.9857,5.036,5.072,5.1925,5.2251,5.2485,5.2845,5.2895,5.2895,5.2895,5.2895,5.2895,5.2895,5.2895,5.2895,5.2895,5.2895,5.3163,5.3683,5.3884,5.4454,5.5408,5.5566,5.5842,5.62,5.62,5.62,5.62,5.62,5.62,5.62,5.62,5.6602,5.733,5.7725,5.8328,5.8987,5.9357,5.9483,5.9483,5.9483,5.9483,5.9483,5.9483,5.9483,5.9483,5.9483,5.9483,5.9483,5.9483,5.9483,5.9425,5.9179,5.9295,5.9425,5.9154,5.9375,5.9808,6.0434,6.0412,6.0003,5.9096,5.6603,5.3885,5.1637,5.0335,4.9165,4.7724,4.7542,4.76,4.76,4.76,4.76,4.76,4.76,4.76,4.76,4.7444,4.7288,4.721,4.7698,4.8011,4.8011,4.8183,4.8203,4.8011,4.8262,4.8418,4.8418,4.8757,4.8913,4.8913,4.8913,4.8913,4.8913,4.8913,4.8913,3.0431,3.1013,3.1758,3.2296,3.3627,3.5302,3.719,3.954,4.1829,4.3729,4.4392,4.4077,4.2272,4.4342,4.6788,4.8284,5.036,5.1867,5.2076,5.2561,5.2895,5.2895,5.2895,5.2895,5.2895,5.2895,5.2895,5.2895,5.2895,5.2895,5.2895,5.2895,5.3163,5.3683,5.4278,5.4873,5.5408,5.5942,5.62,5.62,5.62,5.62,5.62,5.62,5.62,5.62,5.62,5.6846,5.7901,5.7901,5.8529,5.9483,5.9483,5.9483,5.9483,5.9483,5.9483,5.9483,5.9483,5.9483,5.9483,5.9483,5.9483,5.9483,5.9483,5.9483,5.9483,5.9483,5.9483,5.9483,5.9483,5.9483,5.9784,6.0934,6.0356,5.9087,5.7437,5.4345,5.1468,5.0178,4.9413,4.8642,4.7405,4.7444,4.762,4.762,4.762,4.762,4.762,4.762,4.762,4.762,4.762,4.7268,4.6406,4.7913,4.8913,4.8913,4.8913,4.8913,4.8913,4.8913,4.8913,4.8913,4.8913,4.8913,4.8913,4.8913,4.8913,4.8913,4.8913,4.8913,3.1999,3.2687,3.3516,3.4426,3.5517,3.6998,3.9425,4.071,4.2182,4.5051,4.5723,4.5482,4.4418,4.5974,4.8008,4.9766,5.0837,5.1724,5.2561,5.2812,5.2895,5.2895,5.2895,5.2895,5.2895,5.2895,5.2895,5.2895,5.2895,5.2895,5.2895,5.2895,5.3339,5.4303,5.4522,5.5031,5.5968,5.61,5.62,5.62,5.62,5.62,5.62,5.62,5.62,5.62,5.62,5.6846,5.7951,5.8704,5.9207,5.9483,5.9483,5.9483,5.9483,5.9483,5.9483,5.9483,5.9483,5.9483,5.9483,5.9483,5.9483,5.9483,5.9483,5.9483,5.9483,5.9483,5.9483,5.9483,5.9483,5.9483,5.9784,6.0934,6.1517,6.0983,5.7883,5.5744,5.3748,5.1593,5.0678,4.9872,4.863,4.8441,4.8499,4.8499,4.8499,4.8499,4.8499,4.8499,4.8499,4.8499,4.8499,4.8402,4.8148,4.8597,4.8913,4.8913,4.8913,4.8913,4.8913,4.8913,4.8913,4.8913,4.8913,4.8913,4.8913,4.8913,4.8913,4.8913,4.8913,4.8913,3.2814,3.3773,3.4852,3.5955,3.7307,3.9226,4.2374,4.3408,4.4346,4.6782,4.7456,4.7405,4.6753,4.7456,4.867,5.0318,5.1348,5.2159,5.2795,5.2895,5.2895,5.2895,5.2895,5.2895,5.2895,5.2895,5.2895,5.2895,5.3113,5.3213,5.3213,5.3457,5.3984,5.4898,5.4906,5.5333,5.6175,5.62,5.62,5.62,5.62,5.62,5.62,5.62,5.62,5.6244,5.6696,5.7273,5.7976,5.9056,5.9483,5.9483,5.9483,5.9483,5.9483,5.9483,5.9483,5.9483,5.9483,5.9483,5.9483,5.9483,5.9483,5.9483,5.9483,5.9483,5.9483,5.9483,5.9483,5.9483,5.9483,6.0161,6.0989,6.1667,6.2325,6.1812,5.817,5.5005,5.2654,5.1889,5.1456,5.0704,4.917,4.8913,4.8913,4.8913,4.8913,4.8913,4.8913,4.8913,4.8913,4.8913,4.8913,4.8913,4.8913,4.8913,4.8913,4.8913,4.8913,4.8913,4.8913,4.8913,4.8913,4.8913,4.8913,4.8913,4.8913,4.9105,4.9105,4.8913,4.9265,4.9594,3.3173,3.4526,3.6021,3.7186,3.9245,4.1918,4.5623,4.6863,4.7566,4.8652,4.9305,4.9556,4.9028,4.8878,4.9163,5.0302,5.1858,5.2895,5.2895,5.2895,5.2895,5.2895,5.2895,5.2937,5.297,5.297,5.3013,5.3063,5.3507,5.3783,5.3783,5.4303,5.4848,5.5383,5.5408,5.5641,5.6175,5.62,5.62,5.62,5.62,5.62,5.62,5.62,5.62,5.6251,5.7399,5.7901,5.7976,5.9056,5.9483,5.9483,5.9483,5.9483,5.9483,5.9483,5.9483,5.9483,5.9483,5.9483,5.9483,5.9483,5.9483,5.9483,5.9483,5.9483,5.9483,5.9483,5.9633,5.9784,5.9784,6.1296,6.2802,6.2802,6.2802,6.1878,5.8477,5.3367,4.9882,5.1365,5.159,5.0975,4.9193,4.8913,4.8913,4.8913,4.8913,4.8913,4.8913,4.8913,4.8913,4.8913,4.8913,4.8913,4.8913,4.8913,4.8913,4.8913,4.9027,4.9148,4.9148,4.9148,4.9148,4.9148,4.9148,4.9148,4.9148,4.9609,4.959,4.9125,4.9789,5.0547,3.4118,3.5964,3.7852,3.9408,4.2133,4.497,4.7079,4.8008,4.8626,4.9305,4.9983,5.0368,5.0117,5.0619,5.1071,5.1113,5.2126,5.2895,5.2895,5.2895,5.2895,5.2895,5.2895,5.3063,5.3507,5.3532,5.3708,5.4202,5.4328,5.4421,5.4421,5.4522,5.4848,5.5383,5.5408,5.5641,5.6175,5.62,5.62,5.62,5.62,5.62,5.62,5.62,5.62,5.6251,5.7399,5.7901,5.7976,5.9056,5.9483,5.9483,5.9483,5.9483,5.9483,5.9483,5.9483,5.9483,5.9483,5.9483,5.9483,5.9483,5.9483,5.9483,5.9483,5.9483,5.9483,5.9483,6.0744,6.2099,6.2099,6.245,6.2802,6.2802,6.2802,6.2228,6.0087,5.6383,5.2895,5.0977,5.0039,4.9377,4.8982,4.8913,4.8913,4.8913,4.8913,4.8913,4.8913,4.8913,4.8913,4.8913,4.8913,4.8913,4.8913,4.8913,4.8913,4.8913,5.0117,5.0855,5.0855,5.0855,5.0855,5.0855,5.0855,5.0855,5.0855,5.0972,5.0972,5.0859,4.9711,4.9984,3.4181,3.659,3.9367,4.2493,4.478,4.6702,4.8335,4.9229,4.9832,5.0334,5.0711,5.1096,5.1532,5.1983,5.2277,5.2101,5.2536,5.2895,5.2895,5.3113,5.3314,5.3414,5.3607,5.3808,5.4102,5.4127,5.4253,5.4572,5.4848,5.4981,5.4981,5.5232,5.5491,5.5767,5.5792,5.5917,5.62,5.62,5.62,5.62,5.62,5.62,5.62,5.62,5.62,5.6251,5.7399,5.7901,5.7976,5.9056,5.9483,5.9483,5.9483,5.9483,5.9483,5.9483,5.9483,5.9483,5.9483,5.9483,5.9483,5.9483,5.9483,5.9483,5.9483,5.9483,5.9483,5.9483,6.1095,6.2802,6.2802,6.2802,6.2577,6.1754,6.2187,6.2556,6.1651,5.928,5.6362,5.3052,5.0522,4.8913,4.8913,4.8913,4.8913,4.8913,4.8913,4.8913,4.8913,4.8913,4.8913,4.8913,4.8913,4.8913,4.8913,4.9633,5.0098,5.0098,5.0913,5.1401,5.1401,5.1401,5.1401,5.1401,5.1401,5.1401,5.1401,5.1401,5.1401,5.1382,5.0508,5.0566,3.4046,3.7145,4.0906,4.5223,4.6737,4.7616,4.9389,5.0259,5.0837,5.1289,5.149,5.185,5.2737,5.2895,5.2937,5.302,5.3038,5.3063,5.3071,5.3464,5.3841,5.4167,5.4486,5.4697,5.4748,5.4748,5.4773,5.4856,5.5282,5.5559,5.5559,5.5968,5.62,5.62,5.62,5.62,5.62,5.62,5.62,5.62,5.62,5.62,5.62,5.62,5.6251,5.6401,5.7449,5.7951,5.8102,5.9106,5.9483,5.9483,5.9483,5.9483,5.9483,5.9483,5.9483,5.9483,5.9483,5.9483,5.9483,5.9483,5.9483,5.9558,5.996,6.006,6.006,6.006,6.1396,6.2802,6.2802,6.2802,6.2372,6.0611,6.0542,6.108,6.173,6.0503,5.8261,5.4851,5.132,4.8913,4.8913,4.8913,4.8913,4.8913,4.8913,4.9011,4.9281,4.932,4.932,4.932,4.932,4.932,4.932,5.0605,5.1401,5.1401,5.1401,5.1401,5.1401,5.1401,5.1401,5.1401,5.1401,5.1401,5.1401,5.1401,5.1401,5.1401,5.1401,5.1401,3.4543,3.8611,4.2824,4.5624,4.6838,4.7933,5.0067,5.0636,5.0912,5.159,5.2251,5.2737,5.287,5.2895,5.3063,5.3532,5.3607,5.364,5.3841,5.3916,5.4217,5.487,5.4996,5.5114,5.5282,5.5308,5.5509,5.5968,5.605,5.6075,5.6075,5.615,5.62,5.62,5.62,5.62,5.62,5.62,5.62,5.62,5.62,5.62,5.62,5.62,5.6451,5.6935,5.7625,5.8177,5.8635,5.9257,5.9483,5.9483,5.9483,5.9483,5.9483,5.9483,5.9483,5.9483,5.9483,5.9483,5.9483,5.9483,5.9483,5.9859,6.1773,6.2375,6.2375,6.2375,6.2576,6.2802,6.2802,6.2802,6.2372,6.0611,5.6642,5.4188,5.749,5.6755,5.4785,5.2602,5.0408,4.8913,4.8913,4.8913,4.8913,4.8913,4.8913,4.9418,5.0874,5.1069,5.1069,5.1069,5.1069,5.1069,5.1069,5.1284,5.1401,5.1401,5.1401,5.1401,5.1401,5.1401,5.1401,5.1401,5.1401,5.1401,5.1401,5.1401,5.1401,5.1401,5.1401,5.1401,3.7079,3.9898,4.2549,4.6541,4.7606,4.8209,5.0243,5.0862,5.1214,5.1825,5.246,5.2895,5.2895,5.3163,5.3432,5.3658,5.3984,5.4228,5.431,5.4587,5.4913,5.5239,5.5523,5.5749,5.5842,5.5842,5.5942,5.6175,5.62,5.62,5.62,5.62,5.62,5.62,5.5917,5.5892,5.62,5.5591,5.5308,5.5308,5.5308,5.544,5.5742,5.5742,5.62,5.7035,5.765,5.8183,5.8736,5.9282,5.9483,5.9483,5.9483,5.9483,5.9483,5.9483,5.9483,5.9483,5.9483,5.9483,5.9483,5.9483,5.9483,5.991,6.2124,6.2802,6.2802,6.2802,6.2802,6.2802,6.2802,6.2802,6.2372,6.0611,5.5904,5.2265,5.3944,5.2785,5.1184,5.034,4.9469,4.8913,4.8913,4.8913,4.9226,5.0156,5.0293,5.0566,5.1304,5.1401,5.1401,5.1401,5.1401,5.1401,5.1401,5.1401,5.1401,5.1401,5.1401,5.1401,5.1401,5.1401,5.1401,5.1401,5.1401,5.1401,5.1401,5.1401,5.1401,5.1401,5.1401,5.1401,3.8359,4.0228,4.1882,4.6735,4.7857,4.8234,5.0033,5.0812,5.1339,5.1975,5.2536,5.2895,5.2895,5.3239,5.3557,5.3683,5.4077,5.4403,5.4572,5.4931,5.5207,5.5207,5.5541,5.5792,5.5792,5.5792,5.5792,5.5792,5.5792,5.5842,5.5917,5.5842,5.5792,5.5792,5.5491,5.544,5.5648,5.4956,5.4547,5.4454,5.4547,5.4823,5.5207,5.5333,5.5993,5.7035,5.765,5.8278,5.8936,5.9332,5.9483,5.9483,5.9483,5.9483,5.9483,5.9483,5.9483,5.9483,5.9483,5.9483,5.9483,5.9483,5.9483,5.991,6.2124,6.2802,6.2802,6.2802,6.2802,6.2802,6.2802,6.2802,6.2372,6.0611,5.5904,5.1656,5.118,4.9905,4.8913,4.8913,4.8913,4.8913,4.8913,4.9242,4.9941,5.1206,5.1401,5.1401,5.1401,5.1401,5.1401,5.1401,5.1401,5.1401,5.1401,5.1401,5.1401,5.1401,5.1401,5.1401,5.1401,5.1401,5.1401,5.1401,5.1401,5.1401,5.1401,5.1401,5.1401,5.1401,5.1401,5.1401,3.6689,3.8955,4.1469,4.5424,4.6913,4.7832,4.933,5.0218,5.0987,5.1925,5.2536,5.2895,5.2895,5.292,5.3113,5.3632,5.3733,5.3951,5.4522,5.4622,5.4647,5.4647,5.4672,5.4672,5.4672,5.4672,5.4672,5.4672,5.4672,5.483,5.5146,5.4856,5.4672,5.4672,5.4963,5.4795,5.4117,5.4429,5.4403,5.4042,5.4429,5.4622,5.4672,5.5157,5.5993,5.7035,5.765,5.8504,5.9458,5.9483,5.9483,5.9483,5.9483,5.9483,5.9483,5.9483,5.9483,5.9483,5.9483,5.9483,5.9483,5.9483,5.9483,5.991,6.2124,6.2802,6.2802,6.2802,6.2802,6.2802,6.2802,6.2802,6.2372,6.0611,5.5904,5.1293,4.9466,4.8982,4.8913,4.8913,4.8913,4.8913,4.8913,5.0215,5.1304,5.1401,5.1401,5.1401,5.1401,5.1401,5.1401,5.1401,5.1401,5.1401,5.1401,5.1401,5.1401,5.1401,5.1401,5.1401,5.1401,5.1401,5.1401,5.1401,5.1401,5.1401,5.1401,5.1401,5.1401,5.1401,5.1401,5.1401,3.5392,3.7465,3.9958,4.4477,4.5608,4.611,4.8058,4.9264,5.0494,5.226,5.2762,5.2895,5.2895,5.2895,5.2945,5.3163,5.3808,5.4353,5.4572,5.4597,5.4597,5.4597,5.4597,5.4597,5.4597,5.4597,5.4597,5.4597,5.4597,5.4647,5.478,5.4672,5.4705,5.4913,5.4569,5.4042,5.3314,5.3439,5.3439,5.3314,5.3439,5.3683,5.4034,5.4981,5.5993,5.7035,5.8008,5.883,5.9483,5.9483,5.9483,5.9483,5.9483,5.9483,5.9483,5.9483,5.9483,5.9483,5.9483,5.9483,5.9734,6.1145,6.1622,6.1773,6.2576,6.2802,6.2802,6.2802,6.2802,6.2536,6.1423,6.1133,6.006,5.5838,5.3254,5.127,4.9308,4.8913,4.9226,5.0293,5.0508,5.0508,5.0508,5.0991,5.1401,5.1401,5.1401,5.1401,5.1401,5.1401,5.1401,5.1401,5.1401,5.1401,5.1401,5.1401,5.1401,5.1401,5.1401,5.1401,5.1401,5.1401,5.1401,5.1401,5.1401,5.1401,5.1401,5.1401,5.1401,5.1401,5.1401,5.1401,3.4212,3.6064,3.8259,4.2046,4.3343,4.4177,4.6185,4.7883,4.9615,5.1657,5.2511,5.2895,5.2895,5.2895,5.2895,5.2895,5.3532,5.4027,5.4027,5.4027,5.4027,5.4027,5.4027,5.4027,5.4027,5.4027,5.4027,5.4027,5.4027,5.4027,5.4027,5.4027,5.4135,5.4368,5.3891,5.3414,5.2895,5.2895,5.2895,5.2895,5.2895,5.3289,5.4027,5.4981,5.6093,5.7355,5.8309,5.8987,5.9483,5.9483,5.9483,5.9483,5.9483,5.9483,5.9483,5.9483,5.9483,5.9483,5.9483,5.9483,5.9859,6.2074,6.2802,6.2802,6.2802,6.2802,6.2802,6.2802,6.2802,6.2393,6.0653,5.8792,5.6448,5.2694,5.2244,5.2149,5.0172,4.975,5.0058,5.1187,5.1401,5.1401,5.1401,5.1401,5.1401,5.1401,5.1401,5.1401,5.1401,5.1401,5.1401,5.1401,5.1401,5.1401,5.1401,5.1401,5.1401,5.1401,5.1401,5.1401,5.1401,5.1401,5.1401,5.1401,5.1401,5.1401,5.1401,5.1401,5.1401,5.1401,5.1401,5.1401,0.0,0.0,0.0,3.8067,4.0115,4.2116,4.3672,4.5999,4.8294,5.0026,5.1682,5.2845,5.2895,5.2895,5.2895,5.2895,5.2895,5.2895,5.2895,5.2895,5.2895,5.2895,5.2895,5.2895,5.2895,5.2895,5.2895,5.2895,5.2895,5.2895,5.2895,5.2895,5.2895,5.2895,5.2895,5.2895,5.2895,5.2895,5.2895,5.2895,5.2895,5.3507,5.4622,5.5157,5.6319,5.7926,5.8485,5.9012,5.9483,5.9483,5.9483,5.9483,5.9483,5.9483,5.9483,5.9483,5.9483,5.9483,5.9483,5.9533,5.996,6.2099,6.2802,6.2802,6.2802,6.2802,6.2781,6.2741,6.272,6.231,6.0444,5.5948,5.1874,5.1874,5.317,5.3856,5.1838,5.1401,5.1401,5.1401,5.1401,5.1401,5.1401,5.1401,5.1401,5.1401,5.1401,5.1401,5.1401,5.1401,5.1401,5.1401,5.1401,5.1401,5.1401,5.1401,5.1401,5.1401,5.1401,5.1401,5.1401,5.1401,5.1401,5.1401,5.1401,5.1401,5.1401,5.1401,5.1401,5.1401,5.1401,5.1401,3.0939,0.0,0.0,0.0,0.0,0.0,4.2075,4.4208,4.6569,4.9266,5.0503,5.1456,5.2686,5.2895,5.2895,5.2895,5.2895,5.2895,5.2895,5.2895,5.2895,5.2895,5.2895,5.2895,5.2895,5.2895,5.2895,5.2895,5.2895,5.2895,5.2895,5.2895,5.2895,5.2895,5.2895,5.2895,5.2895,5.2895,5.2895,5.2895,5.2895,5.3507,5.4622,5.5541,5.6696,5.7951,5.888,5.9357,5.9483,5.9483,5.9483,5.9483,5.9483,5.9483,5.9483,5.9483,5.9483,5.9483,5.9483,6.0563,6.1999,6.2601,6.2802,6.2802,6.2802,6.2802,6.2536,6.1278,6.0924,5.9871,5.5313,5.3935,5.3755,5.3755,5.2988,5.2104,5.1523,5.1401,5.1401,5.1401,5.1401,5.1401,5.1401,5.1401,5.1401,5.1401,5.1401,5.1401,5.1401,5.1401,5.1401,5.1401,5.1401,5.1401,5.1401,5.1401,5.1401,5.1401,5.1401,5.1401,5.1401,5.1401,5.1401,5.1401,5.1401,5.1401,5.1401,5.1401,5.1401,5.1401,5.1401,5.1401,0.0,0.0,0.0,3.4602,0.0,0.0,4.0386,4.2457,4.4797,4.7645,4.9464,5.0921,5.2184,5.1682,5.1055,5.1055,5.1507,5.2109,5.2795,5.2895,5.2895,5.2895,5.2895,5.2895,5.2895,5.2895,5.2895,5.2895,5.2895,5.2895,5.2895,5.2895,5.2895,5.2895,5.2895,5.2895,5.2895,5.2895,5.2995,5.3239,5.3507,5.431,5.5616,5.6251,5.728,5.8579,5.8905,5.9207,5.9483,5.9483,5.9483,5.9408,5.8478,5.8127,5.8252,5.9156,5.9483,5.9633,6.0563,6.1723,6.2802,6.2802,6.2802,6.2802,6.2802,6.2802,6.2434,6.0695,5.9038,5.7067,5.3761,5.3714,5.4262,5.3425,5.2273,5.1401,5.1401,5.1401,5.1401,5.1401,5.1401,5.1401,5.1401,5.1401,5.1401,5.1401,5.1401,5.1401,5.1401,5.1401,5.1401,5.1401,5.1401,5.1401,5.1401,5.1401,5.1401,5.1401,5.1401,5.1401,5.1401,5.1401,5.1401,5.1401,5.1401,5.1401,5.1401,5.1401,5.1401,5.1401,5.1401,5.1401,3.2226,3.2923,0.0,0.0,3.5928,0.0,3.8558,4.0638,4.2974,4.5513,4.8209,5.041,5.1289,4.9791,4.8435,4.8435,4.9473,5.0879,5.2494,5.2787,5.282,5.2895,5.2895,5.2895,5.2895,5.2895,5.2895,5.2895,5.2895,5.2895,5.2895,5.2895,5.2895,5.2895,5.2895,5.2895,5.2895,5.2895,5.3213,5.3808,5.4328,5.5458,5.6985,5.701,5.7882,5.9332,5.878,5.888,5.9483,5.9232,5.9131,5.893,5.6972,5.6351,5.6821,5.878,5.9659,6.0161,6.2124,6.2802,6.2802,6.2802,6.2802,6.2752,6.2526,6.2601,6.236,6.0182,5.711,5.4497,5.4497,5.4497,5.3975,5.1886,5.1401,5.1401,5.1401,5.1401,5.1401,5.1401,5.1401,5.1401,5.1401,5.1401,5.1401,5.1401,5.1401,5.1401,5.1401,5.1577,5.1694,5.1694,5.1519,5.1401,5.1401,5.1401,5.1401,5.1401,5.1401,5.1401,5.1401,5.1401,5.1401,5.1401,5.1401,5.1401,5.1401,5.1401,5.1401,5.1401,5.1401,5.1401,3.2442,3.3176,3.3825,3.3715,3.4788,0.0,3.6247,3.8368,4.1035,4.374,4.5487,4.7094,4.9044,4.8652,4.8033,4.8033,4.8987,5.0193,5.144,5.1975,5.241,5.2845,5.2895,5.2895,5.2895,5.2895,5.2895,5.2895,5.2895,5.2895,5.2895,5.2895,5.2895,5.2895,5.2895,5.2895,5.2895,5.2895,5.3389,5.4446,5.4547,5.5458,5.701,5.7179,5.775,5.8629,5.9081,5.9357,5.9357,5.7575,5.6828,5.6821,5.6351,5.7298,5.8905,5.9332,6.0638,6.2225,6.2651,6.2802,6.2802,6.2802,6.2802,6.2476,6.0668,6.1396,6.1805,5.6967,5.5083,5.4497,5.4497,5.4497,5.3975,5.1886,5.1401,5.1401,5.1401,5.1401,5.1401,5.1401,5.1401,5.1401,5.1401,5.1401,5.1401,5.1401,5.1401,5.1401,5.1401,5.2631,5.349,5.349,5.2241,5.1401,5.1401,5.1401,5.1401,5.1401,5.1401,5.1401,5.1401,5.1401,5.1401,5.1401,5.1401,5.1401,5.1401,5.1401,5.1401,5.1401,5.1401,5.1401,3.397,3.4414,3.4751,3.4511,0.0,0.0,0.0,3.7603,3.9677,4.1725,4.3051,4.4271,4.5638,4.5889,4.5874,4.5874,4.7029,4.8335,4.9439,5.1046,5.2402,5.3188,5.3063,5.2895,5.2895,5.2895,5.2895,5.2895,5.3163,5.3188,5.2895,5.2895,5.2895,5.2895,5.2895,5.2895,5.2895,5.2895,5.359,5.5006,5.5006,5.5961,5.7681,5.7405,5.7901,5.8905,5.8177,5.7851,5.7775,5.6671,5.62,5.62,5.62,5.7549,5.9483,5.9483,6.0894,6.2802,6.2802,6.2074,6.1145,6.1145,6.1145,6.1145,6.1145,6.2042,6.1838,5.6116,5.4497,5.4497,5.4497,5.4497,5.3975,5.1886,5.1401,5.1401,5.1401,5.1401,5.1401,5.1401,5.1401,5.1401,5.1401,5.1401,5.1401,5.1401,5.1401,5.1401,5.1401,5.2163,5.3041,5.392,5.2456,5.1401,5.1401,5.1401,5.1401,5.1401,5.1401,5.1401,5.1401,5.1401,5.1401,5.1401,5.1401,5.1401,5.1401,5.1401,5.1401,5.1401,5.1401,5.1401,0.0,0.0,3.5905,0.0,0.0,3.6051,0.0,0.0,0.0,3.9858,4.0991,4.1884,4.2487,4.2986,4.3363,4.3463,4.4794,4.6261,4.7566,4.9699,5.1624,5.2929,5.2787,5.2586,5.2586,5.2686,5.2787,5.2895,5.3206,5.3239,5.2937,5.2895,5.2895,5.2895,5.3013,5.3063,5.3063,5.3163,5.4009,5.5541,5.5541,5.647,5.8177,5.7876,5.8152,5.8755,5.6997,5.62,5.62,5.62,5.62,5.6226,5.6671,5.7926,5.9483,5.9483,6.0894,6.2802,6.2802,6.1346,5.9483,5.9483,5.9784,6.0462,6.225,6.3027,6.2075,5.616,5.4497,5.4497,5.4497,5.419,5.3473,5.179,5.1401,5.1401,5.1401,5.1401,5.1401,5.1401,5.1401,5.1401,5.1401,5.1401,5.1401,5.1401,5.1401,5.1401,5.1401,5.1401,5.1948,5.3354,5.2241,5.1401,5.1401,5.1401,5.1401,5.1401,5.1401,5.1401,5.1401,5.1401,5.1401,5.1401,5.1401,5.1401,5.1401,5.1401,5.1401,5.1401,5.1401,5.1401,0.0,0.0,0.0,0.0,3.6341,3.6002,3.6034,0.0,3.7469,3.858,0.0,4.0212,4.0916,0.0,0.0,4.2286,4.3327,4.4805,4.6898,4.7475,4.8429,5.0528,5.1197,5.149,5.149,5.19,5.2385,5.2845,5.2511,5.246,5.2887,5.2895,5.2895,5.2895,5.3364,5.3607,5.3607,5.4152,5.4981,5.61,5.61,5.657,5.7474,5.8704,5.8278,5.6552,5.6301,5.62,5.62,5.62,5.62,5.6376,5.8353,5.9282,5.9483,5.9483,6.0894,6.2802,6.2802,6.1346,5.9483,5.9483,6.0839,6.2476,6.2706,6.3027,6.2075,5.616,5.4497,5.4497,5.4497,5.3137,5.1693,5.145,5.1401,5.1401,5.1401,5.1401,5.1401,5.1401,5.1401,5.1401,5.1401,5.1401,5.1401,5.1401,5.1401,5.1401,5.1401,5.1401,5.1479,5.1675,5.1519,5.1401,5.1401,5.1401,5.1401,5.1401,5.1401,5.1401,5.1401,5.1401,5.1401,5.1401,5.1401,5.1401,5.1401,5.1401,5.1401,5.1401,5.1401,5.1401,0.0,0.0,0.0,0.0,3.7188,3.6821,3.6627,3.6622,3.7129,3.8868,0.0,0.0,0.0,0.0,0.0,0.0,4.2975,4.4306,4.5221,4.5733,4.6988,4.9615,4.9882,5.0083,5.072,5.1297,5.1724,5.195,5.1749,5.1875,5.241,5.2737,5.3038,5.3339,5.3582,5.3858,5.4228,5.4471,5.5132,5.6175,5.5774,5.6602,5.8554,5.7901,5.7097,5.62,5.62,5.62,5.62,5.62,5.6972,5.8202,5.9131,5.9483,5.9659,6.0944,6.1999,6.2802,6.2802,6.1346,5.9483,5.9483,6.1014,6.2802,6.2802,6.3027,6.2075,5.616,5.4497,5.4214,5.2996,5.2056,5.1401,5.1401,5.1401,5.1401,5.1401,5.1401,5.1401,5.1401,5.1401,5.1401,5.1401,5.1401,5.1753,5.2768,5.2046,5.1401,5.1401,5.1401,5.1401,5.1401,5.1401,5.1401,5.1401,5.1401,5.1831,5.2846,5.2905,5.2905,5.2905,5.2905,5.2905,5.2905,5.2905,5.2417,5.1401,5.1401,5.1401,5.1401,5.1401,5.1401,4.0321,4.0032,3.9482,3.8637,3.8032,3.7549,3.7208,3.7229,3.7813,3.9635,4.074,0.0,0.0,0.0,4.1984,4.1617,0.0,4.3115,4.3718,4.408,4.5246,4.7798,4.825,4.8761,4.9866,5.0494,5.0912,5.1038,5.1046,5.1348,5.2076,5.2611,5.3163,5.3683,5.3858,5.4228,5.4805,5.4956,5.5433,5.6175,5.5648,5.6502,5.8554,5.6928,5.62,5.62,5.62,5.62,5.6251,5.6853,5.8052,5.9483,5.9483,5.9859,6.0613,6.2199,6.2802,6.2727,6.2099,6.0844,5.9583,6.0211,6.1497,6.2927,6.353,6.354,6.2299,5.7492,5.5734,5.4717,5.208,5.1401,5.1401,5.1401,5.1401,5.1401,5.1401,5.1401,5.1401,5.1401,5.1401,5.1401,5.1401,5.1811,5.2553,5.3822,5.2924,5.1948,5.146,5.1401,5.1401,5.1401,5.1401,5.1401,5.1401,5.185,5.2651,5.392,5.3998,5.3998,5.3998,5.3998,5.3998,5.3998,5.3998,5.3373,5.2124,5.1636,5.1401,5.1401,5.1401,5.1401,4.1355,4.1139,4.0887,3.9817,3.8764,3.789,3.7565,3.8592,3.9836,4.0614,4.192,4.3165,4.3894,4.2864,0.0,0.0,4.0853,0.0,0.0,4.2423,4.2573,4.4095,4.5974,4.7591,4.8727,4.933,4.9866,5.0377,5.0427,5.0904,5.2051,5.2611,5.3163,5.3683,5.4253,5.483,5.5383,5.5892,5.615,5.62,5.6194,5.62,5.6301,5.6226,5.62,5.62,5.62,5.62,5.6351,5.8504,5.9433,5.9483,5.9483,6.0814,6.2701,6.2756,6.2802,6.2501,6.0362,5.9558,5.9859,6.1999,6.2752,6.3203,6.5337,6.4743,6.2879,6.0862,5.8901,5.6486,5.2447,5.1401,5.1401,5.1401,5.1401,5.1401,5.1401,5.1401,5.1401,5.1401,5.1401,5.1401,5.1401,5.2807,5.3939,5.3998,5.3959,5.3315,5.1636,5.1401,5.1401,5.1401,5.1401,5.1401,5.1401,5.2963,5.3939,5.3998,5.3998,5.3998,5.3998,5.3998,5.3998,5.3998,5.3998,5.3978,5.392,5.2221,5.1401,5.1401,5.1401,5.1401,4.3499,4.3476,4.3484,4.2566,4.0865,3.9752,4.0873,4.1518,4.182,4.1569,4.2886,4.4141,4.4378,0.0,0.0,0.0,0.0,0.0,0.0,4.0614,4.1167,4.314,4.4593,4.5884,4.7029,4.7958,4.8711,4.9305,4.9665,5.0368,5.1515,5.241,5.3314,5.4253,5.4496,5.5031,5.5917,5.61,5.62,5.62,5.62,5.62,5.62,5.62,5.62,5.62,5.62,5.62,5.6351,5.8579,5.9483,5.9633,6.1095,6.2149,6.2802,6.2802,6.1873,6.0738,6.1446,6.1672,6.1798,6.2576,6.2802,6.3229,6.5437,6.5659,6.5031,6.4374,6.1918,5.8257,5.2808,5.1401,5.1401,5.1401,5.1401,5.1401,5.1401,5.1401,5.1401,5.1401,5.1401,5.1401,5.1401,5.1889,5.267,5.3842,5.3998,5.3783,5.3197,5.2124,5.1401,5.1401,5.1401,5.187,5.3022,5.3666,5.3998,5.3998,5.3998,5.3998,5.3998,5.3998,5.3998,5.3998,5.3998,5.3432,5.228,5.1694,5.1401,5.1401,5.1401,5.2026,4.7134,4.8248,4.8368,4.5834,4.4358,4.3725,4.4424,4.4357,4.3879,4.2889,4.4342,4.5984,4.6637,4.6537,0.0,0.0,0.0,0.0,0.0,3.9471,4.0087,4.2158,4.3349,4.4554,4.5899,4.6828,4.7581,4.8134,4.8686,4.949,5.0636,5.1749,5.303,5.4547,5.4597,5.5207,5.6477,5.6301,5.62,5.62,5.62,5.62,5.62,5.62,5.62,5.62,5.62,5.62,5.6351,5.8579,5.9483,5.9709,6.1923,6.2325,6.1622,6.1622,6.0738,5.9809,6.2024,6.2802,6.2802,6.2802,6.2802,6.3229,6.5437,6.609,6.609,6.609,6.3408,5.9086,5.298,5.1401,5.1401,5.1401,5.1401,5.1401,5.1401,5.1401,5.1401,5.1401,5.1401,5.1401,5.1401,5.1401,5.1792,5.2905,5.3607,5.3998,5.3998,5.3022,5.2104,5.1479,5.1968,5.2787,5.39,5.3998,5.3998,5.3998,5.3998,5.3998,5.3998,5.3998,5.3998,5.3998,5.3393,5.2534,5.1401,5.1401,5.1401,5.1401,5.1401,5.2338]}]]